     2              OBSERVATION DATA    GPS                 RINEX VERSION / TYPE
teqc 1997Jul24 19970902 21:05:55UTC                         PGM / RUN BY / DATE
                                                            COMMENT
BIT 2 OF LLI FLAGS DATA COLLECTED UNDER A-S CONDITION       COMMENT
BIT 2 OF LLI FLAGS DATA COLLECTED UNDER A-S CONDITION       COMMENT
Original Marker Name: 55476.NIGU                            COMMENT
Campaign Name: Salt. Tr. Crust. Monit. May-Jun 1986         COMMENT
4-Character Station Name: NIGU                              COMMENT
6-Character Antenna Code: TI4100                            COMMENT
Vertical Measurement Point: PAE                             COMMENT
Vertical Offset to Rinex Ref. Point: 0.0000                 COMMENT
Radial Measurement Point: RRP                               COMMENT
Radial Offset to Rinex Ref. Point: 0.0000                   COMMENT
Antenna Height from Field Measurement: 1.5000 m             COMMENT
Original XYZ: -1904576.4403 -3682772.5155 2377605.0329      COMMENT
New XYZ position is based on association with SCEC monument COMMENT
E1D0D8E5+0011. Position of that monument is believed to be  COMMENT
valid to within 1 m horizontally; vertical accuracy         COMMENT
should be no worse than 3-times this value.                 COMMENT
                                                            COMMENT
Revised Rinex header created by UCSD GPS archive for        COMMENT
GSAC on 12-Apr-1999 (1999:102) 02:49:20 GMT                 COMMENT
For assistance contact dagnew@ucsd.edu or hjohnson@ucsd.edu COMMENT
                                                            COMMENT
NIGUEL A 1884 1981                                          MARKER NAME
5 NATIONAL GEODETIC SURVEY                                  OBSERVER / AGENCY
UT-18 TI 4100 1.0                                           REC # / TYPE / VERS
4014 TI 4100                                                ANT # / TYPE
 -2477021.0000 -4711974.0000  3501809.0000                  APPROX POSITION XYZ
        1.5000        0.0000        0.0000                  ANTENNA: DELTA H/E/N
     1     1     0                                          WAVELENGTH FACT L1/2
     4    P1    P2    L1    L2                              # / TYPES OF OBSERV
     6                                                      INTERVAL
  1986     6    17     0    58   53.000000                  TIME OF FIRST OBS
  1986     6    17     2    47   23.000000                  TIME OF LAST OBS
     0                                                      # OF SATELLITES
                                                            END OF HEADER
 86  6 17  0 58 53.0800000  0  3G 6G 9G11
  20951127.409    20951129.041    39090002.932 9 -48787306.213 9
  20230264.678    20230266.410    23524335.929 9 -60876068.486 8
  21283727.372    21283729.203    40117445.324 9 -48173776.523 8
 86  6 17  0 58 59.0800000  0  3G 6G 9G11
  20953083.667    20953086.158    39100285.943 9 -48779293.479 9
  20228850.528    20228852.770    23516907.350 8 -60881856.999 9
  21285944.842    21285945.445    40129094.337 9 -48164699.369 8
 86  6 17  0 59  5.0800000  0  3G 6G 9G11
  20955044.705    20955046.546    39110589.805 9 -48771264.505 8
  20227442.130    20227443.476    23509498.863 9 -60887629.841 8
  21288163.628    21288166.415    40140757.316 9 -48155611.333 8
 86  6 17  0 59 11.0800000  0  3G 6G 9G11
  20957008.373    20957010.916    39120914.462 9 -48763219.329 8
  20226034.589    20226038.009    23502110.553 9 -60893386.976 8
  21290385.642    21290386.933    40152434.212 9 -48146512.444 7
 86  6 17  0 59 17.0800000  0  3G 6G 9G11
  20958977.825    20958979.877    39131259.866 9 -48755157.975 9
  20224633.349    20224635.678    23494742.287 7 -60899128.472 9
  21292610.264    21292612.618    40164124.984 9 -48137402.746 8
 86  6 17  0 59 23.0800000  0  3G 6G 9G11
  20960949.222    20960952.346    39141625.914 9 -48747080.546 9
  20223234.026    20223236.711    23487394.174 9 -60904854.277 8
  21294837.884    21294839.335    40175829.520 9 -48128282.335 8
 86  6 17  0 59 29.0800000  0  3G 6G 9G11
  20962926.860    20962929.254    39152012.577 8 -48738987.046 8
  20221839.563    20221841.622    23480065.981 8 -60910564.549 8
  21297066.756    21297068.490    40187547.822 9 -48119151.187 8
 86  6 17  0 59 35.0800000  0  3G 6G 9G11
  20964906.553    20964909.106    39162419.915 9 -48730877.443 8
  20220448.567    20220450.696    23472757.954 8 -60916259.114 9
  21299298.395    21299301.725    40199279.815 9 -48110009.381 8
 86  6 17  0 59 41.0800000  0  3G 6G 9G11
  20966890.964    20966893.836    39172847.967 9 -48722751.697 9
  20219061.890    20219065.194    23465470.127 9 -60921937.944 8
  21301533.868    21301536.111    40211025.596 9 -48100856.817 9
 86  6 17  0 59 47.0800000  0  3G 6G 9G11
  20968879.531    20968881.272    39183296.843 9 -48714609.722 9
  20217679.251    20217681.640    23458202.545 8 -60927601.004 8
  21303772.054    21303773.897    40222785.183 9 -48091693.502 8
 86  6 17  0 59 53.0800000  0  3G 6G 9G11
  20970871.831    20970874.813    39193766.463 9 -48706451.586 9
  20216300.532    20216302.023    23450955.297 9 -60933248.203 8
  21306012.590    21306014.888    40234558.511 9 -48082519.489 9
 86  6 17  0 59 59.0800000  0  3G 6G 9G11
  20972867.463    20972870.915    39204256.762 9 -48698277.331 9
  20214925.449    20214927.004    23443728.245 9 -60938879.672 8
  21308255.402    21308257.545    40246345.522 9 -48073334.808 7
 86  6 17  1  0  5.0800000  0  3G 6G 9G11
  20974868.198    20974871.357    39214767.673 8 -48690087.015 9
  20213554.109    20213556.820    23436521.288 9 -60944495.476 8
  21310500.752    21310503.127    40258146.113 9 -48064139.540 8
 86  6 17  1  0 11.0800000  0  3G 6G 9G11
  20976872.773    20976875.849    39225299.199 8 -48681880.640 9
  20212185.371    20212187.434    23429334.497 8 -60950095.560 9
  21312748.187    21312751.433    40269960.269 9 -48054933.697 9
 86  6 17  1  0 17.0800000  0  3G 6G 9G11
  20978880.483    20978882.612    39235851.341 9 -48673658.204 9
  20210822.572    20210824.256    23422168.043 9 -60955679.822 9
  21314999.756    21315001.788    40281788.082 9 -48045717.230 8
 86  6 17  1  0 23.0800000  0  3G 6G 9G11
  20980892.301    20980895.096    39246424.216 9 -48665419.607 8
  20209463.193    20209463.345    23415021.820 7 -60961248.299 8
  21317252.991    21317255.377    40293629.493 9 -48036490.159 8
 86  6 17  1  0 29.0800000  0  3G 6G 9G11
  20982908.247    20982910.465    39257017.865 9 -48657164.824 8
  20208107.342    20208108.569    23407895.984 8 -60966800.897 8
  21319508.774    21319511.387    40305484.565 9 -48027252.439 8
 86  6 17  1  0 35.0800000  0  3G 6G 9G11
  20984928.466    20984930.751    39267632.251 9 -48648893.875 9
  20206755.121    20206756.134    23400790.593 8 -60972337.562 8
  21321767.518    21321770.431    40317353.247 9 -48018004.121 8
 86  6 17  1  0 41.0800000  0  3G 6G 9G11
  20986952.347    20986954.674    39278267.308 9 -48640606.824 9
  20205406.564    20205407.896    23393705.538 8 -60977858.389 9
  21324028.178    21324031.088    40329235.456 9 -48008745.257 8
 86  6 17  1  0 47.0800000  0  3G 6G 9G11
  20988980.106    20988982.403    39288922.932 9 -48632303.749 9
  20204062.733    20204063.914    23386640.774 8 -60983363.392 9
  21326291.752    21326294.642    40341131.151 9 -47999475.888 8
 86  6 17  1  0 53.0800000  0  3G 6G 9G11
  20991011.456    20991013.694    39299599.116 9 -48623984.649 9
  20202721.926    20202723.259    23379596.300 8 -60988852.601 8
  21328559.061    21328561.132    40353040.283 9 -47990196.043 9
 86  6 17  1  0 59.0800000  0  3G 6G 9G11
  20993047.132    20993049.131    39310295.951 9 -48615649.459 9
  20201384.852    20201386.636    23372572.256 8 -60994325.866 8
  21330827.940    21330829.299    40364962.921 9 -47980905.673 8
 86  6 17  1  1  5.0800000  0  3G 6G 9G11
  20995086.727    20995088.609    39321013.541 9 -48607298.092 9
  20200051.291    20200053.359    23365568.664 8 -60999783.211 8
  21333099.064    21333101.084    40376899.059 9 -47971604.795 9
 86  6 17  1  1 11.0800000  0  3G 6G 9G11
  20997129.467    20997132.908    39331751.815 9 -48598930.612 9
  20198724.341    20198724.679    23358585.683 8 -61005224.488 8
  21335374.185    21335375.267    40388848.733 9 -47962293.347 9
 86  6 17  1  1 17.0800000  0  3G 6G 9G11
  20999176.703    20999179.147    39342510.786 9 -48590547.007 8
  20197399.476    20197400.194    23351623.130 8 -61010649.855 8
  21337649.653    21337652.202    40400811.898 9 -47952971.403 8
 86  6 17  1  1 23.0800000  0  3G 6G 9G11
  21001229.207    21001231.431    39353290.385 9 -48582147.334 9
  20196077.341    20196080.552    23344680.975 9 -61016059.327 8
  21339929.084    21339931.050    40412788.438 9 -47943639.040 9
 86  6 17  1  1 29.0800000  0  3G 6G 9G11
  21003283.101    21003286.764    39364090.536 9 -48573731.643 8
  20194760.063    20194762.109    23337759.302 9 -61021452.841 8
  21342211.209    21342213.274    40424778.259 9 -47934296.315 9
 86  6 17  1  1 35.0800000  0  3G 6G 9G11
  21005342.640    21005343.849    39374911.231 9 -48565299.925 8
  20193446.738    20193449.177    23330858.075 8 -61026830.410 9
  21344494.913    21344496.575    40436781.380 9 -47924943.232 9
 86  6 17  1  1 41.0800000  0  3G 6G 9G11
  21007406.552    21007407.725    39385752.515 8 -48556852.174 8
  20192137.725    20192139.516    23323977.408 8 -61032191.970 7
  21346781.133    21346783.825    40448797.829 9 -47915579.780 8
 86  6 17  1  1 47.0800000  0  3G 6G 9G11
  21009473.564    21009475.533    39396614.518 9 -48548388.288 8
  20190830.500    20190834.513    23317117.337 7 -61037537.478 9
  21349070.377    21349073.611    40460827.649 9 -47906205.894 8
 86  6 17  1  1 53.0800000  0  3G 6G 9G11
  21011543.892    21011545.849    39407497.256 9 -48539908.236 8
  20189530.279    20189532.952    23310277.928 8 -61042866.889 8
  21351362.278    21351364.627    40472870.838 9 -47896821.590 9
 86  6 17  1  1 59.0800000  0  3G 6G 9G11
  21013618.879    21013619.979    39418400.645 9 -48531412.102 8
  20188231.176    20188235.620    23303459.181 9 -61048180.196 8
  21353655.721    21353659.873    40484927.302 9 -47887426.946 9
 86  6 17  1  2  5.0800000  0  3G 6G 9G11
  21015697.489    21015698.674    39429324.627 9 -48522899.918 9
  20186938.680    20186941.810    23296661.001 8 -61053477.469 7
  21355954.418    21355956.040    40496996.995 9 -47878021.999 9
 86  6 17  1  2 11.0800000  0  3G 6G 9G11
  21017780.460    21017782.517    39440269.102 9 -48514371.765 9
  20185649.048    20185653.013    23289883.232 8 -61058758.860 9
  21358253.270    21358255.619    40509079.840 9 -47868606.792 9
 86  6 17  1  2 17.0800000  0  3G 6G 9G11
  21019866.608    21019868.993    39451234.035 9 -48505827.664 9
  20184363.453    20184365.011    23283126.133 8 -61064024.119 9
  21360554.889    21360557.018    40521175.874 9 -47859181.310 9
 86  6 17  1  2 23.0800000  0  3G 6G 9G11
  21021957.477    21021959.452    39462219.593 9 -48497267.497 8
  20183081.266    20183083.823    23276389.725 9 -61069273.281 9
  21362858.157    21362861.639    40533285.105 9 -47849745.550 9
 86  6 17  1  2 29.0800000  0  3G 6G 9G11
  21024050.653    21024053.300    39473225.856 9 -48488691.185 8
  20181803.342    20181806.328    23269673.996 8 -61074506.314 8
  21365165.466    21365168.613    40545407.590 9 -47840299.447 9
 86  6 17  1  2 35.0800000  0  3G 6G 9G11
  21026149.983    21026151.809    39484252.782 9 -48480098.784 8
  20180529.422    20180533.496    23262979.150 8 -61079723.081 8
  21367474.857    21367477.104    40557543.245 9 -47830843.101 9
 86  6 17  1  2 41.0800000  0  3G 6G 9G11
  21028251.862    21028253.713    39495300.285 9 -48471490.353 9
  20179258.567    20179261.454    23256304.975 7 -61084923.729 8
  21369786.350    21369789.709    40569692.044 9 -47821376.506 9
 86  6 17  1  2 47.0800000  0  3G 6G 9G11
  21030358.414    21030360.251    39506368.347 9 -48462865.883 9
  20177993.459    20177996.161    23249651.566 8 -61090108.209 8
  21372100.547    21372103.683    40581853.934 9 -47811899.702 9
 86  6 17  1  2 53.0800000  0  3G 6G 9G11
  21032468.141    21032470.571    39517456.849 9 -48454225.512 9
  20176731.301    20176734.259    23243018.775 8 -61095276.611 9
  21374417.523    21374420.581    40594028.797 9 -47802412.811 9
 86  6 17  1  2 59.0800000  0  3G 6G 9G11
  21034581.773    21034584.966    39528565.887 9 -48445569.120 8
  20175473.462    20175475.777    23236406.646 8 -61100428.927 8
  21376736.668    21376739.272    40606216.710 9 -47792915.740 9
 86  6 17  1  3  5.0800000  0  3G 6G 9G11
  21036699.800    21036701.916    39539695.518 9 -48436896.692 8
  20174219.293    20174221.807    23229815.355 8 -61105564.993 8
  21379057.645    21379061.854    40618417.717 9 -47783408.461 9
 86  6 17  1  3 11.0800000  0  3G 6G 9G11
  21038821.836    21038823.665    39550845.818 8 -48428208.149 9
  20172969.668    20172970.557    23223245.023 8 -61110684.727 8
  21381383.128    21381385.392    40630631.858 9 -47773890.950 9
 86  6 17  1  3 17.0800000  0  3G 6G 9G11
  21040948.525    21040950.038    39562016.713 9 -48419503.561 9
  20171723.167    20171723.934    23216695.472 8 -61115788.267 8
  21383709.028    21383711.838    40642859.064 9 -47764363.255 8
 86  6 17  1  3 23.0800000  0  3G 6G 9G11
  21043077.925    21043079.098    39573208.199 9 -48410782.926 8
  20170479.874    20170481.957    23210166.863 9 -61120875.501 8
  21386039.280    21386041.340    40655099.275 9 -47754825.434 9
 86  6 17  1  3 29.0800000  0  3G 6G 9G11
  21045211.023    21045214.098    39584420.091 9 -48402046.395 9
  20169242.235    20169243.333    23203659.039 9 -61125946.527 8
  21388370.810    21388373.149    40667352.386 9 -47745277.559 9
 86  6 17  1  3 35.0800000  0  3G 6G 9G11
  21047349.371    21047351.184    39595652.447 9 -48393293.919 8
  20168007.700    20168009.127    23197172.022 8 -61131001.335 8
  21390704.629    21390706.966    40679618.406 9 -47735719.621 9
 86  6 17  1  3 41.0800000  0  3G 6G 9G11
  21049490.493    21049492.529    39606905.349 9 -48384525.426 9
  20166776.478    20166779.349    23190705.827 7 -61136039.927 7
  21393040.701    21393044.882    40691897.317 9 -47726151.653 8
 86  6 17  1  3 47.0800000  0  3G 6G 9G11
  21051635.232    21051637.353    39618178.821 9 -48375740.904 9
  20165550.062    20165552.637    23184260.612 8 -61141062.181 8
  21395380.483    21395382.895    40704189.140 9 -47716573.604 8
 86  6 17  1  3 53.0800000  0  3G 6G 9G11
  21053784.434    21053786.215    39629472.846 9 -48366940.379 9
  20164327.886    20164330.102    23177836.468 9 -61146068.004 8
  21397722.211    21397724.692    40716493.956 8 -47706985.436 9
 86  6 17  1  3 59.0800000  0  3G 6G 9G11
  21055938.352    21055940.783    39640787.478 9 -48358123.786 8
  20163108.999    20163111.430    23171433.216 8 -61151057.560 9
  21400065.496    21400068.663    40728811.706 8 -47697387.186 9
 86  6 17  1  4  5.0800000  0  3G 6G 9G11
  21058094.908    21058097.083    39652122.571 9 -48349291.258 8
  20161893.825    20161897.053    23165050.971 7 -61156030.730 7
  21402411.396    21402414.276    40741142.230 9 -47687778.997 9
 86  6 17  1  4 11.0800000  0  3G 6G 9G11
  21060256.494    21060258.984    39663478.159 9 -48340442.759 9
  20160685.110    20160686.822    23158689.596 8 -61160987.640 8
  21404761.480    21404763.671    40753485.460 9 -47678160.896 8
 86  6 17  1  4 17.0800000  0  3G 6G 9G11
  21062419.943    21062422.540    39674854.208 8 -48331578.302 8
  20159477.705    20159480.103    23152349.231 8 -61165928.184 5
  21407111.446    21407114.585    40765841.506 9 -47668532.817 9
 86  6 17  1  4 23.0800000  0  3G 6G 9G11
  21064589.017    21064591.147    39686250.714 9 -48322697.917 8
  20158275.319    20158277.110    23146029.975 8 -61170852.288 8
  21409465.683    21409468.338    40778210.382 9 -47658894.723 8
 86  6 17  1  4 29.0800000  0  3G 6G 9G11
  21066763.092    21066765.168    39697667.704 9 -48313801.560 9
  20157076.977    20157078.551    23139731.616 8 -61175760.096 9
  21411822.092    21411824.933    40790592.035 9 -47649246.678 9
 86  6 17  1  4 35.0800000  0  4G 6G13G 9G11
  21068938.131    21068940.105    39709105.232 9 -48304889.213 9
                  21172952.205    -1921992.222 9
  20155882.156    20155883.489    23133454.438 7 -61180651.407 7
  21414180.647    21414183.546    40802986.451 9 -47639588.703 9
 86  6 17  1  4 41.0800000  0  4G 6G13G 9G11
  21071118.055    21071120.604    39720563.216 9 -48295960.914 8
                  21170680.586    -1933968.263 9
  20154691.686    20154694.042    23127198.255 7 -61185526.351 8
  21416541.035    21416544.678    40815393.568 9 -47629920.812 9
 86  6 17  1  4 47.0800000  0  4G 6G13G 9G11
  21073303.112    21073306.208    39732041.710 9 -48287016.649 8
                  21168432.220    -1945925.074 9
  20153504.899    20153507.767    23120963.235 8 -61190384.805 8
  21418904.513    21418908.027    40827813.341 9 -47620243.075 8
 86  6 17  1  4 53.0800000  0  4G 6G13G 9G11
  21075491.448    21075492.285    39743540.670 9 -48278056.423 9
  21166161.053    21166163.446    -1957862.044 9   2713923.954 7
  20152322.531    20152324.794    23114749.293 7 -61195226.841 8
  21421271.367    21421273.752    40840245.761 9 -47610555.478 8
 86  6 17  1  4 59.0800000  0  4G 6G13G 9G11
  21077683.849    21077683.947    39755060.110 9 -48269080.240 8
  21163893.459    21163894.518    -1969779.412 9   2704637.682 9
  20151143.450    20151147.309    23108556.490 8 -61200052.400 8
  21423639.596    21423642.280    40852690.886 9 -47600857.968 9
 86  6 17  1  5  5.0800000  0  4G 6G13G 9G11
  21079879.169    21079880.080    39766600.037 9 -48260088.080 9
  21161628.851    21161630.976    -1981677.321 9   2695367.083 8
  20149970.526    20149972.027    23102384.845 7 -61204861.469 8
  21426010.229    21426012.484    40865148.620 9 -47591150.650 9
 86  6 17  1  5 11.0800000  0  4G 6G13G 9G11
  21082079.007    21082080.376    39778160.448 9 -48251079.992 8
  21159368.149    21159370.989    -1993555.679 9   2686111.230 8
  20148798.910    20148802.426    23096234.445 8 -61209653.986 8
  21428383.666    21428385.434    40877618.940 9 -47581433.514 9
 86  6 17  1  5 17.0800000  0  4G 6G13G 9G11
  21084283.206    21084284.803    39789741.276 9 -48242055.968 8
  21157110.988    21157113.206    -2005414.529 9   2676870.566 8
  20147633.001    20147635.142    23090105.111 9 -61214430.085 8
  21430758.763    21430761.847    40890101.830 9 -47571706.591 9
 86  6 17  1  5 23.0800000  0  4G 6G13G 9G11
  21086490.364    21086492.093    39801342.528 9 -48233016.051 8
  21154858.364    21154861.040    -2017253.850 9   2667645.121 8
  20146470.759    20146472.685    23083997.108 8 -61219189.555 8
  21433136.235    21433139.720    40902597.338 9 -47561969.843 9
 86  6 17  1  5 29.0800000  0  4G 6G13G 9G11
  21088701.910    21088704.367    39812964.169 9 -48223960.228 8
  21152608.572    21152611.312    -2029073.590 9   2658434.932 8
  20145312.369    20145314.095    23077910.250 8 -61223932.571 8
  21435516.112    21435519.267    40915105.414 9 -47552223.289 9
 86  6 17  1  5 35.0800000  0  4G 6G13G 9G11
  21090917.649    21090919.211    39824606.301 9 -48214888.455 8
  21150363.239    21150366.666    -2040873.743 9   2649240.023 8
  20144157.681    20144159.684    23071844.618 8 -61228659.028 8
  21437900.023    21437902.063    40927626.011 9 -47542466.979 9
 86  6 17  1  5 41.0800000  0  4G 6G13G 9G11
  21093136.815    21093137.880    39836268.877 9 -48205800.732 8
  21148122.362    21148124.995    -2052654.320 9   2640060.358 8
  20143007.698    20143010.710    23065800.269 8 -61233368.932 8
  21440284.593    21440286.676    40940159.144 9 -47532700.900 9
 86  6 17  1  5 47.0800000  0  4G 6G13G 9G11
  21095359.662    21095360.938    39847951.874 9 -48196697.107 9
  21145883.267    21145886.285    -2064415.393 9   2630895.890 9
  20141861.281    20141863.555    23059777.152 8 -61238062.253 8
  21442671.709    21442674.265    40952704.747 9 -47522925.105 9
 86  6 17  1  5 53.0800000  0  4G 6G13G 9G11
  21097587.407    21097588.897    39859655.250 9 -48187577.614 8
  21143649.373    21143651.168    -2076156.891 9   2621746.676 8
  20140720.586    20140720.956    23053775.332 7 -61242738.994 8
  21445061.688    21445064.544    40965262.831 9 -47513139.592 8
 86  6 17  1  5 59.0800000  0  4G 6G13G 9G11
  21099818.114    21099819.196    39871379.032 9 -48178442.201 9
  21141418.913    21141421.432    -2087878.860 9   2612612.687 8
  20139582.647    20139584.312    23047794.709 8 -61247399.220 8
  21447453.728    21447455.724    40977833.400 9 -47503344.351 9
 86  6 17  1  6  5.0800000  0  4G 6G13G 9G11
  21102052.032    21102054.159    39883123.200 9 -48169290.900 8
  21139192.324    21139194.743    -2099581.265 8   2603493.935 8
  20138447.764    20138448.985    23041835.550 8 -61252042.726 8
  21449847.655    21449850.869    40990416.364 9 -47493539.438 9
 86  6 17  1  6 11.0800000  0  4G 6G13G 9G11
  21104291.200    21104294.056    39894887.775 9 -48160123.712 9
  21136968.712    21136971.280    -2111264.036 8   2594390.480 8
  20137318.429    20137320.685    23035897.683 9 -61256669.628 9
  21452245.018    21452247.529    41003011.766 9 -47483724.844 9
 86  6 17  1  6 17.0800000  0  4G 6G13G 9G11
  21106533.289    21106536.561    39906672.762 9 -48150940.600 9
  21134749.120    21134752.396    -2122927.251 9   2585302.273 7
  20136193.078    20136193.471    23029981.190 7 -61261279.874 9
  21454643.552    21454646.208    41015619.585 9 -47473900.571 9
 86  6 17  1  6 23.0800000  0  4G 6G13G 9G11
  21108779.389    21108782.338    39918478.128 9 -48141741.623 8
  21132533.600    21132536.196    -2134570.898 9   2576229.307 8
  20135070.655    20135073.284    23024086.086 9 -61265873.464 8
  21457045.666    21457048.450    41028239.771 9 -47464066.666 9
 86  6 17  1  6 29.0800000  0  4G 6G13G 9G11
  21111029.749    21111033.586    39930303.868 9 -48132526.770 9
  21130321.256    21130325.069    -2146195.043 8   2567171.545 9
  20133951.848    20133953.531    23018212.405 8 -61270450.367 8
  21459449.037    21459452.150    41040872.296 9 -47454223.148 9
 86  6 17  1  6 35.0800000  0  4G 6G13G 9G11
  21113284.542    21113287.019    39942149.994 9 -48123296.039 8
  21128113.419    21128116.702    -2157799.644 9   2558128.995 7
  20132840.095    20132840.523    23012360.148 8 -61275010.560 9
  21461854.813    21461857.926    41053517.170 9 -47444369.998 9
 86  6 17  1  6 41.0800000  0  4G 6G13G 9G11
  21115542.707    21115545.282    39954016.515 8 -48114049.386 9
  21125908.809    21125911.814    -2169384.710 9   2549101.688 9
  20131730.271    20131731.479    23006529.272 8 -61279554.080 8
  21464264.195    21464266.464    41066174.365 9 -47434507.249 8
 86  6 17  1  6 47.0800000  0  4G 6G13G 9G11
  21117804.415    21117806.538    39965903.382 8 -48104786.902 9
  21123707.897    21123711.690    -2180950.163 9   2540089.659 8
  20130622.532    20130626.183    23000719.820 8 -61284080.938 7
  21466674.722    21466677.807    41078843.811 9 -47424634.952 9
 86  6 17  1  6 53.0800000  0  4G 6G13G 9G11
  21120070.758    21120072.745    39977810.588 9 -48095508.569 7
  21121511.058    21121514.607    -2192495.988 9   2531092.922 8
  20129522.278    20129524.143    22994931.845 8 -61288591.057 9
  21469087.996    21469090.894    41091525.591 9 -47414753.051 9
 86  6 17  1  6 59.0800000  0  4G 6G13G 9G11
  21122340.662    21122342.144    39989738.107 9 -48086214.399 9
  21119317.265    21119319.791    -2204022.160 9   2522111.493 8
  20128424.855    20128426.885    22989165.300 8 -61293084.461 8
  21471503.101    21471506.859    41104219.610 9 -47404861.611 8
 86  6 17  1  7  5.0800000  0  4G 6G13G 9G11
  21124614.249    21124616.694    40001685.976 9 -48076904.382 8
  21117127.129    21117130.950    -2215528.676 9   2513145.377 7
  20127330.717    20127333.367    22983420.276 8 -61297561.105 8
  21473921.298    21473924.440    41116925.878 9 -47394960.630 9
 86  6 17  1  7 11.0800000  0  4G 6G13G 9G11
  21126891.496    21126893.827    40013654.210 9 -48067578.480 8
  21114942.187    21114944.098    -2227015.515 9   2504194.610 8
  20126241.688    20126245.207    22977696.780 8 -61302020.982 8
  21476341.726    21476344.482    41129644.345 9 -47385050.139 9
 86  6 17  1  7 17.0800000  0  4G 6G13G 9G11
  21129172.610    21129175.653    40025642.832 9 -48058236.714 8
  21112758.983    21112761.803    -2238482.784 9   2495259.075 8
  20125157.330    20125159.578    22971994.794 8 -61306464.091 8
  21478765.074    21478766.499    41142374.944 8 -47375130.187 9
 86  6 17  1  7 23.0800000  0  4G 6G13G 9G11
  21131459.120    21131460.223    40037651.751 9 -48048879.120 9
  21110581.891    21110584.301    -2249930.427 9   2486338.837 8
  20124075.597    20124078.956    22966314.315 8 -61310890.432 7
  21481189.623    21481191.935    41155117.736 9 -47365200.751 9
 86  6 17  1  7 29.0800000  0  4G 6G13G 9G11
  21133747.514    21133749.719    40049680.976 9 -48039505.699 9
  21108407.301    21108410.450    -2261358.423 9   2477433.921 9
  20122998.430    20123001.896    22960655.502 8 -61315299.875 8
  21483617.492    21483619.132    41167872.690 9 -47355261.824 9
 86  6 17  1  7 35.0800000  0  4G 6G13G 9G11
  21136040.229    21136042.070    40061730.516 9 -48030116.448 8
  21106235.759    21106237.655    -2272766.766 9   2468544.310 8
  20121926.290    20121929.139    22955018.256 6 -61319692.555 8
  21486045.991    21486048.419    41180639.771 9 -47345313.450 9
 86  6 17  1  7 41.0800000  0  4G 6G13G 9G11
  21138337.244    21138339.876    40073800.312 9 -48020711.417 7
  21104068.139    21104071.115    -2284155.463 9   2459670.005 8
  20120856.828    20120860.873    22949402.465 7 -61324068.485 8
  21488477.982    21488480.122    41193418.988 9 -47335355.630 9
 86  6 17  1  7 47.0800000  0  4G 6G13G 9G11
  21140637.852    21140639.610    40085890.452 9 -48011290.542 9
  21101905.011    21101908.631    -2295524.504 9   2450811.009 7
  20119793.433    20119795.492    22943808.386 7 -61328427.514 8
  21490912.376    21490914.617    41206210.275 9 -47325388.376 9
 86  6 17  1  7 53.0800000  0  4G 6G13G 9G11
  21142942.694    21142944.868    40098000.871 9 -48001853.848 8
  21099745.733    21099749.525    -2306873.931 9   2441967.314 8
  20118733.358    20118735.421    22938235.932 8 -61332769.678 8
  21493348.888    21493350.671    41219013.614 9 -47315411.766 9
 86  6 17  1  7 59.0800000  0  4G 6G13G 9G11
  21145250.556    21145253.659    40110131.615 9 -47992401.345 8
  21097589.080    21097592.170    -2318203.678 9   2433138.948 8
  20117676.413    20117679.514    22932685.179 8 -61337094.949 8
  21495787.375    21495789.430    41231828.950 9 -47305425.789 9
 86  6 17  1  8  5.0800000  0  4G 6G13G 9G11
  21147562.693    21147565.907    40122282.594 9 -47982933.062 8
  21095436.177    21095440.906    -2329513.753 9   2424325.899 8
  20116624.358    20116627.108    22927155.999 8 -61341403.381 8
  21498228.924    21498230.865    41244656.315 9 -47295430.437 9
 86  6 17  1  8 11.0800000  0  4G 6G13G 9G11
  21149879.161    21149882.325    40134453.816 9 -47973448.989 8
  21093288.588    21093291.200    -2340804.234 9   2415528.135 7
  20115576.500    20115579.276    22921648.524 8 -61345694.923 8
  21500670.931    21500673.328    41257495.647 9 -47285425.758 9
 86  6 17  1  8 17.0800000  0  4G 6G13G 9G11
  21152199.046    21152201.545    40146645.315 9 -47963949.127 8
  21091143.684    21091146.109    -2352075.051 9   2406745.690 8
  20114532.549    20114536.003    22916162.826 8 -61349969.492 8
  21503118.031    21503119.456    41270346.960 9 -47275411.754 9
 86  6 17  1  8 23.0800000  0  4G 6G13G 9G11
  21154524.197    21154525.888    40158857.057 9 -47954433.496 9
  21089002.212    21089005.002    -2363326.184 9   2397978.576 8
  20113492.714    20113495.907    22910698.809 8 -61354227.160 9
  21505565.591    21505567.215    41283210.225 9 -47265388.435 9
 86  6 17  1  8 29.0800000  0  4G 6G13G 9G11
  21156850.986    21156854.065    40171089.100 9 -47944902.036 8
  21086865.006    21086867.639    -2374557.717 9   2389226.736 8
  20112457.522    20112459.206    22905256.429 8 -61358467.975 8
  21508014.809    21508017.092    41296085.401 9 -47255355.834 9
 86  6 17  1  8 35.0800000  0  4G 6G13G 9G11
  21159182.737    21159184.632    40183341.432 9 -47935354.770 9
  21084732.765    21084734.454    -2385769.519 9   2380490.280 8
  20111426.789    20111428.884    22899835.867 7 -61362691.801 8
  21510468.034    21510470.174    41308972.518 9 -47245313.927 9
 86  6 17  1  8 41.0800000  0  4G 6G13G 9G11
  21161516.734    21161519.817    40195613.986 9 -47925791.752 8
  21082601.540    21082605.066    -2396961.633 9   2371769.158 8
  20110399.148    20110401.470    22894437.107 8 -61366898.618 8
  21512922.347    21512924.616    41321871.499 9 -47235262.776 9
 86  6 17  1  8 47.0800000  0  4G 6G13G 9G11
  21163857.693    21163859.782    40207906.715 9 -47916213.005 7
  21080476.174    21080479.595    -2408134.011 9   2363063.413 8
  20109376.779    20109378.527    22889060.151 7 -61371088.452 8
  21515377.804    21515381.404    41334782.367 9 -47225202.353 9
 86  6 17  1  8 53.0800000  0  4G 6G13G 9G11
  21166200.359    21166202.826    40220219.747 9 -47906618.446 9
  21078354.886    21078357.305    -2419286.693 9   2354373.020 8
  20108357.989    20108358.206    22883704.858 7 -61375261.395 8
  21517837.870    21517840.296    41347705.193 9 -47215132.627 9
 86  6 17  1  8 59.0800000  0  4G 6G13G 9G11
  21168547.328    21168548.446    40232552.983 9 -47897008.148 8
  21076235.509    21076237.584    -2430419.735 9   2345697.927 8
  20107342.727    20107342.728    22878371.514 8 -61379417.258 8
  21520299.680    21520301.262    41360639.850 9 -47205053.669 9
 86  6 17  1  9  5.0800000  0  4G 6G13G 9G11
  21170897.572    21170899.550    40244906.420 9 -47887382.090 9
  21074119.644    21074123.108    -2441533.073 8   2337038.197 8
  20106331.783    20106332.308    22873059.918 9 -61383556.147 8
  21522762.636    21522765.219    41373586.311 9 -47194965.531 9
 86  6 17  1  9 11.0800000  0  4G 6G13G 9G11
  21173252.566    21173255.033    40257280.044 9 -47877740.303 8
  21072010.384    21072012.931    -2452626.651 9   2328393.846 8
  20105325.100    20105324.983    22867770.195 8 -61387678.022 8
  21525228.081    21525230.522    41386544.542 9 -47184868.201 9
 86  6 17  1  9 17.0800000  0  4G 6G13G 9G11
  21175611.060    21175613.520    40269673.918 9 -47868082.752 8
  21069902.633    21069904.980    -2463700.599 9   2319764.813 8
  20104322.085    20104323.264    22862502.364 8 -61391782.818 7
  21527696.388    21527699.044    41399514.587 9 -47174761.675 8
 86  6 17  1  9 23.0800000  0  4G 6G13G 9G11
  21177972.599    21177975.375    40282087.947 9 -47858409.493 8
  21067799.046    21067801.057    -2474754.914 9   2311151.070 8
  20103324.903    20103325.667    22857256.395 9 -61395870.587 8
  21530165.983    21530168.753    41412496.372 9 -47164645.999 8
 86  6 17  1  9 29.0800000  0  4G 6G13G 9G11
  21180339.419    21180342.365    40294522.211 9 -47848720.467 9
  21065698.922    21065701.999    -2485789.569 9   2302552.652 9
  20102330.350    20102330.320    22852032.384 8 -61399941.252 8
  21532639.986    21532641.825    41425489.873 9 -47154521.204 9
 86  6 17  1  9 35.0800000  0  4G 6G13G 9G11
  21182709.855    21182711.585    40306976.615 9 -47839015.737 9
  21063602.554    21063605.479    -2496804.462 9   2293969.620 8
  20101339.324    20101341.469    22846830.256 7 -61403994.837 8
  21535114.330    21535117.874    41438495.051 9 -47144387.293 8
 86  6 17  1  9 41.0800000  0  4G 6G13G 9G11
  21185082.970    21185085.384    40319451.169 8 -47829295.315 9
  21061510.836    21061513.712    -2507799.628 9   2285401.969 8
  20100354.548    20100355.122    22841650.032 8 -61408031.394 7
  21537590.622    21537593.993    41451511.921 9 -47134244.276 9
 86  6 17  1  9 47.0800000  0  4G 6G13G 9G11
  21187461.376    21187463.199    40331945.902 9 -47819559.169 8
  21059421.916    21059425.408    -2518775.030 9   2276849.716 9
  20099371.542    20099373.340    22836491.715 8 -61412050.860 8
  21540070.004    21540072.673    41464540.447 9 -47124092.186 9
 86  6 17  1  9 53.0800000  0  4G 6G13G 9G11
  21189842.286    21189845.215    40344460.781 9 -47809807.319 8
  21057337.009    21057340.422    -2529730.693 9   2268312.851 8
  20098393.784    20098397.017    22831355.398 8 -61416053.192 7
  21542551.162    21542554.517    41477580.675 9 -47113930.968 9
 86  6 17  1  9 59.0800000  0  4G 6G13G 9G11
  21192228.373    21192231.638    40356995.843 9 -47800039.744 9
  21055256.160    21055259.129    -2540666.621 9   2259791.355 8
  20097422.219    20097422.615    22826241.071 8 -61420038.376 7
  21545035.066    21545038.665    41490632.523 9 -47103760.701 9
 86  6 17  1 10  5.0800000  0  4G 6G13G 9G11
  21194616.509    21194619.216    40369551.004 9 -47790256.514 9
  21053179.281    21053181.878    -2551582.780 9   2251285.264 8
  20096452.482    20096453.310    22821148.749 8 -61424006.421 8
  21547520.515    21547523.672    41503695.958 9 -47093581.403 8
 86  6 17  1 10 11.0800000  0  4G 6G13G 9G11
  21197011.096    21197012.321    40382126.343 9 -47780457.549 8
  21051103.947    21051108.153    -2562479.274 9   2242794.503 9
  20095488.465    20095489.691    22816078.491 8 -61427957.267 7
  21550009.513    21550011.653    41516770.969 9 -47083393.089 9
 86  6 17  1 10 17.0800000  0  4G 6G13G 9G11
  21199406.683    21199409.945    40394721.798 9 -47770642.920 8
  21049033.993    21049038.121    -2573355.948 8   2234319.164 8
  20094526.353    20094529.111    22811030.136 8 -61431891.044 7
  21552500.257    21552502.611    41529857.484 9 -47073195.799 9
 86  6 17  1 10 23.0800000  0  4G 6G13G 9G11
  21201807.819    21201809.656    40407337.332 9 -47760812.632 8
  21046968.562    21046971.460    -2584212.890 8   2225859.221 9
  20093570.854    20093571.446    22806003.890 8 -61435807.623 8
  21554991.946    21554994.214    41542955.552 9 -47062989.503 9
 86  6 17  1 10 29.0800000  0  4G 6G13G 9G11
  21204213.141    21204215.454    40419973.064 9 -47750966.619 9
  21044906.830    21044910.264    -2595050.080 9   2217414.661 8
  20092618.198    20092620.182    22800999.654 8 -61439707.021 8
  21557486.324    21557489.666    41556065.202 9 -47052774.198 9
 86  6 17  1 10 35.0800000  0  4G 6G13G 9G11
  21206619.478    21206622.636    40432628.863 9 -47741104.977 9
  21042848.209    21042851.436    -2605867.589 9   2208985.451 8
  20091671.484    20091671.149    22796017.484 8 -61443589.234 9
  21559984.938    21559986.577    41569186.329 9 -47042549.941 9
 86  6 17  1 10 41.0800000  0  4G 6G13G 9G11
  21209032.402    21209034.261    40445304.760 9 -47731227.664 8
  21040794.268    21040796.994    -2616665.353 9   2200571.613 7
  20090727.259    20090728.199    22791057.439 7 -61447454.198 8
  21562482.551    21562486.192    41582318.874 9 -47032316.790 9
 86  6 17  1 10 47.0800000  0  4G 6G13G 9G11
  21211447.419    21211449.759    40458000.723 9 -47721334.706 8
  21038742.967    21038744.862    -2627443.364 8   2192173.161 9
  20089788.792    20089787.732    22786119.437 9 -61451301.988 8
  21564984.198    21564986.939    41595462.931 9 -47022074.676 9
 86  6 17  1 10 53.0800000  0  4G 6G13G 9G11
  21213868.251    21213869.641    40470716.763 9 -47711426.110 9
  21036695.450    21036697.496    -2638201.642 9   2183790.098 8
  20088852.510    20088853.306    22781203.558 8 -61455132.544 8
  21567487.648    21567489.646    41608618.401 9 -47011823.659 9
 86  6 17  1 10 59.0800000  0  4G 6G13G 9G11
  21216292.157    21216294.108    40483452.948 9 -47701501.816 9
  21034651.103    21034654.329    -2648940.151 9   2175422.431 7
  20087920.315    20087922.364    22776309.871 9 -61458945.806 8
  21569992.329    21569996.358    41621785.267 9 -47001563.768 9
 86  6 17  1 11  5.0800000  0  4G 6G13G 9G11
  21218719.192    21218721.724    40496209.175 9 -47691561.911 8
  21032612.100    21032614.218    -2659658.902 9   2167070.168 8
  20086993.978    20086994.828    22771438.367 9 -61462741.788 8
  21572500.616    21572504.344    41634963.613 9 -46991294.932 9
 86  6 17  1 11 11.0800000  0  4G 6G13G 9G11
  21221149.476    21221152.837    40508985.427 9 -47681606.396 9
  21030576.467    21030579.709    -2670357.890 9   2158733.291 8
  20086072.817    20086071.824    22766589.035 9 -61466520.474 7
  21575010.306    21575012.975    41648153.359 9 -46981017.206 8
 86  6 17  1 11 17.0800000  0  4G 6G13G 9G11
  21223585.534    21223587.575    40521781.750 9 -47671635.241 8
  21028543.740    21028547.117    -2681037.126 9   2150411.801 8
  20085153.913    20085152.452    22761761.773 9 -61470281.977 8
  21577522.856    21577525.784    41661354.475 9 -46970730.620 9
 86  6 17  1 11 23.0800000  0  4G 6G13G 9G11
  21226025.137    21226026.632    40534598.109 9 -47661648.474 8
  21026515.955    21026518.524    -2691696.551 9   2142105.779 8
  20084238.543    20084239.321    22756956.785 8 -61474026.121 9
  21580037.124    21580039.537    41674566.898 9 -46960435.242 9
 86  6 17  1 11 29.0800000  0  4G 6G13G 9G11
  21228466.937    21228469.003    40547434.491 9 -47651646.111 9
  21024490.418    21024494.331    -2702336.139 9   2133815.180 8
  20083329.512    20083329.471    22752174.028 8 -61477752.946 8
  21582553.253    21582556.938    41687790.633 9 -46950131.030 8
 86  6 17  1 11 35.0800000  0  4G 6G13G 9G11
  21230913.322    21230914.415    40560290.944 9 -47641628.094 8
  21022470.117    21022473.509    -2712955.918 9   2125540.038 8
  20082422.574    20082423.836    22747413.512 8 -61481462.433 8
  21585071.442    21585075.844    41701025.713 9 -46939817.989 9
 86  6 17  1 11 41.0800000  0  4G 6G13G 9G11
  21233364.526    21233365.630    40573167.447 8 -47631594.460 8
  21020452.750    21020457.536    -2723555.953 9   2117280.283 9
  20081520.276    20081521.645    22742675.273 8 -61485154.561 8
  21587592.608    21587595.863    41714272.055 9 -46929496.167 9
 86  6 17  1 11 47.0800000  0  4G 6G13G 9G11
  21235817.652    21235820.404    40586063.940 9 -47621545.264 8
  21018439.347    21018443.246    -2734136.212 9   2109035.929 8
  20080621.906    20080624.226    22737959.400 8 -61488829.283 8
  21590115.662    21590117.915    41727529.631 8 -46919165.584 9
 86  6 17  1 11 53.0800000  0  4G 6G13G 9G11
  21238276.189    21238278.292    40598980.424 9 -47611480.479 8
  21016429.879    21016433.978    -2744696.679 8   2100806.997 9
  20079729.180    20079730.088    22733265.641 8 -61492486.747 8
  21592640.890    21592643.718    41740798.512 9 -46908826.211 9
 86  6 17  1 11 59.0800000  0  4G 6G13G 9G11
  21240736.487    21240739.818    40611916.935 9 -47601400.084 8
  21014424.159    21014428.195    -2755237.435 9   2092593.434 8
  20078839.259    20078842.335    22728594.227 8 -61496126.808 8
  21595167.836    21595170.850    41754078.611 9 -46898478.082 8
 86  6 17  1 12  5.0800000  0  4G 6G13G 9G11
  21243202.443    21243206.631    40624873.478 9 -47591304.085 8
  21012421.630    21012425.608    -2765758.486 9   2084395.224 8
  20077955.195    20077956.947    22723945.141 7 -61499749.481 8
  21597697.473    21597700.014    41767369.871 9 -46888121.259 9
 86  6 17  1 12 11.0800000  0  4G 6G13G 9G11
  21245671.151    21245675.120    40637849.930 8 -47581192.581 9
  21010423.037    21010427.852    -2776259.724 9   2076212.443 9
  20077074.740    20077076.703    22719318.480 8 -61503354.664 8
  21600227.395    21600231.668    41780672.347 9 -46877755.694 9
 86  6 17  1 12 17.0800000  0  4G 6G13G 9G11
  21248144.230    21248148.607    40650846.349 9 -47571065.516 9
  21008428.551    21008432.915    -2786741.146 9   2068045.118 8
  20076198.516    20076200.232    22714714.108 8 -61506942.501 9
  21602762.069    21602765.067    41793986.045 9 -46867381.383 9
 86  6 17  1 12 23.0800000  0  4G 6G13G 9G11
  21250621.051    21250624.971    40663862.817 9 -47560922.814 9
  21006439.366    21006441.841    -2797202.757 9   2059893.221 8
  20075326.425    20075329.514    22710132.037 8 -61510512.943 9
  21605297.572    21605300.470    41807310.897 9 -46856998.393 9
 86  6 17  1 12 29.0800000  0  4G 6G13G 9G11
  21253101.833    21253104.972    40676899.215 9 -47550764.596 8
  21004451.504    21004454.767    -2807644.554 8   2051756.768 8
  20074459.363    20074460.095    22705572.351 7 -61514065.937 8
  21607835.736    21607838.534    41820646.871 9 -46846606.723 8
 86  6 17  1 12 35.0800000  0  4G 6G13G 9G11
  21255587.403    21255589.162    40689955.528 9 -47540590.858 8
  21002468.636    21002472.106    -2818066.522 9   2043635.767 8
  20073596.999    20073597.924    22701035.103 8 -61517601.457 8
  21610375.160    21610377.987    41833993.902 9 -46836206.442 9
 86  6 17  1 12 41.0800000  0  4G 6G13G 9G11
  21258075.346    21258079.101    40703031.767 9 -47530401.583 8
  21000489.346    21000492.881    -2828468.729 9   2035530.158 8
  20072736.716    20072737.873    22696520.262 8 -61521119.513 8
  21612917.160    21612920.859    41847351.982 9 -46825797.548 9
 86  6 17  1 12 47.0800000  0  4G 6G13G 9G11
  21260568.140    21260571.122    40716128.016 9 -47520196.731 8
  20998513.461    20998516.280    -2838851.033 9   2027440.060 8
  20071881.949    20071883.414    22692027.772 8 -61524620.151 7
  21615461.219    21615463.603    41860721.133 9 -46815380.030 9
 86  6 17  1 12 53.0800000  0  4G 6G13G 9G11
  21263062.873    21263066.527    40729244.165 9 -47509976.370 9
  20996541.562    20996544.939    -2849213.528 9   2019365.389 8
  20071031.417    20071034.339    22687557.795 8 -61528103.263 8
  21618007.683    21618009.709    41874101.304 9 -46804953.928 8
 86  6 17  1 12 59.0800000  0  4G 6G13G 9G11
  21265563.268    21265567.199    40742380.181 9 -47499740.515 9
  20994573.168    20994575.865    -2859556.221 8   2011306.158 9
  20070184.507    20070187.189    22683110.229 8 -61531568.893 7
  21620555.721    21620558.992    41887492.479 9 -46794519.247 9
 86  6 17  1 13  5.0800000  0  4G 6G13G 9G11
  21268066.511    21268069.300    40755536.121 9 -47489489.137 8
  20992608.580    20992611.328    -2869879.109 9   2003262.373 8
  20069343.773    20069345.022    22678685.215 8 -61535016.948 7
  21623106.020    21623109.262    41900894.612 9 -46784076.032 9
 86  6 17  1 13 11.0800000  0  4G 6G13G 9G11
  21270574.751    21270576.667    40768712.003 9 -47479222.220 8
  20990648.193    20990650.725    -2880182.231 8   1995233.951 9
  20068505.227    20068507.161    22674282.615 8 -61538447.553 8
  21625658.264    21625661.621    41914307.731 9 -46773624.249 9
 86  6 17  1 13 17.0800000  0  4G 6G13G 9G11
  21273085.639    21273088.572    40781907.782 9 -47468939.806 9
  20988690.194    20988694.502    -2890465.609 8   1987220.943 7
  20067671.319    20067672.520    22669902.403 7 -61541860.687 8
  21628212.627    21628215.426    41927731.794 9 -46763163.944 8
 86  6 17  1 13 23.0800000  0  4G 6G13G 9G11
  21275600.086    21275602.292    40795123.404 9 -47458641.922 9
  20986737.848    20986741.354    -2900729.125 9   1979223.410 8
  20066842.542    20066843.456    22665544.801 8 -61545256.229 8
  21630769.279    21630772.435    41941166.746 9 -46752695.146 8
 86  6 17  1 13 29.0800000  0  4G 6G13G 9G11
  21278118.726    21278122.564    40808358.857 8 -47448328.593 9
  20984788.350    20984790.976    -2910972.840 9   1971241.288 8
  20066017.530    20066018.288    22661209.711 8 -61548634.227 8
  21633328.421    21633331.377    41954612.669 9 -46742217.812 9
 86  6 17  1 13 35.0800000  0  4G 6G13G 9G11
  21280640.246    21280643.275    40821614.288 9 -47437999.685 8
  20982843.509    20982846.069    -2921196.752 9   1963274.623 8
  20065196.812    20065198.636    22656897.163 8 -61551994.644 8
  21635889.165    21635891.993    41968069.521 8 -46731731.962 8
 86  6 17  1 13 41.0800000  0  4G 6G13G 9G11
  21283166.633    21283170.107    40834889.552 9 -47427655.336 8
  20980900.614    20980904.620    -2931400.837 8   1955323.376 8
  20064380.778    20064382.051    22652607.196 9 -61555337.477 7
  21638451.999    21638453.767    41981537.229 9 -46721237.632 9
 86  6 17  1 13 47.0800000  0  4G 6G13G 9G11
  21285697.541    21285700.000    40848184.684 9 -47417295.508 9
  20978964.165    20978966.506    -2941585.062 9   1947387.623 8
  20063568.928    20063568.458    22648339.759 8 -61558662.754 7
  21641016.551    21641020.078    41995015.775 9 -46710734.876 9
 86  6 17  1 13 53.0800000  0  4G 6G13G 9G11
  21288230.578    21288234.498    40861499.619 9 -47406920.238 9
  20977029.083    20977031.852    -2951749.340 9   1939467.407 9
  20062760.774    20062762.508    22644095.063 8 -61561970.315 8
  21643583.304    21643586.403    42008505.174 9 -46700223.657 9
 86  6 17  1 13 59.0800000  0  4G 6G13G 9G11
  21290768.432    21290772.230    40874834.418 8 -47396529.495 9
  20975099.446    20975101.614    -2961893.779 9   1931562.658 9
  20061957.485    20061958.274    22639872.853 8 -61565260.351 8
  21646152.548    21646155.104    42022005.343 9 -46689704.055 9
 86  6 17  1 14  5.0800000  0  4G 6G13G 9G11
  21293310.690    21293312.620    40888189.096 9 -47386123.271 9
  20973171.074    20973174.652    -2972018.405 9   1923673.346 8
  20061157.218    20061159.681    22635673.261 8 -61568532.748 8
  21648723.367    21648725.749    42035516.258 9 -46679176.074 8
 86  6 17  1 14 11.0800000  0  4G 6G13G 9G11
  21295854.939    21295857.884    40901563.567 9 -47375701.611 8
  20971249.959    20971251.362    -2982123.203 9   1915799.481 8
  20060363.130    20060365.192    22631496.328 8 -61571787.514 8
  21651295.930    21651299.215    42049037.937 9 -46668639.698 9
 86  6 17  1 14 17.0800000  0  4G 6G13G 9G11
  21298403.671    21298405.948    40914957.852 8 -47365264.518 8
  20969329.229    20969333.750    -2992208.106 9   1907941.117 9
  20059572.568    20059572.910    22627342.036 7 -61575024.629 7
  21653871.585    21653873.939    42062570.431 9 -46658094.902 9
 86  6 17  1 14 23.0800000  0  4G 6G13G 9G11
  21300956.316    21300959.828    40928371.923 9 -47354811.999 9
  20967413.335    20967417.693    -3002273.239 9   1900098.167 8
  20058786.998    20058788.738    22623210.380 7 -61578244.096 8
  21656449.157    21656451.440    42076113.651 9 -46647541.736 8
 86  6 17  1 14 29.0800000  0  4G 6G13G 9G11
  21303513.448    21303514.980    40941805.773 9 -47344344.062 8
  20965502.021    20965507.207    -3012318.532 8   1892270.660 8
  20058003.902    20058005.804    22619101.523 8 -61581445.798 7
  21659027.702    21659030.887    42089667.588 9 -46636980.233 9
 86  6 17  1 14 35.0800000  0  4G 6G13G 9G11
  21306072.951    21306075.421    40955259.382 9 -47333860.746 9
  20963595.478    20963599.264    -3022343.975 9   1884458.637 8
  20057226.465    20057228.622    22615015.244 8 -61584629.930 8
  21661609.166    21661612.608    42103232.237 9 -46626410.376 9
 86  6 17  1 14 41.0800000  0  4G 6G13G 9G11
  21308637.641    21308639.081    40968732.784 9 -47323361.984 8
  20961690.982    20961695.038    -3032349.464 8   1876662.158 9
  20056452.436    20056455.449    22610951.681 8 -61587796.340 8
  21664193.406    21664194.817    42116807.531 9 -46615832.227 8
 86  6 17  1 14 47.0800000  0  4G 6G13G 9G11
  21311205.790    21311207.549    40982226.004 9 -47312847.799 8
  20959791.201    20959794.406    -3042335.023 9   1868881.220 8
  20055683.209    20055687.289    22606910.838 8 -61590945.045 8
  21666777.761    21666780.888    42130393.469 9 -46605245.791 9
 86  6 17  1 14 53.0800000  0  4G 6G13G 9G11
  21313776.447    21313779.513    40995739.007 9 -47302318.194 9
  20957895.355    20957898.117    -3052300.738 9   1861115.742 8
  20054921.392    20054921.450    22602892.724 8 -61594076.034 7
  21669364.348    21669367.977    42143990.000 9 -46594651.087 9
 86  6 17  1 14 59.0800000  0  4G 6G13G 9G11
  21316351.745    21316354.641    41009271.699 9 -47291773.239 8
  20956001.562    20956005.060    -3062246.649 9   1853365.683 8
  20054160.399    20054160.735    22598897.461 8 -61597189.222 8
  21671954.255    21671957.554    42157597.164 9 -46584048.104 9
 86  6 17  1 15  5.0800000  0  4G 6G13G 9G11
  21318931.567    21318933.290    41022824.130 9 -47281212.919 9
  20954113.128    20954115.675    -3072172.721 9   1845631.099 9
  20053403.197    20053406.508    22594924.872 8 -61600284.750 8
  21674544.905    21674549.364    42171214.907 9 -46573436.877 9
 86  6 17  1 15 11.0800000  0  4G 6G13G 9G11
  21321514.058    21321516.028    41036396.287 9 -47270637.209 8
  20952228.600    20952231.283    -3082078.911 9   1837911.993 8
  20052652.315    20052653.840    22590975.113 8 -61603362.491 8
  21677138.761    21677142.575    42184843.230 9 -46562817.414 9
 86  6 17  1 15 17.0800000  0  4G 6G13G 9G11
  21324099.833    21324102.235    41049988.138 9 -47260046.171 8
  20950346.669    20950350.869    -3091965.275 9   1830208.336 8
  20051905.029    20051907.774    22587048.160 8 -61606422.447 8
  21679734.048    21679737.619    42198482.071 9 -46552189.737 8
 86  6 17  1 15 23.0800000  0  4G 6G13G 9G11
  21326689.843    21326692.135    41063599.698 9 -47249439.758 8
  20948468.252    20948472.945    -3101831.769 9   1822520.171 8
  20051163.806    20051163.088    22583143.972 7 -61609464.668 8
  21682331.911    21682334.980    42212131.393 9 -46541553.916 9
 86  6 17  1 15 29.0800000  0  4G 6G13G 9G11
  21329284.203    21329287.361    41077231.023 9 -47238817.956 9
  20946594.621    20946598.442    -3111678.429 8   1814847.454 8
  20050423.876    20050424.587    22579262.612 8 -61612489.097 7
  21684930.918    21684934.446    42225791.200 9 -46530909.903 9
 86  6 17  1 15 35.0800000  0  4G 6G13G 9G11
  21331882.063    21331885.374    41090882.016 8 -47228180.834 8
  20944724.331    20944728.739    -3121505.226 9   1807190.224 8
  20049688.649    20049691.302    22575404.216 8 -61615495.650 8
  21687532.615    21687536.988    42239461.508 9 -46520257.724 9
 86  6 17  1 15 41.0800000  0  4G 6G13G 9G11
  21334483.448    21334485.458    41104552.688 9 -47217528.358 9
  20942858.691    20942862.591    -3131312.082 9   1799548.519 8
  20048959.808    20048960.982    22571568.635 8 -61618484.422 8
  21690135.630    21690139.343    42253142.275 8 -46509597.391 9
 86  6 17  1 15 47.0800000  0  4G 6G13G 9G11
  21337088.391    21337091.555    41118243.039 9 -47206860.570 8
  20940997.252    20940999.562    -3141099.110 9   1791922.273 8
  20048233.136    20048234.365    22567755.886 9 -61621455.382 8
  21692741.333    21692745.090    42266833.476 8 -46498928.928 9
 86  6 17  1 15 53.0800000  0  4G 6G13G 9G11
  21339696.462    21339700.619    41131953.064 9 -47196177.442 9
  20939138.552    20939141.507    -3150866.228 9   1784311.533 9
  20047512.744    20047512.903    22563966.030 8 -61624408.528 8
  21695348.411    21695352.081    42280535.124 9 -46488252.321 8
 86  6 17  1 15 59.0800000  0  4G 6G13G 9G11
  21342309.078    21342312.808    41145682.760 9 -47185478.986 8
  20937283.329    20937286.427    -3160613.463 9   1776716.293 8
  20046796.068    20046798.596    22560199.063 8 -61627343.824 8
  21697957.834    21697961.506    42294247.213 9 -46477567.579 9
 86  6 17  1 16  5.0800000  0  4G 6G13G 9G11
  21344926.452    21344928.933    41159432.081 9 -47174765.243 9
  20935432.342    20935435.784    -3170340.835 9   1769136.523 9
  20046083.781    20046084.274    22556455.035 8 -61630261.240 8
  21700570.122    21700573.034    42307969.682 9 -46466874.748 9
 86  6 17  1 16 11.0800000  0  4G 6G13G 9G11
  21347546.397    21347548.950    41173201.041 9 -47164036.183 9
  20933585.255    20933588.431    -3180048.360 9   1761572.223 9
  20045375.841    20045375.786    22552733.833 8 -61633160.881 8
  21703182.865    21703186.222    42321702.503 8 -46456173.853 9
 86  6 17  1 16 17.0800000  0  4G 6G13G 9G11
  21350170.685    21350173.356    41186989.629 9 -47153291.839 9
  20931741.215    20931744.685    -3189735.997 9   1754023.419 8
  20044672.058    20044674.097    22549035.620 8 -61636042.605 7
  21705798.299    21705800.955    42335445.644 9 -46445464.912 9
 86  6 17  1 16 23.0800000  0  4G 6G13G 9G11
  21352798.300    21352801.114    41200797.834 9 -47142532.202 8
  20929901.912    20929903.951    -3199403.759 8   1746490.105 9
  20043971.770    20043972.827    22545360.421 8 -61638906.407 8
  21708415.565    21708418.142    42349199.088 9 -46434747.950 8
 86  6 17  1 16 29.0800000  0  4G 6G13G 9G11
  21355429.288    21355432.091    41214625.717 9 -47131757.242 8
  20928065.127    20928069.026    -3209051.709 8   1738972.231 9
  20043276.551    20043277.851    22541708.116 7 -61641752.358 8
  21711034.648    21711037.324    42362962.813 9 -46424022.964 9
 86  6 17  1 16 35.0800000  0  4G 6G13G 9G11
  21358065.024    21358066.968    41228473.143 9 -47120967.040 8
  20926234.580    20926237.935    -3218679.775 8   1731469.843 8
  20042585.756    20042588.381    22538078.862 8 -61644580.341 8
  21713656.336    21713658.204    42376736.768 9 -46413290.008 9
 86  6 17  1 16 41.0800000  0  4G 6G13G 9G11
  21360704.035    21360706.517    41242340.215 9 -47110161.533 7
  20924404.263    20924408.348    -3228287.962 8   1723982.954 8
  20041899.263    20041901.655    22534472.548 8 -61647390.450 8
  21716279.024    21716280.957    42390521.082 9 -46402548.994 9
 86  6 17  1 16 47.0800000  0  4G 6G13G 9G11
  21363347.173    21363348.741    41256226.827 9 -47099340.804 8
  20922581.215    20922583.955    -3237876.245 9   1716511.570 8
  20041218.091    20041219.600    22530889.286 8 -61650182.610 7
  21718904.504    21718907.052    42404315.625 9 -46391799.991 9
 86  6 17  1 16 53.0800000  0  4G 6G13G 9G11
  21365992.731    21365994.855    41270133.014 9 -47088504.824 9
  20920760.227    20920762.595    -3247444.682 9   1709055.657 9
  20040540.257    20040542.084    22527329.076 8 -61652956.795 8
  21721531.385    21721533.432    42418120.379 9 -46381043.049 9
 86  6 17  1 16 59.0800000  0  4G 6G13G 9G11
  21368643.774    21368644.678    41284058.766 9 -47077653.597 8
  20918942.559    20918945.171    -3256993.302 8   1701615.171 9
  20039866.313    20039869.338    22523791.840 8 -61655713.091 8
  21724160.321    21724161.924    42431935.326 9 -46370278.166 8
 86  6 17  1 17  5.0800000  0  4G 6G13G 9G11
  21371296.720    21371298.841    41298004.086 9 -47066787.117 8
  20917129.728    20917132.582    -3266521.989 9   1694190.228 8
  20039199.609    20039200.645    22520277.738 8 -61658451.350 8
  21726791.696    21726792.834    42445760.411 9 -46359505.369 9
 86  6 17  1 17 11.0800000  0  4G 6G13G 9G11
  21373954.148    21373956.021    41311968.938 9 -47055905.417 8
  20915320.101    20915323.443    -3276030.803 9   1686780.767 9
  20038535.111    20038536.659    22516786.716 9 -61661171.639 8
  21729423.699    21729426.584    42459595.674 9 -46348724.642 9
 86  6 17  1 17 17.0800000  0  4G 6G13G 9G11
  21376615.442    21376616.219    41325953.351 9 -47045008.478 9
  20913515.111    20913518.195    -3285519.714 9   1679386.820 8
  20037874.389    20037875.343    22513318.712 8 -61663873.971 8
  21732058.766    21732060.361    42473441.090 9 -46337936.009 9
 86  6 17  1 17 23.0800000  0  4G 6G13G 9G11
  21379278.955    21379282.136    41339957.306 9 -47034096.313 9
  20911712.325    20911715.137    -3294988.738 9   1672008.359 9
  20037219.314    20037221.262    22509873.809 8 -61666558.326 8
  21734694.862    21734697.424    42487296.581 9 -46327139.521 9
 86  6 17  1 17 29.0800000  0  4G 6G13G 9G11
  21381948.572    21381950.013    41353980.779 9 -47023168.942 9
  20909916.064    20909917.674    -3304437.839 8   1664645.437 9
  20036567.969    20036570.426    22506452.090 9 -61669224.595 8
  21737332.819    21737335.818    42501162.157 9 -46316335.178 9
 86  6 17  1 17 35.0800000  0  4G 6G13G 9G11
  21384620.771    21384622.687    41368023.712 9 -47012226.400 8
  20908120.489    20908124.274    -3313867.016 9   1657298.029 8
  20035921.666    20035924.305    22503053.535 7 -61671872.818 8
  21739973.516    21739977.309    42515037.823 9 -46305522.974 8
 86  6 17  1 17 41.0800000  0  4G 6G13G 9G11
  21387295.685    21387298.753    41382086.214 9 -47001268.622 8
  20906329.665    20906332.677    -3323276.269 9   1649966.155 8
  20035279.804    20035282.081    22499678.073 8 -61674503.060 8
  21742615.214    21742618.729    42528923.537 9 -46294702.939 9
 86  6 17  1 17 47.0800000  0  4G 6G13G 9G11
  21389975.443    21389978.464    41396168.195 9 -46990295.650 8
  20904543.047    20904547.134    -3332665.648 8   1642649.765 8
  20034641.326    20034642.960    22496325.711 8 -61677115.283 8
  21745259.855    21745262.545    42542819.279 9 -46283875.093 9
 86  6 17  1 17 53.0800000  0  4G 6G13G 9G11
  21392659.046    21392661.459    41410269.621 9 -46979307.538 8
  20902760.524    20902762.891    -3342035.147 9   1635348.866 9
  20034007.741    20034008.831    22492996.510 8 -61679709.457 8
  21747906.404    21747909.882    42556725.042 9 -46273039.442 9
 86  6 17  1 17 59.0800000  0  4G 6G13G 9G11
  21395346.598    21395349.266    41424390.482 9 -46968304.283 8
  20900980.346    20900984.530    -3351384.785 8   1628063.433 9
  20033378.677    20033381.040    22489690.490 8 -61682285.591 8
  21750554.126    21750558.313    42570640.832 9 -46262195.964 9
 86  6 17  1 18  5.0800000  0  4G 6G13G 9G11
  21398037.195    21398040.403    41438530.834 9 -46957285.831 9
  20899206.005    20899208.718    -3360714.655 9   1620793.414 9
  20032753.229    20032755.202    22486407.697 8 -61684843.620 8
  21753204.404    21753208.225    42584566.666 9 -46251344.676 9
 86  6 17  1 18 11.0800000  0  4G 6G13G 9G11
  21400731.405    21400735.017    41452690.677 9 -46946252.191 9
  20897433.784    20897437.554    -3370024.727 8   1613538.815 9
  20032133.019    20032135.969    22483148.148 8 -61687383.517 8
  21755854.910    21755859.060    42598502.382 8 -46240485.675 9
 86  6 17  1 18 17.0800000  0  4G 6G13G 9G11
  21403429.711    21403432.525    41466869.961 9 -46935203.408 8
  20895666.198    20895669.697    -3379314.915 9   1606299.719 8
  20031518.843    20031518.402    22479911.876 8 -61689905.286 7
  21758510.188    21758513.194    42612448.006 9 -46229618.954 9
 86  6 17  1 18 23.0800000  0  4G 6G13G 9G11
  21406132.017    21406134.680    41481068.662 9 -46924139.498 8
  20893901.474    20893906.161    -3388585.104 8   1599076.201 9
  20030907.917    20030906.695    22476698.734 8 -61692409.024 8
  21761165.524    21761168.565    42626403.504 9 -46218744.553 9
 86  6 17  1 18 29.0800000  0  4G 6G13G 9G11
  21408838.335    21408839.990    41495286.775 9 -46913060.450 9
  20892141.243    20892144.513    -3397835.273 9   1591868.277 8
  20030299.328    20030301.123    22473508.910 8 -61694894.601 8
  21763822.619    21763826.841    42640368.880 8 -46207862.446 9
 86  6 17  1 18 35.0800000  0  4G 6G13G 9G11
  21411546.608    21411549.115    41509524.322 9 -46901966.270 9
  20890384.819    20890388.360    -3407065.586 8   1584675.833 9
  20029697.588    20029697.740    22470342.332 8 -61697362.069 8
  21766481.846    21766485.574    42654344.159 9 -46196972.622 9
 86  6 17  1 18 41.0800000  0  4G 6G13G 9G11
  21414259.756    21414262.208    41523781.240 9 -46890856.990 8
  20888632.544    20888635.871    -3416276.035 9   1577498.868 8
  20029099.686    20029100.002    22467198.896 8 -61699811.512 8
  21769142.884    21769147.643    42668329.304 9 -46186075.099 9
 86  6 17  1 18 47.0800000  0  4G 6G13G 9G11
  21416976.263    21416979.135    41538057.553 9 -46879732.600 7
  20886883.589    20886886.944    -3425466.568 8   1570337.433 9
  20028505.091    20028504.976    22464078.750 8 -61702242.781 8
  21771806.640    21771811.020    42682324.329 9 -46175169.903 8
 86  6 17  1 18 53.0800000  0  4G 6G13G 9G11
  21419696.888    21419699.308    41552353.254 9 -46868593.098 9
  20885138.382    20885141.137    -3434637.230 8   1563191.462 8
  20027915.554    20027916.407    22460982.034 8 -61704655.810 7
  21774471.491    21774475.570    42696329.179 9 -46164257.028 9
 86  6 17  1 18 59.0800000  0  4G 6G13G 9G11
  21422422.014    21422424.258    41566668.331 9 -46857438.499 9
  20883397.125    20883401.225    -3443787.968 9   1556061.028 8
  20027329.660    20027332.235    22457908.578 8 -61707050.710 7
  21777138.418    21777142.539    42710343.837 9 -46153336.522 9
 86  6 17  1 19  5.0800000  0  4G 6G13G 9G11
  21425148.608    21425151.533    41581002.749 9 -46846268.834 9
  20881659.332    20881663.774    -3452918.804 8   1548946.089 8
  20026749.437    20026751.486    22454858.514 8 -61709427.392 8
  21779807.661    21779811.138    42724368.231 9 -46142408.428 8
 86  6 17  1 19 11.0800000  0  4G 6G13G 9G11
  21427879.710    21427883.523    41595356.508 9 -46835084.094 8
  20879925.572    20879929.973    -3462029.734 9   1541846.671 8
  20026174.458    20026175.659    22451831.727 8 -61711785.919 8
  21782478.121    21782481.385    42738402.370 9 -46131472.749 9
 86  6 17  1 19 17.0800000  0  4G 6G13G 9G11
  21430614.434    21430617.792    41609729.574 9 -46823884.311 8
  20878195.706    20878198.789    -3471120.827 9   1534762.715 8
  20025602.362    20025603.609    22448828.367 8 -61714126.205 7
  21785150.670    21785154.113    42752446.262 9 -46120529.456 9
 86  6 17  1 19 23.0800000  0  4G 6G13G 9G11
  21433354.261    21433357.269    41624122.006 9 -46812669.441 9
  20876468.758    20876473.230    -3480191.991 9   1527694.279 9
  20025036.656    20025036.601    22445848.314 8 -61716448.318 7
  21787825.266    21787828.773    42766499.894 9 -46109578.575 9
 86  6 17  1 19 29.0800000  0  4G 6G13G 9G11
  21436097.544    21436099.457    41638533.746 9 -46801439.523 8
  20874746.847    20874750.589    -3489243.270 8   1520641.350 8
  20024473.256    20024474.374    22442891.661 8 -61718752.218 8
  21790501.864    21790504.248    42780563.219 9 -46098620.139 9
 86  6 17  1 19 35.0800000  0  4G 6G13G 9G11
  21438843.196    21438844.329    41652964.798 9 -46790194.554 8
  20873028.056    20873031.741    -3498274.653 9   1513603.911 8
  20023914.082    20023915.475    22439958.371 8 -61721037.884 7
  21793179.852    21793182.342    42794636.237 9 -46087654.151 9
 86  6 17  1 19 41.0800000  0  4G 6G13G 9G11
  21441593.083    21441595.071    41667415.173 9 -46778934.519 8
  20871314.015    20871316.611    -3507286.154 9   1506581.975 8
  20023361.272    20023362.854    22437048.570 7 -61723305.286 8
  21795859.855    21795861.882    42808718.878 9 -46076680.666 9
 86  6 17  1 19 47.0800000  0  4G 6G13G 9G11
  21444346.215    21444349.361    41681884.837 9 -46767659.478 8
  20869602.035    20869604.932    -3516277.705 8   1499575.576 8
  20022811.570    20022813.228    22434162.143 8 -61725554.430 7
  21798541.885    21798544.433    42822811.147 9 -46065699.692 8
 86  6 17  1 19 53.0800000  0  4G 6G13G 9G11
  21447103.195    21447106.857    41696373.729 9 -46756369.434 8
  20867895.262    20867898.847    -3525249.347 8   1492584.695 9
  20022267.584    20022268.585    22431299.162 8 -61727785.342 8
  21801224.702    21801227.385    42836913.038 9 -46054711.196 9
 86  6 17  1 19 59.0800000  0  4G 6G13G 9G11
  21449865.184    21449865.741    41710881.890 9 -46745064.386 9
  20866192.069    20866195.681    -3534201.061 9   1485609.334 8
  20021726.572    20021729.046    22428459.614 8 -61729997.970 8
  21803909.664    21803912.284    42851024.509 9 -46043715.241 9
 86  6 17  1 20  5.0800000  0  4G 6G13G 9G11
  21452628.692    21452631.408    41725409.295 9 -46733744.330 8
  20864492.938    20864495.063    -3543132.869 9   1478649.490 8
  20021190.692    20021192.140    22425643.494 8 -61732192.346 9
  21806596.694    21806599.135    42865145.578 9 -46032711.824 9
 86  6 17  1 20 11.0800000  0  4G 6G13G 9G11
  21455396.868    21455399.224    41739955.980 9 -46722409.263 9
  20862797.013    20862800.010    -3552044.707 9   1471705.205 9
  20020660.122    20020661.015    22422850.944 8 -61734368.373 8
  21809285.878    21809287.753    42879276.200 9 -46021700.944 8
 86  6 17  1 20 17.0800000  0  4G 6G13G 9G11
  21458167.979    21458171.268    41754521.864 9 -46711059.243 8
  20861104.979    20861107.361    -3560936.663 9   1464776.407 9
  20020132.857    20020133.876    22420081.797 7 -61736526.137 9
  21811976.807    21811979.477    42893416.341 9 -46010682.660 9
 86  6 17  1 20 23.0800000  0  4G 6G13G 9G11
  21460944.753    21460947.517    41769106.985 9 -46699694.219 9
  20859417.039    20859419.578    -3569808.744 9   1457863.111 8
  20019610.790    20019611.347    22417336.125 8 -61738665.633 8
  21814669.003    21814672.052    42907565.978 9 -45999656.964 9
 86  6 17  1 20 29.0800000  0  4G 6G13G 9G11
  21463723.744    21463725.653    41783711.320 9 -46688314.231 9
  20857731.988    20857735.129    -3578660.894 9   1450965.329 9
  20019092.890    20019092.548    22414614.010 7 -61740786.762 7
  21817363.524    21817366.852    42921725.100 9 -45988623.898 9
 86  6 17  1 20 35.0800000  0  4G 6G13G 9G11
  21466505.376    21466508.087    41798334.892 9 -46676919.237 9
  20856051.287    20856054.128    -3587493.162 8   1444083.055 8
  20018578.693    20018579.733    22411915.361 9 -61742889.599 8
  21820059.884    21820062.847    42935893.734 9 -45977583.405 9
 86  6 17  1 20 41.0800000  0  4G 6G13G 9G11
  21469292.682    21469294.237    41812977.635 9 -46665509.326 8
  20854374.823    20854376.404    -3596305.578 9   1437216.244 8
  20018070.720    20018069.599    22409240.382 8 -61744974.012 7
  21822757.826    21822760.681    42950071.765 9 -45966535.595 8
 86  6 17  1 20 47.0800000  0  4G 6G13G 9G11
  21472082.098    21472084.297    41827639.584 9 -46654084.441 8
  20852700.876    20852703.731    -3605098.156 9   1430364.891 7
  20017565.016    20017565.920    22406588.841 8 -61747040.142 8
  21825458.278    21825460.146    42964259.179 9 -45955480.466 8
 86  6 17  1 20 53.0800000  0  4G 6G13G 9G11
  21474876.859    21474878.199    41842320.642 9 -46642644.663 8
  20851031.481    20851033.476    -3613870.866 9   1423529.007 8
  20017064.742    20017065.902    22403960.969 8 -61749087.839 7
  21828159.109    21828162.179    42978455.998 9 -45944418.015 8
 86  6 17  1 20 59.0800000  0  4G 6G13G 9G11
  21477674.306    21477676.934    41857020.932 9 -46631189.910 8
  20849365.547    20849368.574    -3622623.733 9   1416708.604 8
  20016567.593    20016569.921    22401356.626 7 -61751117.196 7
  21830863.024    21830865.515    42992662.206 9 -45933348.246 9
 86  6 17  1 21  5.0800000  0  4G 6G13G 9G11
  21480474.386    21480476.663    41871740.360 9 -46619720.220 9
  20847703.763    20847706.546    -3631356.725 9   1409903.688 8
  20016078.477    20016079.209    22398775.861 8 -61753128.182 7
  21833568.256    21833570.403    43006877.792 9 -45922271.174 9
 86  6 17  1 21 11.0800000  0  4G 6G13G 9G11
  21483279.431    21483281.133    41886478.892 9 -46608235.663 9
  20846044.985    20846048.999    -3640069.796 9   1403114.284 8
  20015591.918    20015593.481    22396218.721 8 -61755120.760 8
  21836274.904    21836277.137    43021102.723 9 -45911186.810 9
 86  6 17  1 21 17.0800000  0  4G 6G13G 9G11
  21486087.625    21486090.661    41901236.597 9 -46596736.152 9
  20844391.357    20844395.314    -3648762.942 8   1396340.401 8
  20015109.224    20015109.726    22393685.266 8 -61757094.886 7
  21838983.927    21838986.103    43035336.990 9 -45900095.172 9
 86  6 17  1 21 23.0800000  0  4G 6G13G 9G11
  21488899.786    21488901.669    41916013.424 9 -46585221.764 9
  20842739.733    20842743.647    -3657436.096 8   1389582.106 8
  20014631.432    20014632.915    22391175.350 8 -61759050.667 8
  21841694.468    21841696.766    43049580.573 9 -45888996.282 9
 86  6 17  1 21 29.0800000  0  4G 6G13G 9G11
  21491714.840    21491718.341    41930809.395 9 -46573692.445 9
  20841093.718    20841097.102    -3666089.355 9   1382839.323 9
  20014158.925    20014160.476    22388689.140 8 -61760987.970 7
  21844406.668    21844408.936    43063833.431 9 -45877890.163 8
 86  6 17  1 21 35.0800000  0  4G 6G13G 9G11
  21494534.438    21494536.622    41945624.348 9 -46562148.319 8
  20839450.965    20839454.723    -3674722.725 9   1376112.040 9
  20013689.344    20013691.098    22386226.490 8 -61762906.910 8
  21847120.263    21847123.183    43078095.573 9 -45866776.817 9
 86  6 17  1 21 41.0800000  0  4G 6G13G 9G11
  21497356.597    21497359.107    41960458.450 9 -46550589.299 9
  20837813.050    20837815.361    -3683336.145 9   1369400.288 8
  20013224.238    20013226.616    22383787.571 8 -61764807.378 7
  21849835.174    21849839.060    43092366.909 9 -45855656.289 8
 86  6 17  1 21 47.0800000  0  4G 6G13G 9G11
  21500183.163    21500185.792    41975311.616 9 -46539015.417 8
  20836177.109    20836180.493    -3691929.658 8   1362704.060 8
  20012765.826    20012766.517    22381372.335 7 -61766689.385 8
  21852553.363    21852555.739    43106647.453 9 -45844528.596 8
 86  6 17  1 21 53.0800000  0  4G 6G13G 9G11
  21503013.662    21503017.527    41990183.869 9 -46527426.653 8
  20834545.461    20834548.186    -3700503.296 9   1356023.310 8
  20012309.752    20012313.313    22378980.768 8 -61768552.944 7
  21855272.066    21855274.900    43120937.206 9 -45833393.724 8
 86  6 17  1 21 59.0800000  0  4G 6G13G 9G11
  21505847.300    21505849.742    42005075.139 9 -46515823.070 9
  20832917.990    20832919.857    -3709057.074 9   1349358.032 9
  20011860.229    20011860.964    22376612.908 8 -61770398.022 8
  21857992.831    21857996.152    43135236.145 9 -45822251.695 9
 86  6 17  1 22  5.0800000  0  4G 6G13G 9G11
  21508684.795    21508686.837    42019985.470 9 -46504204.637 8
  20831293.954    20831296.094    -3717590.982 9   1342708.236 8
  20011413.324    20011416.768    22374268.745 9 -61772224.648 8
  21860715.785    21860718.382    43149544.279 9 -45811102.507 8
 86  6 17  1 22 11.0800000  0  4G 6G13G 9G11
  21511526.450    21511527.712    42034914.783 9 -46492571.418 9
  20829673.810    20829676.322    -3726105.018 8   1336073.932 9
  20010972.802    20010976.247    22371948.309 8 -61774032.770 8
  21863440.690    21863443.439    43163861.579 9 -45799946.167 8
 86  6 17  1 22 17.0800000  0  4G 6G13G 9G11
  21514370.413    21514372.541    42049863.120 9 -46480923.364 8
  20828057.788    20828059.727    -3734599.160 9   1329455.128 8
  20010535.452    20010538.058    22369651.542 8 -61775822.455 8
  21866166.763    21866169.620    43178188.023 9 -45788782.712 9
 86  6 17  1 22 23.0800000  0  4G 6G13G 9G11
  21517218.375    21517220.377    42064830.462 9 -46469260.515 9
  20826445.428    20826447.596    -3743073.355 9   1322851.855 8
  20010103.289    20010104.711    22367378.592 8 -61777593.590 7
  21868894.261    21868897.839    43192523.558 9 -45777612.167 9
 86  6 17  1 22 29.0800000  0  4G 6G13G 9G11
  21520070.970    21520073.094    42079816.851 9 -46457582.829 9
  20824837.047    20824838.885    -3751527.635 9   1316264.118 8
  20009675.008    20009676.323    22365129.400 7 -61779346.198 8
  21871624.390    21871627.360    43206868.155 9 -45766434.561 9
 86  6 17  1 22 35.0800000  0  4G 6G13G 9G11
  21522926.201    21522929.498    42094822.215 9 -46445890.345 8
  20823231.612    20823233.451    -3759962.017 9   1309691.872 8
  20009251.453    20009253.064    22362904.017 8 -61781080.263 8
  21874356.158    21874357.897    43221221.818 9 -45755249.892 8
 86  6 17  1 22 41.0800000  0  4G 6G13G 9G11
  21525784.459    21525787.294    42109846.522 9 -46434183.089 9
  20821630.471    20821633.369    -3768376.486 9   1303135.154 8
  20008832.995    20008834.764    22360702.390 9 -61782795.822 8
  21877089.636    21877091.039    43235584.539 9 -45744058.162 8
 86  6 17  1 22 47.0800000  0  4G 6G13G 9G11
  21528648.083    21528649.483    42124889.785 9 -46422461.080 8
  20820032.821    20820035.003    -3776771.060 9   1296593.930 8
  20008417.470    20008421.762    22358524.566 7 -61784492.823 7
  21879823.886    21879826.650    43249956.300 9 -45732859.388 9
 86  6 17  1 22 53.0800000  0  4G 6G13G 9G11
  21531514.496    21531516.066    42139952.012 9 -46410724.279 9
  20818439.407    20818440.516    -3785145.765 9   1290068.188 9
  20008008.575    20008009.266    22356370.547 8 -61786171.280 8
  21882561.006    21882563.475    43264337.140 9 -45721653.551 8
 86  6 17  1 22 59.0800000  0  4G 6G13G 9G11
  21534383.561    21534386.626    42155033.189 8 -46398972.721 8
  20816848.882    20816851.165    -3793500.633 9   1283557.903 8
  20007602.966    20007604.994    22354240.406 7 -61787831.128 7
  21885299.549    21885301.769    43278726.962 9 -45710440.697 9
 86  6 17  1 23  5.0800000  0  4G 6G13G 9G11
  21537256.990    21537260.301    42170133.280 9 -46387206.426 8
  20815262.165    20815265.578    -3801835.616 9   1277063.099 8
  20007202.323    20007203.577    22352134.068 8 -61789472.437 8
  21888038.651    21888041.943    43293125.743 9 -45699220.874 8
 86  6 17  1 23 11.0800000  0  4G 6G13G 9G11
  21540134.938    21540138.210    42185252.290 9 -46375425.382 8
  20813679.397    20813682.767    -3810150.729 9   1270583.802 9
  20006806.259    20006807.556    22350051.578 7 -61791095.172 8
  21890780.507    21890782.982    43307533.484 9 -45687994.065 9
 86  6 17  1 23 17.0800000  0  4G 6G13G 9G11
  21543014.709    21543016.818    42200390.193 9 -46363629.623 8
  20812100.979    20812104.664    -3818445.895 9   1264120.036 9
  20006414.352    20006415.974    22347992.939 7 -61792699.302 8
  21893524.209    21893527.079    43321950.114 9 -45676760.322 8
 86  6 17  1 23 23.0800000  0  4G 6G13G 9G11
  21545899.682    21545901.906    42215546.993 9 -46351819.143 8
  20810526.138    20810529.593    -3826721.132 9   1257671.812 8
  20006027.978    20006028.954    22345958.113 7 -61794284.875 8
  21896269.062    21896271.632    43336375.621 9 -45665519.680 9
 86  6 17  1 23 29.0800000  0  4G 6G13G 9G11
  21548787.242    21548789.790    42230722.674 9 -46339993.946 8
  20808956.277    20808959.374    -3834976.533 9   1251239.034 9
  20005643.878    20005646.553    22343947.276 8 -61795851.763 8
  21899015.812    21899018.947    43350810.001 9 -45654272.106 9
 86  6 17  1 23 35.0800000  0  4G 6G13G 9G11
  21551677.963    21551680.366    42245917.264 9 -46328154.017 9
  20807387.416    20807391.274    -3843212.057 8   1244821.756 9
  20005267.020    20005267.379    22341960.215 8 -61797400.125 8
  21901763.928    21901767.299    43365253.256 9 -45643017.630 9
 86  6 17  1 23 41.0800000  0  4G 6G13G 9G11
  21554573.031    21554576.146    42261130.637 9 -46316299.440 8
  20805825.253    20805828.624    -3851427.647 9   1238420.014 8
  20004892.308    20004893.656    22339997.132 8 -61798929.804 8
  21904514.420    21904517.847    43379705.372 9 -45631756.247 9
 86  6 17  1 23 47.0800000  0  4G 6G13G 9G11
  21557472.395    21557474.251    42276362.896 9 -46304430.160 8
  20804264.693    20804267.920    -3859623.341 8   1232033.766 9
  20004523.332    20004525.066    22338057.876 8 -61800440.909 7
  21907266.134    21907268.997    43394166.312 9 -45620487.988 9
 86  6 17  1 23 53.0800000  0  4G 6G13G 9G11
  21560374.669    21560377.210    42291614.003 9 -46292546.179 9
  20802709.112    20802714.142    -3867799.188 9   1225662.982 8
  20004159.299    20004161.098    22336142.641 7 -61801933.307 8
  21910019.903    21910022.830    43408636.061 9 -45609212.856 9
 86  6 17  1 23 59.0800000  0  4G 6G13G 9G11
  21563280.361    21563281.863    42306883.956 9 -46280647.527 8
  20801156.965    20801160.822    -3875955.120 9   1219307.712 9
  20003798.543    20003800.563    22334251.269 8 -61803407.098 7
  21912775.274    21912777.708    43423114.640 9 -45597930.853 9
 86  6 17  1 24  5.0800000  0  4G 6G13G 9G11
  21566188.915    21566191.937    42322172.662 9 -46268734.255 8
  20799610.028    20799613.684    -3884091.139 8   1212967.974 9
  20003442.974    20003446.253    22332383.858 8 -61804862.235 7
  21915532.083    21915534.165    43437602.029 9 -45586641.982 8
 86  6 17  1 24 11.0800000  0  4G 6G13G 9G11
  21569102.528    21569104.082    42337480.187 9 -46256806.337 8
  20798064.864    20798068.262    -3892207.215 8   1206643.756 9
  20003092.009    20003094.286    22330540.480 8 -61806298.631 8
  21918290.516    21918292.727    43452098.151 9 -45575346.302 9
 86  6 17  1 24 17.0800000  0  4G 6G13G 9G11
  21572018.462    21572021.924    42352806.464 9 -46244863.775 8
  20796524.623    20796528.551    -3900303.458 9   1200335.019 9
  20002746.718    20002748.043    22328721.069 8 -61807716.349 8
  21921050.952    21921052.291    43466603.027 9 -45564043.806 8
 86  6 17  1 24 23.0800000  0  4G 6G13G 9G11
  21574939.691    21574940.391    42368151.533 9 -46232906.592 9
  20794988.589    20794990.570    -3908379.756 8   1194041.804 8
  20002404.023    20002407.653    22326925.645 7 -61809115.380 7
  21923812.111    21923815.110    43481116.611 9 -45552734.534 9
 86  6 17  1 24 29.0800000  0  4G 6G13G 9G11
  21577861.696    21577864.110    42383515.400 9 -46220934.759 9
  20793455.702    20793458.213    -3916436.231 9   1187764.034 9
  20002066.913    20002069.913    22325154.166 8 -61810495.755 8
  21926576.239    21926578.830    43495638.838 9 -45541418.501 9
 86  6 17  1 24 35.0800000  0  4G 6G13G 9G11
  21580789.031    21580791.653    42398897.992 9 -46208948.332 9
  20791925.734    20791928.117    -3924472.823 9   1181501.762 9
  20001735.248    20001737.253    22323406.711 8 -61811857.393 8
  21929341.555    21929343.431    43510169.763 9 -45530095.710 8
 86  6 17  1 24 41.0800000  0  4G 6G13G 9G11
  21583720.077    21583721.792    42414299.315 9 -46196947.315 8
  20790400.432    20790403.602    -3932489.592 9   1175254.923 9
  20001406.698    20001409.427    22321683.312 8 -61813200.315 8
  21932108.638    21932110.771    43524709.327 9 -45518766.176 9
 86  6 17  1 24 47.0800000  0  4G 6G13G 9G11
  21586653.776    21586656.733    42429719.420 9 -46184931.640 9
  20788879.021    20788881.233    -3940486.525 9   1169023.550 8
  20001083.203    20001086.818    22319983.922 7 -61814524.520 7
  21934876.823    21934878.348    43539257.546 9 -45507429.911 9
 86  6 17  1 24 53.0800000  0  4G 6G13G 9G11
  21589592.673    21589595.383    42445158.184 8 -46172901.451 8
  20787360.530    20787363.185    -3948463.598 9   1162807.650 9
  20000764.620    20000767.340    22318308.605 7 -61815829.955 7
  21937646.546    21937648.736    43553814.373 9 -45496086.930 8
 86  6 17  1 24 59.0800000  0  4G 6G13G 9G11
  21592534.321    21592536.341    42460615.690 9 -46160856.657 9
  20785846.274    20785849.430    -3956420.779 9   1156607.260 9
  20000450.866    20000452.001    22316657.319 7 -61817116.671 8
  21940418.429    21940420.735    43568379.774 9 -45484737.260 9
 86  6 17  1 25  5.0800000  0  4G 6G13G 9G11
  21595478.466    21595482.940    42476091.871 9 -46148797.303 9
  20784336.025    20784338.694    -3964358.104 9   1150422.334 8
  20000139.935    20000142.258    22315030.119 8 -61818384.622 7
  21943192.052    21943193.176    43582953.716 9 -45473380.948 9
 86  6 17  1 25 11.0800000  0  4G 6G13G 9G11
  21598427.716    21598430.218    42491586.728 7 -46136723.390 8
  20782828.924    20782832.108    -3972275.604 9   1144252.860 8
  19999835.398    19999838.582    22313427.015 7 -61819633.798 8
  21945966.805    21945968.687    43597536.218 9 -45462017.954 8
 86  6 17  1 25 17.0800000  0  4G 6G13G 9G11
  21601378.782    21601382.491    42507100.298 9 -46124634.910 8
  20781326.258    20781328.927    -3980173.191 9   1138098.903 9
  19999535.514    19999537.935    22311847.902 8 -61820864.258 9
  21948743.153    21948744.928    43612127.319 9 -45450648.276 8
 86  6 17  1 25 23.0800000  0  4G 6G13G 9G11
  21604335.223    21604338.359    42522632.455 9 -46112531.931 8
  20779827.056    20779829.682    -3988050.940 9   1131960.405 8
  19999239.886    19999243.169    22310292.971 8 -61822075.896 7
  21951520.825    21951524.152    43626726.945 9 -45439271.941 8
 86  6 17  1 25 29.0800000  0  4G 6G13G 9G11
  21607294.700    21607297.536    42538183.267 9 -46100414.430 9
  20778331.373    20778334.643    -3995908.915 9   1125837.318 8
  19998949.038    19998951.205    22308762.084 8 -61823268.793 7
  21954301.952    21954303.491    43641335.043 9 -45427889.011 9
 86  6 17  1 25 35.0800000  0  4G 6G13G 9G11
  21610256.724    21610260.705    42553752.730 9 -46088282.387 8
  20776840.756    20776843.425    -4003747.047 9   1119729.675 8
  19998662.744    19998664.098    22307255.395 8 -61824442.835 8
  21957082.157    21957085.099    43655951.614 9 -45416499.486 8
 86  6 17  1 25 41.0800000  0  4G 6G13G 9G11
  21613223.622    21613226.357    42569340.808 9 -46076135.850 8
  20775352.028    20775355.269    -4011565.348 9   1113637.506 9
  19998379.117    19998382.256    22305772.766 8 -61825598.142 8
  21959865.903    21959868.350    43670576.616 9 -45405103.376 8
 86  6 17  1 25 47.0800000  0  4G 6G13G 9G11
  21616194.013    21616196.512    42584947.437 9 -46063974.842 8
  20773867.420    20773871.076    -4019363.855 9   1107560.749 9
  19998102.078    19998104.494    22304314.255 8 -61826734.649 7
  21962650.386    21962653.056    43685210.045 9 -45393700.708 8
 86  6 17  1 25 53.0800000  0  4G 6G13G 9G11
  21619168.110    21619169.698    42600572.670 9 -46051799.352 9
  20772387.192    20772391.478    -4027142.469 8   1101499.498 9
  19997828.625    19997831.306    22302879.922 7 -61827852.308 8
  21965436.722    21965439.434    43699851.892 9 -45382291.477 9
 86  6 17  1 25 59.0800000  0  4G 6G13G 9G11
  21622143.299    21622146.338    42616216.479 9 -46039609.367 9
  20770911.170    20770914.197    -4034901.180 9   1095453.758 8
  19997561.176    19997562.230    22301469.811 7 -61828951.093 8
  21968225.047    21968226.321    43714502.152 9 -45370875.695 9
 86  6 17  1 26  5.0800000  0  4G 6G13G 9G11
  21625124.555    21625126.525    42631878.896 9 -46027404.906 8
  20769438.869    20769441.824    -4042640.074 9   1089423.458 8
  19997297.050    19997298.350    22300083.815 8 -61830031.099 7
  21971013.816    21971016.885    43729160.736 9 -45359453.426 8
 86  6 17  1 26 11.0800000  0  4G 6G13G 9G11
  21628108.357    21628110.632    42647559.812 9 -46015186.016 9
  20767969.000    20767973.544    -4050359.149 9   1083408.589 8
  19997038.919    19997039.891    22298721.968 8 -61831092.274 8
  21973805.431    21973808.008    43743827.718 8 -45348024.607 8
 86  6 17  1 26 17.0800000  0  4G 6G13G 9G11
  21631096.261    21631098.946    42663259.331 9 -46002952.640 9
  20766505.227    20766508.225    -4058058.416 8   1077409.178 8
  19996783.930    19996785.850    22297384.396 7 -61832134.538 7
  21976597.391    21976600.218    43758503.031 9 -45336589.301 8
 86  6 17  1 26 23.0800000  0  4G 6G13G 9G11
  21634086.563    21634089.670    42678977.382 9 -45990704.822 9
  20765043.400    20765046.313    -4065737.738 9   1071425.296 9
  19996533.536    19996536.294    22296071.000 8 -61833157.978 8
  21979391.862    21979394.668    43773186.612 9 -45325147.554 9
 86  6 17  1 26 29.0800000  0  4G 6G13G 9G11
  21637082.003    21637084.113    42694713.941 9 -45978442.571 8
  20763585.408    20763590.109    -4073397.176 9   1065456.905 9
  19996288.642    19996290.761    22294781.822 8 -61834162.529 8
  21982188.150    21982189.303    43787878.469 9 -45313699.358 9
 86  6 17  1 26 35.0800000  0  4G 6G13G 9G11
  21640080.287    21640082.038    42710469.028 9 -45966165.889 9
  20762132.682    20762135.694    -4081036.845 9   1059503.921 9
  19996046.398    19996048.571    22293516.854 8 -61835148.226 8
  21984985.368    21984987.387    43802578.568 9 -45302244.742 9
 86  6 17  1 26 41.0800000  0  4G 6G13G 9G11
  21643082.184    21643083.593    42726242.596 9 -45953874.810 8
  20760682.875    20760685.958    -4088656.657 9   1053566.412 8
  19995810.904    19995814.009    22292276.192 8 -61836114.977 7
  21987783.552    21987786.372    43817286.949 9 -45290783.669 9
 86  6 17  1 26 47.0800000  0  4G 6G13G 9G11
  21646087.612    21646090.176    42742034.680 9 -45941569.301 9
  20759236.931    20759239.671    -4096256.630 9   1047644.366 9
  19995579.872    19995582.074    22291059.741 7 -61837062.859 7
  21990585.472    21990587.275    43832003.589 9 -45279316.154 9
 86  6 17  1 26 53.0800000  0  4G 6G13G 9G11
  21649095.801    21649097.206    42757845.198 9 -45929249.421 9
  20757793.934    20757796.531    -4103836.798 9   1041737.742 8
  19995352.918    19995354.273    22289867.524 7 -61837991.845 8
  21993386.559    21993389.222    43846728.470 9 -45267842.227 9
 86  6 17  1 26 59.0800000  0  4G 6G13G 9G11
  21652108.140    21652109.466    42773674.151 9 -45916915.174 9
  20756355.146    20756357.901    -4111397.127 9   1035846.578 8
  19995130.585    19995133.646    22288699.552 6 -61838901.969 8
  21996190.303    21996192.586    43861461.562 9 -45256361.905 9
 86  6 17  1 27  5.0800000  0  4G 6G13G 9G11
  21655123.527    21655126.349    42789521.585 9 -45904566.539 9
  20754921.136    20754924.133    -4118937.716 9   1029970.802 8
  19994912.574    19994915.449    22287555.896 7 -61839793.120 8
  21998995.133    21998997.338    43876202.792 9 -45244875.224 9
 86  6 17  1 27 11.0800000  0  4G 6G13G 9G11
  21658142.506    21658145.556    42805387.445 9 -45892203.549 9
  20753489.701    20753492.069    -4126458.494 9   1024110.459 9
  19994701.046    19994701.022    22286436.486 8 -61840665.398 8
  22001802.662    22001804.473    43890952.160 9 -45233382.220 9
 86  6 17  1 27 17.0800000  0  4G 6G13G 9G11
  21661164.372    21661167.351    42821271.691 9 -45879826.234 8
  20752061.988    20752064.656    -4133959.467 9   1018265.552 7
  19994492.404    19994493.718    22285341.555 8 -61841518.582 8
  22004610.455    22004612.702    43905709.661 9 -45221882.876 9
 86  6 17  1 27 23.0800000  0  4G 6G13G 9G11
  21664191.924    21664193.082    42837174.303 9 -45867434.586 9
  20750637.651    20750640.634    -4141440.573 9   1012436.126 9
  19994289.609    19994290.581    22284270.742 6 -61842352.987 8
  22007420.966    22007422.498    43920475.306 9 -45210377.183 9
 86  6 17  1 27 29.0800000  0  4G 6G13G 9G11
  21667221.009    21667223.272    42853095.347 9 -45855028.587 8
  20749218.351    20749221.906    -4148901.893 9   1006622.119 8
  19994089.614    19994090.975    22283224.341 8 -61843168.363 8
  22010231.949    22010234.626    43935249.100 9 -45198865.133 9
 86  6 17  1 27 35.0800000  0  4G 6G13G 9G11
  21670253.087    21670257.625    42869034.768 8 -45842608.268 8
  20747801.770    20747805.841    -4156343.394 9   1000823.553 8
  19993895.169    19993896.575    22282202.196 8 -61843964.845 7
  22013045.308    22013047.549    43950031.005 9 -45187346.768 8
 86  6 17  1 27 41.0800000  0  4G 6G13G 9G11
  21673289.884    21673294.001    42884992.569 9 -45830173.621 8
  20746390.025    20746392.321    -4163765.115 9    995040.395 9
  19993706.200    19993706.760    22281204.423 8 -61844742.335 8
  22015858.488    22015860.972    43964820.956 9 -45175822.134 9
 86  6 17  1 27 47.0800000  0  4G 6G13G 9G11
  21676330.834    21676334.407    42900968.714 9 -45817724.691 8
  20744980.569    20744983.882    -4171167.043 9    989272.664 8
  19993519.883    19993521.365    22280230.962 7 -61845500.867 7
  22018674.938    22018676.849    43979618.927 9 -45164291.255 9
 86  6 17  1 27 53.0800000  0  4G 6G13G 9G11
  21679374.342    21679377.568    42916963.207 9 -45805261.454 9
  20743576.809    20743579.177    -4178549.180 9    983520.357 8
  19993340.077    19993340.355    22279281.917 8 -61846240.378 8
  22021492.068    22021494.537    43994424.908 9 -45152754.133 9
 86  6 17  1 27 59.0800000  0  4G 6G13G 9G11
  21682421.461    21682425.022    42932976.018 9 -45792783.953 8
  20742175.538    20742177.864    -4185911.541 9    977783.466 9
  19993163.251    19993164.795    22278357.249 7 -61846960.913 8
  22024311.257    22024314.113    44009238.820 9 -45141210.826 9
 86  6 17  1 28  5.0800000  0  4G 6G13G 9G11
  21685472.301    21685475.220    42949007.168 9 -45780292.153 8
  20740777.301    20740779.598    -4193254.080 9    972062.002 8
  19992993.320    19992993.379    22277456.942 8 -61847662.447 8
  22027131.950    22027134.533    44024060.703 9 -45129661.313 9
 86  6 17  1 28 11.0800000  0  4G 6G13G 9G11
  21688525.644    21688528.661    42965056.586 9 -45767786.119 8
  20739384.560    20739386.456    -4200576.840 9    966355.980 8
  19992824.604    19992827.486    22276580.919 7 -61848345.059 8
  22029953.028    22029956.535    44038890.613 9 -45118105.535 8
 86  6 17  1 28 17.0800000  0  4G 6G13G 9G11
  21691582.803    21691586.664    42981124.301 9 -45755265.837 8
  20737994.850    20737997.419    -4207879.837 9    960665.326 9
  19992663.833    19992664.429    22275729.386 8 -61849008.594 7
  22032776.590    22032779.667    44053728.452 9 -45106543.593 9
 86  6 17  1 28 23.0800000  0  4G 6G13G 9G11
  21694643.957    21694648.586    42997210.321 9 -45742731.279 9
  20736607.947    20736611.245    -4215163.014 9    954990.128 9
  19992506.976    19992507.829    22274902.261 9 -61849653.114 8
  22035602.391    22035604.280    44068574.197 9 -45094975.482 9
 86  6 17  1 28 29.0800000  0  4G 6G13G 9G11
  21697709.652    21697713.325    43013314.604 9 -45730182.497 8
  20735225.908    20735230.637    -4222426.400 9    949330.354 8
  19992353.223    19992354.013    22274099.479 7 -61850278.649 8
  22038428.442    22038432.034    44083427.808 9 -45083401.235 9
 86  6 17  1 28 35.0800000  0  4G 6G13G 9G11
  21700777.625    21700779.877    43029437.094 9 -45717619.518 8
  20733848.562    20733851.188    -4229670.050 8    943685.958 8
  19992205.649    19992206.263    22273321.204 8 -61850885.116 7
  22041256.661    22041259.631    44098289.333 9 -45071820.832 9
 86  6 17  1 28 41.0800000  0  4G 6G13G 9G11
  21703849.021    21703851.660    43045577.863 9 -45705042.309 9
  20732473.764    20732477.334    -4236893.974 9    938056.931 8
  19992062.944    19992063.700    22272567.435 8 -61851472.461 7
  22044086.761    22044089.424    44113158.726 9 -45060234.296 9
 86  6 17  1 28 47.0800000  0  4G 6G13G 9G11
  21706924.011    21706926.434    43061736.813 9 -45692450.915 9
  20731102.886    20731104.382    -4244098.118 9    932443.329 9
  19991922.345    19991924.497    22271838.029 7 -61852040.841 8
  22046916.690    22046919.868    44128035.957 9 -45048641.651 9
 86  6 17  1 28 53.0800000  0  4G 6G13G 9G11
  21710002.812    21710005.032    43077914.031 9 -45679845.297 9
  20729735.271    20729737.252    -4251282.455 9    926845.139 9
  19991788.157    19991790.113    22271133.148 8 -61852590.093 8
  22049749.782    22049752.415    44142921.010 9 -45037042.911 9
 86  6 17  1 28 59.0800000  0  4G 6G13G 9G11
  21713084.694    21713087.014    43094109.442 9 -45667225.513 9
  20728372.234    20728374.446    -4258446.977 9    921262.416 9
  19991658.663    19991660.911    22270452.730 8 -61853120.285 7
  22052583.245    22052586.093    44157813.894 9 -45025438.076 9
 86  6 17  1 29  5.0800000  0  4G 6G13G 9G11
  21716169.906    21716172.942    43110323.016 9 -45654591.561 9
  20727012.690    20727016.261    -4265591.739 9    915695.061 9
  19991533.963    19991535.198    22269796.816 8 -61853631.382 8
  22055418.840    22055421.717    44172714.538 9 -45013827.184 9
 86  6 17  1 29 11.0800000  0  4G 6G13G 9G11
  21719259.268    21719261.828    43126554.737 9 -45641943.471 8
  20725657.352    20725658.818    -4272716.693 9    910143.151 8
  19991414.258    19991415.423    22269165.407 8 -61854123.393 8
  22058256.153    22058257.928    44187622.937 9 -45002210.249 8
 86  6 17  1 29 17.0800000  0  4G 6G13G 9G11
  21722351.523    21722352.745    43142804.616 9 -45629281.236 8
  20724305.419    20724306.800    -4279821.871 9    904606.662 9
  19991298.518    19991300.037    22268558.420 8 -61854596.381 7
  22061094.167    22061097.337    44202539.134 9 -44990587.244 9
 86  6 17  1 29 23.0800000  0  4G 6G13G 9G11
  21725445.778    21725448.815    43159072.711 9 -45616604.805 9
  20722957.036    20722959.246    -4286907.200 9    899085.625 9
  19991187.304    19991189.116    22267975.937 8 -61855050.264 8
  22063934.427    22063938.113    44217463.094 9 -44978958.188 8
 86  6 17  1 29 29.0800000  0  4G 6G13G 9G11
  21728545.568    21728548.081    43175358.945 9 -45603914.248 9
  20721612.286    20721615.499    -4293972.779 9    893579.984 9
  19991080.951    19991083.372    22267417.932 7 -61855485.081 7
  22066775.431    22066779.418    44232394.768 9 -44967323.118 9
 86  6 17  1 29 35.0800000  0  4G 6G13G 9G11
  21731648.718    21731650.991    43191663.277 9 -45591209.579 8
  20720271.229    20720274.270    -4301018.640 9    888089.698 8
  19990979.155    19990981.622    22266884.452 7 -61855900.779 7
  22069618.739    22069622.082    44247334.154 9 -44955682.044 8
 86  6 17  1 29 41.0800000  0  4G 6G13G 9G11
  21734754.023    21734756.991    43207985.658 9 -45578490.860 9
  20718933.721    20718936.418    -4308044.832 9    882614.751 9
  19990882.706    19990883.401    22266375.604 7 -61856297.274 7
  22072462.784    22072465.761    44262281.200 9 -44944035.009 9
 86  6 17  1 29 47.0800000  0  4G 6G13G 9G11
  21737863.811    21737866.279    43224326.186 9 -45565757.980 9
  20717600.733    20717604.733    -4315051.319 9    877155.165 9
  19990789.881    19990792.412    22265891.290 7 -61856674.681 7
  22075308.660    22075311.760    44277235.859 9 -44932382.017 9
 86  6 17  1 29 53.0800000  0  4G 6G13G 9G11
  21740976.676    21740979.003    43240684.804 9 -45553011.020 9
  20716270.952    20716274.450    -4322038.014 8    871710.981 9
  19990702.094    19990704.829    22265431.454 7 -61857032.990 8
  22078155.739    22078159.446    44292198.169 9 -44920723.069 9
 86  6 17  1 29 59.0800000  0  4G 6G13G 9G11
  21744092.997    21744095.367    43257061.451 9 -45540250.010 8
  20714945.176    20714949.018    -4329004.812 9    866282.314 9
  19990619.311    19990621.601    22264996.197 6 -61857372.155 8
  22081004.692    22081007.590    44307168.080 9 -44909058.217 9
 86  6 17  1 30  5.0800000  0  4G 6G13G 9G11
  21747212.383    21747215.432    43273456.149 9 -45527474.921 9
  20713623.350    20713626.649    -4335951.951 9    860868.971 9
  19990541.091    19990543.146    22264585.508 8 -61857692.194 8
  22083854.383    22083857.531    44322145.539 9 -44897387.477 9
 86  6 17  1 30 11.0800000  0  4G 6G13G 9G11
  21750335.736    21750337.702    43289868.869 9 -45514685.810 9
  20712305.703    20712307.986    -4342879.339 9    855471.009 8
  19990468.286    19990470.402    22264199.502 7 -61857992.961 7
  22086705.818    22086708.974    44337130.567 9 -44885710.837 9
 86  6 17  1 30 17.0800000  0  4G 6G13G 9G11
  21753463.400    21753465.727    43306299.646 9 -45501882.611 8
  20710989.715    20710994.101    -4349786.960 9    850088.457 9
  19990399.409    19990401.929    22263837.985 8 -61858274.669 8
  22089559.314    22089562.034    44352123.185 9 -44874028.272 9
 86  6 17  1 30 23.0800000  0  4G 6G13G 9G11
  21756592.534    21756595.040    43322748.396 9 -45489065.410 9
  20709680.825    20709683.480    -4356674.882 9    844721.255 8
  19990334.660    19990336.919    22263501.016 7 -61858537.249 8
  22092413.819    22092417.269    44367123.316 9 -44862339.858 9
 86  6 17  1 30 29.0800000  0  4G 6G13G 9G11
  21759726.097    21759728.989    43339215.160 9 -45476234.175 9
  20708373.280    20708375.849    -4363543.122 9    839369.384 8
  19990274.837    19990277.368    22263188.793 7 -61858780.549 7
  22095269.927    22095273.456    44382131.003 9 -44850645.570 8
 86  6 17  1 30 35.0800000  0  4G 6G13G 9G11
  21762862.196    21762866.137    43355699.913 9 -45463388.923 9
  20707069.827    20707074.026    -4370391.671 9    834032.857 9
  19990220.967    19990223.687    22262901.082 7 -61859004.740 7
  22098127.516    22098130.242    44397146.198 9 -44838945.421 9
 86  6 17  1 30 41.0800000  0  4G 6G13G 9G11
  21766003.425    21766006.776    43372202.605 9 -45450529.689 8
  20705770.323    20705772.992    -4377220.500 9    828711.702 8
  19990172.361    19990173.380    22262638.016 8 -61859209.719 7
  22100986.063    22100988.052    44412168.890 9 -44827239.436 9
 86  6 17  1 30 47.0800000  0  4G 6G13G 9G11
  21769147.520    21769149.475    43388723.292 9 -45437656.437 9
  20704474.511    20704477.195    -4384029.624 9    823405.895 9
  19990127.092    19990127.902    22262399.524 7 -61859395.574 7
  22103846.628    22103848.725    44427198.967 9 -44815527.681 9
 86  6 17  1 30 53.0800000  0  4G 6G13G 9G11
  21772295.066    21772297.097    43405261.915 9 -45424769.198 8
  20703182.735    20703185.089    -4390818.930 8    818115.533 8
  19990086.243    19990087.139    22262185.830 7 -61859562.093 7
  22106707.843    22106710.779    44442236.546 9 -44803810.096 8
 86  6 17  1 30 59.0800000  0  4G 6G13G 9G11
  21775444.355    21775447.333    43421818.452 9 -45411868.002 9
  20701893.534    20701895.745    -4397588.484 8    812840.566 9
  19990050.262    19990050.267    22261996.753 8 -61859709.403 7
  22109570.434    22109573.111    44457281.518 9 -44792086.742 9
 86  6 17  1 31  5.0800000  0  4G 6G13G 9G11
  21778597.744    21778602.153    43438392.880 9 -45398952.878 9
  20700609.542    20700612.125    -4404338.367 8    807580.922 8
  19990018.428    19990019.443    22261832.268 8 -61859837.587 8
  22112435.248    22112437.761    44472333.873 9 -44780357.642 9
 86  6 17  1 31 11.0800000  0  4G 6G13G 9G11
  21781756.143    21781759.616    43454985.250 9 -45386023.778 8
  20699329.155    20699331.939    -4411068.569 8    802336.620 8
  19989992.042    19989994.223    22261692.544 7 -61859946.462 7
  22115300.979    22115304.350    44487393.645 9 -44768622.750 8
 86  6 17  1 31 17.0800000  0  4G 6G13G 9G11
  21784917.938    21784921.042    43471595.478 9 -45373080.743 9
  20698052.919    20698054.643    -4417779.135 9    797107.607 8
  19989970.546    19989970.766    22261577.331 7 -61860036.238 7
  22118168.234    22118171.353    44502460.790 9 -44756882.125 9
 86  6 17  1 31 23.0800000  0  4G 6G13G 9G11
  21788081.819    21788084.494    43488223.471 9 -45360123.863 8
  20696779.458    20696781.096    -4424470.095 9    791893.885 8
  19989953.604    19989954.500    22261486.715 7 -61860106.848 7
  22121037.248    22121039.825    44517535.172 9 -44745135.854 9
 86  6 17  1 31 29.0800000  0  4G 6G13G 9G11
  21791248.898    21791252.152    43504869.603 9 -45347152.864 8
  20695510.175    20695511.986    -4431141.123 9    786695.679 9
  19989939.267    19989941.189    22261421.100 8 -61860157.979 7
  22123906.935    22123909.340    44532617.113 9 -44733383.699 9
 86  6 17  1 31 35.0800000  0  4G 6G13G 9G11
  21794419.357    21794422.862    43521533.317 9 -45334168.158 9
  20694243.755    20694246.681    -4437792.646 9    781512.682 8
  19989932.681    19989934.160    22261379.999 9 -61860190.010 7
  22126778.211    22126781.517    44547706.198 9 -44721625.975 9
 86  6 17  1 31 41.0800000  0  4G 6G13G 9G11
  21797593.372    21797597.724    43538214.792 9 -45321169.620 8
  20692982.371    20692983.551    -4444424.625 8    776344.905 8
  19989928.856    19989930.386    22261363.462 7 -61860202.913 7
  22129650.967    22129654.630    44562802.429 9 -44709862.675 9
 86  6 17  1 31 47.0800000  0  4G 6G13G 9G11
  21800772.993    21800775.946    43554914.053 9 -45308157.214 9
  20691724.136    20691725.660    -4451036.980 9    771192.429 9
  19989930.488    19989932.351    22261371.640 8 -61860196.532 7
  22132523.959    22132527.345    44577905.953 9 -44698093.701 9
 86  6 17  1 31 53.0800000  0  4G 6G13G 9G11
  21803953.006    21803956.558    43571631.129 9 -45295130.933 9
  20690468.876    20690472.116    -4457629.588 9    766055.332 8
  19989936.422    19989938.937    22261404.578 8 -61860170.863 7
  22135399.829    22135403.198    44593016.760 9 -44686319.054 8
 86  6 17  1 31 59.0800000  0  4G 6G13G 9G11
  21807138.087    21807142.005    43588366.312 9 -45282090.530 9
  20689218.252    20689221.451    -4464202.318 9    760933.718 9
  19989947.713    19989947.586    22261462.585 8 -61860125.674 7
  22138276.984    22138280.749    44608135.025 9 -44674538.597 9
 86  6 17  1 32  5.0800000  0  4G 6G13G 9G11
  21810325.348    21810327.833    43605119.052 9 -45269036.460 9
  20687971.064    20687974.047    -4470755.553 9    755827.309 8
  19989964.115    19989966.385    22261544.989 7 -61860061.464 7
  22141155.236    22141159.293    44623260.259 9 -44662752.705 8
 86  6 17  1 32 11.0800000  0  4G 6G13G 9G11
  21813517.199    21813519.601    43621889.726 8 -45255968.404 9
  20686727.165    20686732.152    -4477288.967 9    750736.348 9
  19989984.266    19989985.320    22261652.419 7 -61859977.753 8
  22144034.696    22144038.260    44638392.904 9 -44650961.033 9
 86  6 17  1 32 17.0800000  0  4G 6G13G 9G11
  21816713.212    21816715.621    43638678.072 9 -45242886.579 9
  20685488.677    20685490.987    -4483802.767 9    745660.659 9
  19990009.482    19990012.460    22261784.535 8 -61859874.801 7
  22146915.773    22146918.772    44653532.644 9 -44639163.842 9
 86  6 17  1 32 23.0800000  0  4G 6G13G 9G11
  21819910.629    21819914.241    43655484.131 9 -45229790.967 7
  20684252.676    20684255.975    -4490296.858 9    740600.340 9
  19990037.485    19990041.087    22261941.396 8 -61859752.580 8
  22149798.181    22149800.980    44668679.496 9 -44627361.106 8
 86  6 17  1 32 29.0800000  0  4G 6G13G 9G11
  21823111.713    21823113.919    43672307.953 9 -45216681.504 8
  20683021.114    20683024.255    -4496771.324 9    735555.290 9
  19990073.230    19990075.268    22262123.051 8 -61859611.046 6
  22152681.819    22152684.819    44683833.528 9 -44615552.772 9
 86  6 17  1 32 35.0800000  0  4G 6G13G 9G11
  21826316.830    21826319.693    43689149.437 9 -45203558.286 8
  20681792.354    20681795.124    -4503226.128 9    730525.595 8
  19990113.916    19990114.625    22262329.340 7 -61859450.283 7
  22155566.138    22155570.504    44698994.594 9 -44603738.958 8
 86  6 17  1 32 41.0800000  0  4G 6G13G 9G11
  21829525.662    21829527.947    43706008.649 9 -45190421.245 8
  20680567.717    20680570.686    -4509661.189 8    725511.268 9
  19990157.315    19990159.019    22262560.592 8 -61859270.100 6
  22158452.888    22158456.474    44714162.821 9 -44591919.564 9
 86  6 17  1 32 47.0800000  0  4G 6G13G 9G11
  21832736.685    21832739.781    43722885.510 9 -45177270.447 8
  20679346.084    20679350.069    -4516076.668 9    720512.197 8
  19990205.233    19990206.429    22262816.710 8 -61859070.516 8
  22161341.149    22161344.505    44729338.113 9 -44580094.673 8
 86  6 17  1 32 53.0800000  0  4G 6G13G 9G11
  21835951.788    21835953.915    43739780.041 9 -45164105.874 8
  20678129.002    20678132.871    -4522472.531 9    715528.421 9
  19990258.882    19990260.611    22263097.768 8 -61858851.509 7
  22164230.232    22164233.252    44744520.520 9 -44568264.239 9
 86  6 17  1 32 59.0800000  0  4G 6G13G 9G11
  21839169.454    21839172.060    43756692.225 9 -45150927.558 9
  20676915.753    20676919.224    -4528848.821 9    710559.890 9
  19990316.509    19990317.884    22263403.454 7 -61858613.329 8
  22167120.245    22167124.245    44759709.919 9 -44556428.341 9
 86  6 17  1 33  5.0800000  0  4G 6G13G 9G11
  21842391.222    21842394.244    43773622.034 9 -45137735.521 9
  20675706.168    20675710.026    -4535205.539 9    705606.624 9
  19990379.115    19990382.533    22263733.947 8 -61858355.786 6
  22170012.226    22170015.547    44774906.267 8 -44544587.038 8
 86  6 17  1 33 11.0800000  0  4G 6G13G 9G11
  21845617.040    21845620.290    43790569.426 9 -45124529.765 7
  20674499.962    20674503.489    -4541542.612 9    700668.640 8
  19990448.754    19990449.192    22264089.273 9 -61858078.911 8
  22172905.373    22172909.374    44790109.666 9 -44532740.236 9
 86  6 17  1 33 17.0800000  0  4G 6G13G 9G11
  21848845.115    21848847.614    43807534.426 9 -45111310.287 9
  20673297.360    20673302.161    -4547860.078 9    695745.947 9
  19990520.429    19990522.056    22264469.488 7 -61857782.654 7
  22175800.738    22175803.844    44805320.030 9 -44520888.007 9
 86  6 17  1 33 23.0800000  0  4G 6G13G 9G11
  21852075.873    21852079.138    43824517.029 9 -45098077.097 8
  20672100.396    20672102.449    -4554157.897 8    690838.570 9
  19990596.740    19990597.543    22264874.468 7 -61857467.075 7
  22178695.187    22178698.951    44820537.321 9 -44509030.379 9
 86  6 17  1 33 29.0800000  0  4G 6G13G 9G11
  21855310.920    21855315.065    43841517.164 9 -45084830.253 8
  20670905.035    20670907.761    -4560436.054 9    685946.502 9
  19990678.060    19990680.651    22265304.369 8 -61857132.095 7
  22181592.441    22181595.683    44835761.587 9 -44497167.320 9
 86  6 17  1 33 35.0800000  0  4G 6G13G 9G11
  21858550.429    21858553.508    43858534.910 9 -45071569.672 8
  20669714.253    20669717.694    -4566694.608 9    681069.711 9
  19990765.059    19990768.042    22265759.076 8 -61856777.765 6
  22184491.641    22184495.204    44850992.792 9 -44485298.854 9
 86  6 17  1 33 41.0800000  0  4G 6G13G 9G11
  21861791.633    21861794.658    43875570.168 9 -45058295.459 8
  20668527.048    20668529.845    -4572933.567 9    676208.188 8
  19990856.628    19990858.161    22266238.631 8 -61856404.107 7
  22187391.406    22187394.419    44866230.912 9 -44473424.995 9
 86  6 17  1 33 47.0800000  0  4G 6G13G 9G11
  21865036.618    21865039.671    43892623.017 9 -45045007.535 8
  20667343.506    20667347.291    -4579152.941 9    671361.931 8
  19990952.851    19990953.121    22266743.132 7 -61856010.976 7
  22190292.702    22190294.906    44881475.874 8 -44461545.815 9
 86  6 17  1 33 53.0800000  0  4G 6G13G 9G11
  21868284.919    21868288.366    43909693.363 9 -45031705.979 9
  20666163.398    20666166.296    -4585352.730 9    666530.925 8
  19991053.210    19991055.574    22267272.482 8 -61855598.523 7
  22193195.178    22193197.619    44896727.681 9 -44449661.291 8
 86  6 17  1 33 59.0800000  0  4G 6G13G 9G11
  21871537.280    21871540.330    43926781.212 9 -45018390.785 9
  20664987.927    20664990.295    -4591532.938 8    661715.189 8
  19991159.242    19991160.264    22267826.805 8 -61855166.577 8
  22196097.576    22196100.754    44911986.319 9 -44437771.447 9
 86  6 17  1 34  5.0800000  0  4G 6G13G 9G11
  21874791.931    21874795.163    43943886.559 9 -45005061.948 8
  20663815.603    20663818.086    -4597693.593 8    656914.692 9
  19991268.893    19991270.992    22268406.011 7 -61854715.244 8
  22199003.129    22199006.550    44927251.807 9 -44425876.265 8
 86  6 17  1 34 11.0800000  0  4G 6G13G 9G11
  21878049.566    21878052.942    43961009.398 9 -44991719.485 8
  20662647.859    20662650.327    -4603834.617 8    652129.462 9
  19991383.504    19991385.373    22269010.134 7 -61854244.491 7
  22201909.584    22201912.239    44942524.090 9 -44413975.792 9
 86  6 17  1 34 17.0800000  0  4G 6G13G 9G11
  21881311.886    21881313.502    43978149.669 9 -44978363.427 8
  20661481.116    20661484.829    -4609956.031 9    647359.543 9
  19991503.826    19991505.582    22269639.214 8 -61853754.319 7
  22204817.849    22204820.118    44957803.228 9 -44402069.970 9
 86  6 17  1 34 23.0800000  0  4G 6G13G 9G11
  21884577.340    21884579.575    43995307.394 9 -44964993.778 9
  20660320.412    20660323.710    -4616057.870 9    642604.862 8
  19991628.409    19991628.282    22270293.118 7 -61853244.778 7
  22207725.662    22207728.447    44973089.146 9 -44390158.879 9
 86  6 17  1 34 29.0800000  0  4G 6G13G 9G11
  21887845.524    21887848.775    44012482.509 9 -44951610.586 9
  20659163.972    20659166.541    -4622140.145 9    637865.432 9
  19991757.414    19991760.871    22270972.074 8 -61852715.718 8
  22210635.215    22210638.385    44988381.807 9 -44378242.513 9
 86  6 17  1 34 35.0800000  0  4G 6G13G 9G11
  21891117.385    21891121.212    44029675.062 9 -44938213.802 8
  20658009.535    20658013.606    -4628202.773 9    633141.309 9
  19991891.495    19991893.725    22271675.799 8 -61852167.366 7
  22213546.492    22213549.770    45003681.255 9 -44366320.872 9
 86  6 17  1 34 41.0800000  0  4G 6G13G 9G11
  21894392.448    21894394.958    44046885.029 9 -44924803.457 8
  20656860.163    20656862.045    -4634245.952 9    628432.354 8
  19992030.738    19992031.574    22272404.579 8 -61851599.493 7
  22216460.022    22216462.892    45018987.418 9 -44354393.998 9
 86  6 17  1 34 47.0800000  0  4G 6G13G 9G11
  21897669.994    21897672.682    44064112.391 9 -44911379.547 8
  20655713.425    20655715.993    -4640269.595 9    623738.602 9
  19992174.656    19992175.699    22273158.269 7 -61851012.197 6
  22219374.168    22219377.074    45034300.259 9 -44342461.914 9
 86  6 17  1 34 53.0800000  0  4G 6G13G 9G11
  21900952.233    21900953.899    44081357.096 9 -44897942.120 9
  20654571.265    20654574.879    -4646273.695 9    619060.097 9
  19992322.342    19992324.153    22273936.943 7 -61850405.454 7
  22222288.549    22222291.591    45049619.769 9 -44330524.645 8
 86  6 17  1 34 59.0800000  0  4G 6G13G 9G11
  21904237.166    21904239.014    44098619.147 9 -44884491.180 9
  20653432.254    20653435.065    -4652258.230 9    614396.823 8
  19992475.801    19992476.557    22274740.535 8 -61849779.280 8
  22225204.999    22225208.334    45064945.960 9 -44318582.165 9
 86  6 17  1 35  5.0800000  0  4G 6G13G 9G11
  21907525.189    21907528.000    44115898.525 9 -44871026.733 9
  20652297.248    20652300.104    -4658223.235 8    609748.776 8
  19992633.120    19992633.511    22275569.064 8 -61849133.661 8
  22228123.395    22228126.250    45080278.773 9 -44306634.521 9
 86  6 17  1 35 11.0800000  0  4G 6G13G 9G11
  21910816.268    21910819.740    44133195.245 9 -44857548.772 9
  20651164.676    20651169.148    -4664168.692 8    605115.953 8
  19992794.022    19992795.163    22276422.664 6 -61848468.532 7
  22231041.397    22231044.774    45095618.196 9 -44294681.736 8
 86  6 17  1 35 17.0800000  0  4G 6G13G 9G11
  21914110.583    21914114.568    44150509.299 9 -44844057.335 7
  20650037.054    20650041.039    -4670094.651 9    600498.336 9
  19992961.490    19992964.011    22277301.119 8 -61847784.002 8
  22233961.832    22233964.895    45110964.187 9 -44282723.817 9
 86  6 17  1 35 23.0800000  0  4G 6G13G 9G11
  21917408.541    21917410.682    44167840.612 9 -44830552.423 9
  20648913.696    20648917.253    -4676001.116 9    595895.902 9
  19993134.611    19993135.278    22278204.701 8 -61847079.921 7
  22236884.406    22236887.425    45126316.769 8 -44270760.770 9
 86  6 17  1 35 29.0800000  0  4G 6G13G 9G11
  21920710.821    21920713.062    44185189.213 9 -44817034.020 9
  20647793.144    20647797.674    -4681888.025 8    591308.707 9
  19993312.037    19993311.699    22279133.201 7 -61846356.427 7
  22239805.998    22239810.092    45141675.909 9 -44258792.614 9
 86  6 17  1 35 35.0800000  0  4G 6G13G 9G11
  21924014.241    21924016.761    44202555.108 9 -44803502.176 8
  20646676.856    20646680.526    -4687755.301 8    586736.808 8
  19993491.865    19993493.963    22280086.732 7 -61845613.408 8
  22242730.841    22242733.438    45157041.637 9 -44246819.320 9
 86  6 17  1 35 41.0800000  0  4G 6G13G 9G11
  21927322.812    21927325.001    44219938.218 9 -44789956.898 8
  20645564.460    20645567.643    -4693603.031 9    582180.145 9
  19993677.877    19993679.983    22281065.307 8 -61844850.895 7
  22245655.761    22245659.590    45172413.880 9 -44234840.956 9
 86  6 17  1 35 47.0800000  0  4G 6G13G 9G11
  21930633.834    21930635.868    44237338.590 9 -44776398.176 8
  20644455.039    20644458.953    -4699431.309 9    577638.622 9
  19993869.441    19993869.829    22282068.902 7 -61844068.871 7
  22248582.599    22248585.291    45187792.590 9 -44222857.548 9
 86  6 17  1 35 53.0800000  0  4G 6G13G 9G11
  21933948.494    21933951.162    44254756.208 9 -44762826.028 9
  20643350.227    20643353.911    -4705240.088 9    573112.314 9
  19994065.338    19994067.025    22283097.527 7 -61843267.339 8
  22251509.924    22251513.352    45203177.802 9 -44210869.078 9
 86  6 17  1 35 59.0800000  0  4G 6G13G 9G11
  21937266.131    21937269.188    44272191.042 9 -44749240.449 9
  20642248.676    20642251.960    -4711029.400 9    568601.187 9
  19994265.388    19994267.033    22284151.235 8 -61842446.279 7
  22254439.596    22254442.214    45218569.546 9 -44198875.518 9
 86  6 17  1 36  5.0800000  0  4G 6G13G 9G11
  21940587.888    21940589.947    44289643.000 9 -44735641.524 9
  20641150.074    20641154.088    -4716799.186 9    564105.241 9
  19994470.452    19994472.348    22285230.005 7 -61841605.679 7
  22257369.459    22257372.444    45233967.767 9 -44186876.902 9
 86  6 17  1 36 11.0800000  0  4G 6G13G 9G11
  21943911.183    21943913.554    44307112.154 9 -44722029.206 8
  20640055.793    20640059.277    -4722549.482 9    559624.499 9
  19994681.138    19994681.984    22286333.751 8 -61840745.612 7
  22260300.905    22260302.930    45249372.416 9 -44174873.295 8
 86  6 17  1 36 17.0800000  0  4G 6G13G 9G11
  21947238.990    21947241.364    44324598.483 9 -44708403.498 8
  20638965.490    20638968.732    -4728280.321 8    555158.923 8
  19994895.522    19994896.543    22287462.658 8 -61839865.963 7
  22263233.896    22263236.616    45264783.447 9 -44162864.699 8
 86  6 17  1 36 23.0800000  0  4G 6G13G 9G11
  21950569.716    21950572.817    44342101.957 9 -44694764.448 9
  20637879.250    20637881.719    -4733991.746 9    550708.477 9
  19995116.740    19995116.312    22288616.512 7 -61838966.837 8
  22266166.829    22266170.593    45280200.864 9 -44150851.135 9
 86  6 17  1 36 29.0800000  0  4G 6G13G 9G11
  21953903.802    21953906.690    44359622.558 9 -44681112.048 8
  20636796.332    20636798.599    -4739683.711 9    546273.176 9
  19995339.712    19995340.215    22289795.471 7 -61838048.182 7
  22269102.461    22269105.781    45295624.655 9 -44138832.608 8
 86  6 17  1 36 35.0800000  0  4G 6G13G 9G11
  21957241.108    21957243.461    44377160.294 9 -44667446.287 9
  20635715.987    20635718.927    -4745356.225 9    541853.038 8
  19995568.676    19995570.242    22290999.465 7 -61837110.013 7
  22272038.284    22272041.648    45311054.787 9 -44126809.128 9
 86  6 17  1 36 41.0800000  0  4G 6G13G 9G11
  21960581.583    21960584.808    44394715.129 9 -44653767.201 9
  20634639.364    20634643.749    -4751009.301 9    537448.039 9
  19995802.210    19995803.536    22292228.567 8 -61836152.270 7
  22274975.919    22274978.581    45326491.315 9 -44114780.668 9
 86  6 17  1 36 47.0800000  0  4G 6G13G 9G11
  21963925.562    21963928.952    44412287.012 9 -44640074.830 9
  20633568.349    20633571.219    -4756642.928 9    533058.214 8
  19996039.861    19996043.834    22293482.768 8 -61835174.973 8
  22277914.197    22277917.496    45341934.140 9 -44102747.303 8
 86  6 17  1 36 53.0800000  0  4G 6G13G 9G11
  21967272.743    21967275.475    44429875.990 9 -44626369.151 8
  20632499.510    20632502.450    -4762257.064 9    528683.556 9
  19996284.799    19996285.438    22294762.017 8 -61834178.154 7
  22280854.157    22280858.335    45357383.292 9 -44090708.998 9
 86  6 17  1 36 59.0800000  0  4G 6G13G 9G11
  21970623.069    21970625.716    44447482.032 9 -44612650.161 8
  20631434.534    20631437.789    -4767851.811 8    524324.024 9
  19996532.201    19996534.013    22296066.395 7 -61833161.754 7
  22283795.111    22283798.760    45372838.774 9 -44078665.777 9
 86  6 17  1 37  5.0800000  0  4G 6G13G 9G11
  21973976.779    21973979.092    44465105.082 9 -44598917.933 7
  20630374.195    20630377.207    -4773427.087 8    519979.652 9
  19996786.246    19996788.331    22297395.952 7 -61832125.736 8
  22286737.717    22286740.422    45388300.501 9 -44066617.677 9
 86  6 17  1 37 11.0800000  0  4G 6G13G 9G11
  21977333.311    21977336.125    44482745.195 9 -44585172.405 9
  20629317.718    20629319.815    -4778982.902 8    515650.454 8
  19997043.949    19997043.911    22298750.561 8 -61831070.217 9
  22289681.268    22289684.403    45403768.451 9 -44054564.738 9
 86  6 17  1 37 17.0800000  0  4G 6G13G 9G11
  21980694.695    21980696.006    44500402.271 9 -44571413.652 8
  20628263.646    20628266.257    -4784519.269 9    511336.411 9
  19997306.021    19997307.701    22300130.243 7 -61829995.121 8
  22292626.115    22292629.056    45419242.631 9 -44042506.936 9
 86  6 17  1 37 23.0800000  0  4G 6G13G 9G11
  21984057.598    21984059.847    44518076.336 9 -44557641.660 9
  20627213.924    20627217.337    -4790036.244 9    507037.472 9
  19997573.435    19997574.700    22301535.103 7 -61828900.439 7
  22295571.647    22295574.825    45434723.026 9 -44030444.297 9
 86  6 17  1 37 29.0800000  0  4G 6G13G 9G11
  21987423.306    21987427.204    44535767.363 9 -44543856.464 8
  20626167.407    20626171.078    -4795533.755 9    502753.697 9
  19997846.620    19997848.241    22302965.082 8 -61827786.171 7
  22298518.790    22298522.419    45450209.608 9 -44018376.836 9
 86  6 17  1 37 35.0800000  0  4G 6G13G 9G11
  21990792.491    21990795.842    44553475.381 9 -44530058.033 9
  20625124.638    20625129.655    -4801011.923 9    498484.994 8
  19998122.547    19998124.130    22304420.185 8 -61826652.317 7
  22301466.555    22301470.477    45465702.400 9 -44006304.527 9
 86  6 17  1 37 41.0800000  0  4G 6G13G 9G11
  21994167.136    21994169.076    44571200.364 9 -44516246.356 9
  20624084.876    20624089.505    -4806470.641 9    494231.451 8
  19998404.585    19998405.503    22305900.370 8 -61825498.923 7
  22304416.088    22304419.115    45481201.338 9 -43994227.433 8
 86  6 17  1 37 47.0800000  0  4G 6G13G 9G11
  21997543.744    21997544.726    44588942.234 9 -44502421.531 9
  20623050.006    20623053.905    -4811910.000 9    489992.997 8
  19998689.574    19998693.615    22307405.830 7 -61824325.851 7
  22307367.022    22307369.684    45496706.454 9 -43982145.537 9
 86  6 17  1 37 53.0800000  0  4G 6G13G 9G11
  22000922.712    22000923.634    44606700.995 9 -44488583.529 9
  20622017.856    20622022.771    -4817329.998 9    485769.631 9
  19998981.611    19998984.861    22308936.352 8 -61823133.240 7
  22310318.429    22310321.198    45512217.661 9 -43970058.882 9
 86  6 17  1 37 59.0800000  0  4G 6G13G 9G11
  22004304.247    22004307.519    44624476.713 9 -44474732.334 9
  20620991.086    20620994.541    -4822730.632 9    481561.344 8
  19999279.769    19999279.562    22310492.044 8 -61821921.019 7
  22313270.937    22313273.779    45527734.984 9 -43957967.470 9
 86  6 17  1 38  5.0800000  0  4G 6G13G 9G11
  22007689.973    22007693.013    44642269.282 9 -44460868.014 8
  20619968.093    20619971.935    -4828111.921 8    477368.144 9
  19999579.306    19999581.158    22312072.902 8 -61820689.167 7
  22316224.062    22316228.012    45543258.370 9 -43945871.328 9
 86  6 17  1 38 11.0800000  0  4G 6G13G 9G11
  22011079.488    22011081.659    44660078.716 9 -44446990.549 8
  20618946.989    20618951.003    -4833473.790 9    473190.074 9
  19999885.648    19999887.145    22313678.869 8 -61819437.775 8
  22319180.026    22319183.740    45558787.861 9 -43933770.428 9
 86  6 17  1 38 17.0800000  0  4G 6G13G 9G11
  22014471.594    22014473.542    44677905.031 9 -44433099.922 8
  20617930.522    20617933.977    -4838816.247 9    469027.126 8
  20000195.696    20000195.727    22315310.060 7 -61818166.713 7
  22322135.562    22322140.048    45574323.382 9 -43921664.833 9
 86  6 17  1 38 23.0800000  0  4G 6G13G 9G11
  22017866.571    22017869.328    44695748.165 9 -44419196.193 9
  20616917.717    20616921.458    -4844139.283 9    464879.306 9
  20000511.429    20000512.132    22316966.481 8 -61816875.992 8
  22325093.371    22325097.744    45589864.941 9 -43909554.531 9
 86  6 17  1 38 29.0800000  0  4G 6G13G 9G11
  22021265.291    22021267.411    44713608.100 9 -44405279.373 9
  20615908.805    20615911.988    -4849442.921 8    460746.610 9
  20000830.706    20000831.284    22318648.082 9 -61815565.666 7
  22328051.825    22328056.763    45605412.528 9 -43897439.527 9
 86  6 17  1 38 35.0800000  0  4G 6G13G 9G11
  22024667.180    22024670.026    44731484.866 9 -44391349.437 9
  20614902.296    20614906.782    -4854727.163 9    456629.020 9
  20001155.822    20001157.036    22320354.794 8 -61814235.747 7
  22331012.662    22331015.925    45620966.111 9 -43885319.868 8
 86  6 17  1 38 41.0800000  0  4G 6G13G 9G11
  22028072.807    22028074.644    44749378.422 9 -44377406.424 8
  20613902.485    20613905.310    -4859992.040 9    452526.526 9
  20001485.838    20001486.827    22322086.794 8 -61812886.144 7
  22333972.805    22333976.841    45636525.646 9 -43873195.559 9
 86  6 17  1 38 47.0800000  0  4G 6G13G 9G11
  22031481.023    22031483.784    44767288.729 9 -44363450.345 9
  20612903.416    20612906.057    -4865237.611 9    448439.079 8
  20001820.248    20001820.743    22323843.995 7 -61811516.901 6
  22336934.858    22336938.299    45652091.101 9 -43861066.635 9
 86  6 17  1 38 53.0800000  0  4G 6G13G 9G11
  22034892.611    22034895.085    44785215.830 9 -44349481.198 9
  20611909.872    20611912.140    -4870463.918 9    444366.632 9
  20002158.248    20002160.129    22325626.359 8 -61810128.048 7
  22339897.662    22339902.120    45667662.519 9 -43848933.061 9
 86  6 17  1 38 59.0800000  0  4G 6G13G 9G11
  22038306.490    22038308.471    44803159.624 9 -44335499.036 7
  20610918.760    20610920.685    -4875670.909 9    440309.234 9
  20002503.129    20002504.398    22327434.024 8 -61808719.480 8
  22342862.655    22342866.555    45683239.877 9 -43836794.879 9
 86  6 17  1 39  5.0800000  0  4G 6G13G 9G11
  22041723.630    22041727.434    44821120.158 9 -44321503.824 8
  20609931.998    20609934.524    -4880858.568 8    436266.914 9
  20002852.435    20002852.090    22329266.791 8 -61807291.345 8
  22345828.343    22345831.305    45698823.104 9 -43824652.094 9
 86  6 17  1 39 11.0800000  0  4G 6G13G 9G11
  22045144.901    22045148.291    44839097.382 9 -44307495.605 8
  20608947.069    20608950.367    -4886026.878 8    432239.653 8
  20003205.142    20003205.445    22331124.811 8 -61805843.551 7
  22348794.445    22348798.395    45714412.243 9 -43812504.726 8
 86  6 17  1 39 17.0800000  0  4G 6G13G 9G11
  22048568.829    22048572.774    44857091.340 9 -44293474.349 8
  20607967.776    20607970.430    -4891175.831 9    428227.500 9
  20003563.051    20003564.205    22333008.077 7 -61804376.052 6
  22351762.773    22351766.272    45730007.266 9 -43800352.761 9
 86  6 17  1 39 23.0800000  0  4G 6G13G 9G11
  22051995.645    22051999.424    44875101.968 9 -44279440.110 9
  20606991.374    20606995.259    -4896305.457 9    424230.385 9
  20003926.505    20003926.846    22334916.662 7 -61802888.847 7
  22354730.070    22354734.392    45745608.177 9 -43788196.214 9
 86  6 17  1 39 29.0800000  0  4G 6G13G 9G11
  22055427.991    22055429.846    44893129.252 9 -44265392.883 9
  20606018.149    20606022.363    -4901415.855 9    420248.259 9
  20004293.604    20004296.120    22336850.395 8 -61801382.045 7
  22357701.724    22357703.492    45761214.911 9 -43776035.126 9
 86  6 17  1 39 35.0800000  0  4G 6G13G 9G11
  22058861.045    22058863.591    44911173.160 9 -44251332.699 9
  20605049.960    20605052.815    -4906506.954 9    416281.177 9
  20004667.532    20004668.739    22338809.414 7 -61799855.551 7
  22360672.298    22360675.819    45776827.426 9 -43763869.528 9
 86  6 17  1 39 41.0800000  0  4G 6G13G 9G11
  22062298.202    22062300.412    44929233.715 9 -44237259.544 8
  20604084.949    20604088.147    -4911578.747 9    412329.139 9
  20005044.464    20005046.241    22340793.699 8 -61798309.350 7
  22363644.224    22363647.087    45792445.691 9 -43751699.457 9
 86  6 17  1 39 47.0800000  0  4G 6G13G 9G11
  22065737.382    22065741.029    44947310.874 8 -44223173.480 9
  20603123.114    20603126.154    -4916631.259 8    408392.115 9
  20005426.871    20005428.146    22342803.188 8 -61796743.517 7
  22366616.808    22366620.372    45808069.732 9 -43739524.885 9
 86  6 17  1 39 53.0800000  0  4G 6G13G 9G11
  22069180.405    22069184.339    44965404.647 9 -44209074.447 8
  20602164.683    20602168.140    -4921664.514 9    404470.093 8
  20005814.145    20005815.511    22344837.990 7 -61795157.943 8
  22369591.775    22369594.917    45823699.532 9 -43727345.819 9
 86  6 17  1 39 59.0800000  0  4G 6G13G 9G11
  22072627.386    22072630.229    44983514.993 9 -44194962.501 9
  20601210.346    20601213.359    -4926678.518 9    400563.086 9
  20006206.088    20006207.468    22346897.994 8 -61793552.753 8
  22372567.315    22372570.099    45839335.073 9 -43715162.285 9
 86  6 17  1 40  5.0800000  0  4G 6G13G 9G11
  22076076.667    22076078.791    45001641.885 9 -44180837.646 8
  20600260.273    20600263.858    -4931673.228 9    396671.118 9
  20006603.193    20006603.947    22348983.296 9 -61791927.866 8
  22375543.591    22375546.719    45854976.313 9 -43702974.306 9
 86  6 17  1 40 11.0800000  0  4G 6G13G 9G11
  22079528.634    22079531.030    45019785.327 9 -44166699.909 9
  20599312.433    20599316.418    -4936648.719 9    392794.107 9
  20007004.849    20007005.849    22351093.845 8 -61790283.269 7
  22378520.776    22378524.662    45870623.271 9 -43690781.879 9
 86  6 17  1 40 17.0800000  0  4G 6G13G 9G11
  22082984.723    22082987.097    45037945.311 9 -44152549.289 9
  20598370.373    20598374.358    -4941604.924 9    388932.141 9
  20007410.976    20007411.895    22353229.671 8 -61788618.994 8
  22381499.098    22381502.533    45886275.928 9 -43678585.007 9
 86  6 17  1 40 23.0800000  0  4G 6G13G 9G11
  22086443.910    22086446.949    45056121.814 9 -44138385.788 8
  20597430.889    20597435.060    -4946541.855 9    385085.185 9
  20007821.453    20007824.191    22355390.766 8 -61786935.024 8
  22384478.723    22384482.495    45901934.232 9 -43666383.736 9
 86  6 17  1 40 29.0800000  0  4G 6G13G 9G11
  22089904.839    22089908.787    45074314.811 9 -44124209.456 9
  20596494.609    20596499.281    -4951459.504 9    381253.263 9
  20008238.634    20008240.501    22357577.118 8 -61785231.376 8
  22387459.972    22387463.464    45917598.217 9 -43654178.034 9
 86  6 17  1 40 35.0800000  0  4G 6G13G 9G11
  22093370.600    22093373.721    45092524.293 9 -44110020.248 9
  20595562.938    20595566.637    -4956358.005 9    377436.245 9
  20008659.332    20008661.080    22359788.877 9 -61783507.922 7
  22390442.079    22390445.157    45933267.807 9 -43641967.966 9
 86  6 17  1 40 41.0800000  0  4G 6G13G 9G11
  22096839.523    22096841.858    45110750.214 9 -44095818.253 8
  20594635.016    20594637.871    -4961237.316 9    373634.188 8
  20009085.088    20009086.142    22362025.795 8 -61781764.889 6
  22393424.629    22393427.307    45948943.028 9 -43629753.518 9
 86  6 17  1 40 47.0800000  0  4G 6G13G 9G11
  22100310.598    22100312.782    45128992.611 8 -44081603.402 8
  20593709.411    20593712.953    -4966097.389 9    369847.121 8
  20009516.593    20009516.519    22364288.030 7 -61780002.101 7
  22396408.232    22396411.174    45964623.811 9 -43617534.730 9
 86  6 17  1 40 53.0800000  0  4G 6G13G 9G11
  22103785.049    22103787.661    45147251.421 9 -44067375.768 9
  20592787.928    20592792.300    -4970938.303 8    366074.988 9
  20009951.331    20009952.794    22366575.617 9 -61778219.561 8
  22399394.189    22399397.331    45980310.209 9 -43605311.569 9
 86  6 17  1 40 59.0800000  0  4G 6G13G 9G11
  22107262.927    22107265.589    45165526.698 9 -44053135.304 8
  20591872.484    20591874.366    -4975760.004 9    362317.823 9
  20010390.952    20010393.019    22368888.492 7 -61776417.318 8
  22402380.116    22402382.579    45996002.106 9 -43593084.121 9
 86  6 17  1 41  5.0800000  0  4G 6G13G 9G11
  22110743.204    22110745.529    45183818.373 9 -44038882.059 8
  20590958.641    20590960.638    -4980562.499 9    358575.610 9
  20010835.553    20010835.662    22371226.792 8 -61774595.255 7
  22405366.717    22405369.594    46011699.538 9 -43580852.363 9
 86  6 17  1 41 11.0800000  0  4G 6G13G 9G11
  22114228.079    22114230.193    45202126.400 9 -44024616.076 8
  20590048.119    20590051.446    -4985345.842 9    354848.335 9
  20011287.524    20011287.332    22373590.378 8 -61772753.501 8
  22408355.335    22408358.276    46027402.503 9 -43568616.280 9
 86  6 17  1 41 17.0800000  0  4G 6G13G 9G11
  22117715.023    22117716.853    45220450.806 9 -44010337.329 8
  20589141.889    20589145.159    -4990109.944 9    351136.045 9
  20011740.674    20011741.621    22375979.345 8 -61770891.982 7
  22411343.917    22411347.374    46043111.014 9 -43556375.892 9
 86  6 17  1 41 23.0800000  0  4G 6G13G 9G11
  22121205.181    22121206.560    45238791.545 9 -43996045.860 9
  20588238.635    20588241.977    -4994854.787 9    347438.781 9
  20012200.178    20012201.332    22378393.508 8 -61769010.805 7
  22414333.951    22414336.921    46058825.022 9 -43544131.226 9
 86  6 17  1 41 29.0800000  0  4G 6G13G 9G11
  22124698.213    22124700.501    45257148.650 9 -43981741.638 9
  20587339.045    20587341.829    -4999580.397 9    343756.486 9
  20012664.808    20012665.609    22380833.143 8 -61767109.800 8
  22417325.488    22417329.081    46074544.554 9 -43531882.236 9
 86  6 17  1 41 35.0800000  0  4G 6G13G 9G11
  22128195.533    22128197.620    45275522.121 9 -43967424.651 8
  20586443.433    20586446.446    -5004286.910 9    340089.074 9
  20013133.317    20013134.388    22383298.038 7 -61765189.109 7
  22420318.263    22420320.710    46090269.570 9 -43519628.985 9
 86  6 17  1 41 41.0800000  0  4G 6G13G 9G11
  22131694.571    22131696.726    45293911.852 9 -43953094.994 7
  20585551.771    20585554.368    -5008974.306 9    336436.574 9
  20013607.027    20013608.364    22385788.225 7 -61763248.697 8
  22423311.517    22423314.136    46105999.972 9 -43507371.539 9
 86  6 17  1 41 47.0800000  0  4G 6G13G 9G11
  22135196.913    22135198.822    45312317.811 9 -43938752.704 8
  20584662.769    20584665.767    -5013642.575 9    332798.961 9
  20014085.866    20014086.251    22388303.741 7 -61761288.568 7
  22426305.945    22426309.508    46121735.785 9 -43495109.872 9
 86  6 17  1 41 53.0800000  0  4G 6G13G 9G11
  22138702.705    22138704.528    45330740.127 9 -43924397.664 9
  20583778.748    20583781.115    -5018291.704 9    329176.262 9
  20014568.912    20014569.344    22390844.708 7 -61759308.584 7
  22429300.479    22429304.316    46137476.964 9 -43482844.031 9
 86  6 17  1 41 59.0800000  0  4G 6G13G 9G11
  22142210.997    22142213.782    45349178.666 9 -43910029.983 9
  20582897.788    20582899.727    -5022921.675 9    325568.490 9
  20015057.790    20015058.801    22393411.048 8 -61757308.847 7
  22432297.826    22432300.473    46153223.488 9 -43470574.013 9
 86  6 17  1 42  5.0800000  0  4G 6G13G 9G11
  22145723.181    22145725.143    45367633.449 9 -43895649.647 9
  20582018.431    20582022.473    -5027532.471 9    321975.674 8
  20015552.283    20015552.746    22396002.722 8 -61755289.361 7
  22435295.187    22435299.166    46168975.357 9 -43458299.826 9
 86  6 17  1 42 11.0800000  0  4G 6G13G 9G11
  22149237.629    22149240.862    45386104.459 9 -43881256.665 8
  20581145.084    20581148.711    -5032124.238 9    318397.670 9
  20016048.003    20016051.368    22398619.721 7 -61753250.136 8
  22438293.792    22438297.492    46184732.573 9 -43446021.484 9
 86  6 17  1 42 17.0800000  0  4G 6G13G 9G11
  22152755.555    22152757.729    45404591.661 9 -43866851.075 8
  20580275.085    20580278.955    -5036696.966 8    314834.506 9
  20016552.224    20016552.108    22401262.124 7 -61751191.124 8
  22441293.485    22441296.134    46200495.156 9 -43433738.960 9
 86  6 17  1 42 23.0800000  0  4G 6G13G 9G11
  22156276.554    22156280.248    45423095.039 9 -43852432.870 9
  20579408.778    20579412.320    -5041250.547 8    311286.274 8
  20017058.733    20017061.018    22403929.813 8 -61749112.416 8
  22444293.923    22444296.163    46216262.993 9 -43421452.334 9
 86  6 17  1 42 29.0800000  0  4G 6G13G 9G11
  22159800.561    22159803.407    45441614.612 9 -43838002.052 9
  20578546.334    20578549.804    -5045784.949 9    307752.989 9
  20017571.032    20017573.273    22406622.974 7 -61747013.857 7
  22447296.235    22447298.905    46232036.108 9 -43409161.596 9
 86  6 17  1 42 35.0800000  0  4G 6G13G 9G11
  22163329.286    22163331.349    45460150.293 9 -43823558.670 8
  20577686.924    20577689.220    -5050300.281 9    304234.543 9
  20018089.224    20018089.638    22409341.428 8 -61744895.574 6
  22450297.810    22450301.610    46247814.494 9 -43396866.756 8
 86  6 17  1 42 41.0800000  0  4G 6G13G 9G11
  22166857.973    22166861.348    45478702.106 9 -43809102.721 9
  20576831.349    20576834.189    -5054796.555 8    300730.957 9
  20018610.784    20018612.821    22412085.288 8 -61742757.496 7
  22453302.375    22453304.794    46263598.136 9 -43384567.818 9
 86  6 17  1 42 47.0800000  0  4G 6G13G 9G11
  22170391.553    22170394.638    45497270.060 9 -43794634.194 9
  20575979.122    20575982.449    -5059273.806 9    297242.193 9
  20019137.170    20019138.742    22414854.480 7 -61740599.685 8
  22456306.211    22456309.396    46279387.059 9 -43372264.767 9
 86  6 17  1 42 53.0800000  0  4G 6G13G 9G11
  22173928.635    22173930.687    45515854.095 9 -43780153.144 9
  20575131.704    20575133.871    -5063731.947 9    293768.320 8
  20019670.116    20019670.476    22417649.204 8 -61738421.994 8
  22459312.265    22459315.214    46295181.181 9 -43359957.657 9
 86  6 17  1 42 59.0800000  0  4G 6G13G 9G11
  22177467.716    22177469.800    45534454.257 9 -43765659.522 8
  20574285.858    20574289.057    -5068171.071 9    290309.267 8
  20020206.711    20020208.451    22420469.132 9 -61736224.647 8
  22462318.333    22462321.661    46310980.496 9 -43347646.511 9
 86  6 17  1 43  5.0800000  0  4G 6G13G 9G11
  22181010.465    22181013.269    45553070.449 9 -43751153.411 9
  20573444.821    20573448.392    -5072591.070 8    286865.115 8
  20020748.528    20020749.496    22423314.544 8 -61734007.443 8
  22465325.839    22465329.782    46326785.001 9 -43335331.313 9
 86  6 17  1 43 11.0800000  0  4G 6G13G 9G11
  22184555.381    22184559.029    45571702.714 9 -43736634.777 8
  20572608.192    20572609.716    -5076992.046 9    283435.785 9
  20021293.962    20021296.744    22426185.319 8 -61731770.485 8
  22468335.026    22468337.102    46342594.677 9 -43323012.094 9
 86  6 17  1 43 17.0800000  0  4G 6G13G 9G11
  22188104.329    22188106.875    45590351.045 9 -43722103.625 8
  20571773.479    20571775.819    -5081373.994 9    280021.284 9
  20021845.729    20021847.540    22429081.522 8 -61729513.713 7
  22471343.748    22471346.568    46358409.526 9 -43310688.834 9
 86  6 17  1 43 23.0800000  0  4G 6G13G 9G11
  22191656.533    22191658.746    45609015.361 9 -43707560.014 9
  20570943.089    20570946.444    -5085736.855 9    276621.652 9
  20022401.513    20022403.238    22432003.157 7 -61727237.094 7
  22474354.388    22474357.244    46374229.496 9 -43298361.588 9
 86  6 17  1 43 29.0800000  0  4G 6G13G 9G11
  22195211.120    22195213.211    45627695.673 9 -43693003.939 9
  20570117.792    20570119.129    -5090080.605 9    273236.908 9
  20022962.416    20022962.610    22434950.133 7 -61724940.763 8
  22477365.807    22477368.785    46390054.552 9 -43286030.380 9
 86  6 17  1 43 35.0800000  0  4G 6G13G 9G11
  22198768.853    22198770.654    45646391.992 9 -43678435.388 9
  20569294.040    20569296.337    -5094405.335 9    269867.000 9
  20023527.835    20023529.340    22437922.528 8 -61722624.613 7
  22480377.170    22480381.134    46405884.735 9 -43273695.177 9
 86  6 17  1 43 41.0800000  0  4G 6G13G 9G11
  22202329.870    22202332.030    45665104.290 9 -43663854.395 8
  20568475.067    20568478.367    -5098711.107 9    266511.851 9
  20024097.528    20024100.101    22440920.413 8 -61720288.606 7
  22483390.557    22483393.878    46421720.006 9 -43261356.009 9
 86  6 17  1 43 47.0800000  0  4G 6G13G 9G11
  22205893.582    22205896.150    45683832.460 9 -43649261.023 8
  20567659.616    20567661.369    -5102997.924 9    263171.478 9
  20024672.964    20024673.979    22443943.611 8 -61717932.871 7
  22486404.345    22486409.247    46437560.307 9 -43249012.933 9
 86  6 17  1 43 53.0800000  0  4G 6G13G 9G11
  22209460.775    22209463.410    45702576.614 9 -43634655.209 8
  20566846.768    20566849.723    -5107265.635 9    259845.984 8
  20025253.682    20025254.582    22446992.337 7 -61715557.243 8
  22489420.186    22489424.387    46453405.608 8 -43236665.948 9
 86  6 17  1 43 59.0800000  0  4G 6G13G 9G11
  22213030.360    22213033.392    45721336.691 9 -43620036.988 9
  20566038.413    20566041.941    -5111514.368 9    256535.289 9
  20025838.520    20025840.726    22450066.492 7 -61713161.800 7
  22492436.636    22492441.344    46469255.947 9 -43224315.047 9
 86  6 17  1 44  5.0800000  0  4G 6G13G 9G11
  22216603.190    22216606.168    45740112.625 9 -43605406.400 8
  20565234.523    20565235.617    -5115744.093 9    253239.408 9
  20026427.675    20026429.646    22453165.980 7 -61710746.622 7
  22495453.593    22495457.335    46485111.245 9 -43211960.268 9
 86  6 17  1 44 11.0800000  0  4G 6G13G 9G11
  22220179.097    22220180.369    45758904.491 9 -43590763.402 9
  20564432.435    20564435.490    -5119954.866 9    249958.291 9
  20027022.814    20027025.088    22456290.903 8 -61708311.623 7
  22498471.923    22498475.337    46500971.527 9 -43199601.618 8
 86  6 17  1 44 17.0800000  0  4G 6G13G 9G11
  22223759.464    22223760.518    45777712.164 9 -43576108.077 8
  20563634.298    20563638.025    -5124146.606 9    246691.998 9
  20027623.334    20027624.077    22459441.216 8 -61705856.840 8
  22501490.584    22501495.006    46516836.805 9 -43187239.071 9
 86  6 17  1 44 23.0800000  0  4G 6G13G 9G11
  22227340.876    22227342.671    45796535.713 9 -43561440.385 8
  20562840.395    20562843.994    -5128319.417 9    243440.457 8
  20028227.189    20028228.537    22462617.117 8 -61703382.114 7
  22504510.059    22504514.933    46532707.047 9 -43174872.650 9
 86  6 17  1 44 29.0800000  0  4G 6G13G 9G11
  22230926.091    22230928.504    45815375.133 9 -43546760.331 9
  20562050.871    20562052.237    -5132473.261 9    240203.697 9
  20028836.075    20028837.700    22465818.249 8 -61700887.743 7
  22507531.903    22507535.581    46548582.243 9 -43162502.364 9
 86  6 17  1 44 35.0800000  0  4G 6G13G 9G11
  22234513.838    22234515.601    45834230.338 9 -43532067.981 9
  20561262.034    20561265.618    -5136608.180 9    236981.685 9
  20029451.019    20029452.298    22469044.927 8 -61698373.442 7
  22510553.747    22510557.540    46564462.389 9 -43150128.235 9
 86  6 17  1 44 41.0800000  0  4G 6G13G 9G11
  22238104.662    22238107.147    45853101.334 9 -43517363.327 9
  20560478.577    20560482.891    -5140724.192 9    233774.414 8
  20030068.747    20030070.459    22472297.037 9 -61695839.323 7
  22513577.072    22513579.898    46580347.465 9 -43137750.269 9
 86  6 17  1 44 47.0800000  0  4G 6G13G 9G11
  22241698.885    22241700.425    45871988.169 9 -43502646.327 8
  20559699.042    20559703.398    -5144821.210 9    230581.923 9
  20030691.808    20030694.283    22475574.647 8 -61693285.345 8
  22516599.832    22516603.703    46596237.401 9 -43125368.505 9
 86  6 17  1 44 53.0800000  0  4G 6G13G 9G11
  22245296.466    22245297.681    45890890.684 9 -43487917.112 9
  20558923.455    20558927.082    -5148899.300 8    227404.204 9
  20031322.186    20031322.467    22478877.613 9 -61690711.622 7
  22519624.780    22519628.660    46612132.267 9 -43112982.892 9
 86  6 17  1 44 59.0800000  0  4G 6G13G 9G11
  22248896.408    22248898.942    45909808.945 9 -43473175.618 9
  20558151.273    20558154.600    -5152958.403 9    224241.276 9
  20031954.084    20031956.389    22482206.069 8 -61688118.031 8
  22522650.180    22522654.510    46628031.958 9 -43100593.522 9
 86  6 17  1 45  5.0800000  0  4G 6G13G 9G11
  22252498.769    22252500.939    45928742.972 9 -43458421.848 9
  20557382.527    20557385.753    -5156998.571 9    221093.100 8
  20032592.756    20032593.334    22485559.968 8 -61685504.603 8
  22525676.725    22525680.653    46643936.436 9 -43088200.425 9
 86  6 17  1 45 11.0800000  0  4G 6G13G 9G11
  22256104.167    22256107.535    45947692.694 9 -43443655.848 8
  20556617.729    20556621.127    -5161019.863 9    217959.623 9
  20033235.508    20033236.755    22488939.368 8 -61682871.307 8
  22528704.728    22528708.257    46659845.764 8 -43075803.554 8
 86  6 17  1 45 17.0800000  0  4G 6G13G 9G11
  22259713.404    22259715.838    45966658.114 9 -43428877.611 8
  20555857.425    20555858.676    -5165022.281 8    214840.865 9
  20033884.712    20033884.675    22492344.185 7 -61680218.199 7
  22531734.235    22531736.447    46675759.893 9 -43063402.935 9
 86  6 17  1 45 23.0800000  0  4G 6G13G 9G11
  22263325.580    22263327.979    45985639.225 8 -43414087.148 9
  20555098.579    20555100.389    -5169005.770 9    211736.850 8
  20034537.004    20034536.119    22495774.451 8 -61677545.267 7
  22534762.511    22534766.053    46691678.803 9 -43050998.596 9
 86  6 17  1 45 29.0800000  0  4G 6G13G 9G11
  22266940.572    22266943.336    46004636.013 9 -43399284.473 8
  20554344.198    20554345.736    -5172970.386 9    208647.548 8
  20035194.869    20035194.382    22499230.212 7 -61674852.465 8
  22537793.219    22537796.411    46707602.512 9 -43038590.517 9
 86  6 17  1 45 35.0800000  0  4G 6G13G 9G11
  22270558.333    22270560.768    46023648.418 9 -43384469.622 8
  20553592.880    20553594.061    -5176916.123 9    205572.945 8
  20035856.648    20035858.936    22502711.408 8 -61672139.862 7
  22540823.412    22540827.592    46723530.912 9 -43026178.786 8
 86  6 17  1 45 41.0800000  0  4G 6G13G 9G11
  22274179.546    22274183.669    46042676.453 9 -43369642.605 9
  20552846.141    20552848.337    -5180843.020 9    202513.034 9
  20036524.036    20036524.868    22506218.106 8 -61669407.370 7
  22543856.647    22543858.536    46739464.022 9 -43013763.370 9
 86  6 17  1 45 47.0800000  0  4G 6G13G 9G11
  22277802.766    22277806.005    46061720.097 8 -43354803.432 8
  20552102.807    20552104.117    -5184751.094 9    199467.793 8
  20037196.454    20037196.828    22509750.255 8 -61666655.044 7
  22546889.108    22546892.264    46755401.806 9 -43001344.322 9
 86  6 17  1 45 53.0800000  0  4G 6G13G 9G11
  22281430.880    22281433.011    46080779.338 9 -43339952.101 8
  20551361.992    20551364.188    -5188640.290 9    196437.249 9
  20037872.825    20037874.869    22513307.902 8 -61663882.852 7
  22549922.814    22549926.256    46771344.330 9 -42988921.588 9
 86  6 17  1 45 59.0800000  0  4G 6G13G 9G11
  22285060.853    22285062.734    46099854.169 9 -43325088.585 8
  20550624.896    20550626.878    -5192510.662 9    193421.379 9
  20038555.008    20038556.538    22516891.078 7 -61661090.776 8
  22552957.350    22552960.770    46787291.501 9 -42976495.218 9
 86  6 17  1 46  5.0800000  0  4G 6G13G 9G11
  22288692.720    22288693.484    46118944.513 9 -43310212.992 8
  20549891.636    20549894.735    -5196362.205 9    190420.176 8
  20039240.977    20039243.463    22520499.795 8 -61658278.797 7
  22555993.617    22555995.914    46803243.372 9 -42964065.188 9
 86  6 17  1 46 11.0800000  0  4G 6G13G 9G11
  22292327.247    22292332.115    46138050.477 9 -43295325.253 8
  20549162.698    20549165.710    -5200194.960 9    187433.611 8
  20039931.771    20039934.531    22524133.895 8 -61655447.025 7
  22559029.756    22559033.085    46819199.868 9 -42951631.567 9
 86  6 17  1 46 17.0800000  0  4G 6G13G 9G11
  22295966.712    22295969.754    46157171.885 9 -43280425.470 8
  20548436.248    20548440.678    -5204008.936 9    184461.694 8
  20040628.904    20040630.574    22527793.404 8 -61652595.481 7
  22562066.861    22562069.816    46835160.938 9 -42939194.378 9
 86  6 17  1 46 23.0800000  0  4G 6G13G 9G11
  22299609.102    22299612.117    46176308.776 9 -43265513.621 8
  20547714.893    20547716.346    -5207804.025 9    181504.468 9
  20041329.840    20041332.461    22531478.438 7 -61649724.019 7
  22565104.989    22565109.318    46851126.589 9 -42926753.606 8
 86  6 17  1 46 29.0800000  0  4G 6G13G 9G11
  22303253.492    22303254.744    46195461.162 9 -43250589.698 8
  20546996.028    20546999.184    -5211580.332 9    178561.905 8
  20042037.033    20042037.564    22535188.975 7 -61646832.689 7
  22568143.674    22568147.511    46867096.824 9 -42914309.282 9
 86  6 17  1 46 35.0800000  0  4G 6G13G 9G11
  22306901.067    22306904.458    46214629.027 9 -43235653.716 7
  20546281.085    20546283.982    -5215337.889 9    175633.941 9
  20042746.783    20042750.305    22538924.947 8 -61643921.560 7
  22571183.505    22571187.999    46883071.612 9 -42901861.397 9
 86  6 17  1 46 41.0800000  0  4G 6G13G 9G11
  22310551.103    22310554.975    46233812.351 8 -43220705.696 9
  20545569.431    20545572.056    -5219076.670 8    172720.602 8
  20043463.781    20043465.343    22542686.417 8 -61640990.542 8
  22574224.308    22574228.659    46899050.961 9 -42889409.956 8
 86  6 17  1 46 47.0800000  0  4G 6G13G 9G11
  22314204.854    22314206.857    46253011.143 9 -43205745.603 8
  20544862.013    20544864.611    -5222796.715 9    169821.875 9
  20044184.922    20044186.312    22546473.356 8 -61638039.684 7
  22577266.571    22577269.871    46915034.869 9 -42876954.978 9
 86  6 17  1 46 53.0800000  0  4G 6G13G 9G11
  22317861.536    22317863.963    46272225.226 9 -43190773.610 8
  20544157.314    20544160.312    -5226497.991 9    166937.763 9
  20044909.914    20044911.370    22550285.819 8 -61635068.934 8
  22580308.419    22580311.647    46931023.327 9 -42864496.440 8
 86  6 17  1 46 59.0800000  0  4G 6G13G 9G11
  22321520.976    22321521.490    46291454.744 9 -43175789.568 9
  20543456.736    20543459.506    -5230180.496 9    164068.291 9
  20045639.852    20045642.616    22554123.713 9 -61632078.369 8
  22583352.149    22583355.334    46947016.277 9 -42852034.406 9
 86  6 17  1 47  5.0800000  0  4G 6G13G 9G11
  22325182.430    22325185.212    46310699.621 9 -43160793.553 8
  20542759.306    20542761.904    -5233844.212 9    161213.453 8
  20046376.346    20046378.423    22557987.097 8 -61629067.951 7
  22586396.036    22586399.651    46963013.739 9 -42839568.859 9
 86  6 17  1 47 11.0800000  0  4G 6G13G 9G11
  22328847.140    22328850.047    46329959.988 9 -43145785.497 8
  20542067.143    20542068.352    -5237489.153 9    158373.231 9
  20047115.541    20047117.014    22561876.032 8 -61626037.612 8
  22589441.333    22589444.232    46979015.709 9 -42827099.802 9
 86  6 17  1 47 17.0800000  0  4G 6G13G 9G11
  22332515.423    22332518.752    46349235.686 9 -43130765.508 9
  20541376.094    20541379.551    -5241115.366 9    155547.617 9
  20047861.984    20047861.611    22565790.469 8 -61622987.401 7
  22592487.259    22592490.594    46995022.110 9 -42814627.283 9
 86  6 17  1 47 23.0800000  0  4G 6G13G 9G11
  22336187.580    22336191.310    46368526.659 9 -43115733.596 9
  20540688.394    20540693.339    -5244722.843 9    152736.597 8
  20048610.534    20048612.239    22569730.432 8 -61619917.308 7
  22595533.886    22595538.137    47011032.918 8 -42802151.323 9
 86  6 17  1 47 29.0800000  0  4G 6G13G 9G11
  22339860.772    22339863.789    46387832.954 9 -43100689.745 8
  20540006.705    20540008.687    -5248311.628 9    149940.149 9
  20049363.855    20049365.883    22573695.857 7 -61616827.361 8
  22598581.651    22598584.900    47027048.172 9 -42789671.917 9
 86  6 17  1 47 35.0800000  0  4G 6G13G 9G11
  22343537.436    22343539.796    46407154.505 9 -43085633.991 8
  20539327.677    20539329.043    -5251881.654 9    147158.315 9
  20050123.477    20050125.335    22577686.832 8 -61613717.526 8
  22601629.008    22601633.159    47043067.834 9 -42777189.075 8
 86  6 17  1 47 41.0800000  0  4G 6G13G 9G11
  22347216.641    22347218.671    46426491.388 9 -43070566.307 8
  20538651.224    20538654.708    -5255433.009 8    144391.026 9
  20050888.110    20050890.645    22581703.294 8 -61610587.816 7
  22604678.870    22604682.691    47059091.889 9 -42764702.803 9
 86  6 17  1 47 47.0800000  0  4G 6G13G 9G11
  22350899.362    22350901.853    46445843.469 9 -43055486.756 8
  20537978.119    20537981.761    -5258965.644 9    141638.331 9
  20051657.337    20051659.128    22585745.288 8 -61607438.200 7
  22607729.310    22607731.987    47075120.257 9 -42752213.166 9
 86  6 17  1 47 53.0800000  0  4G 6G13G 9G11
  22354585.825    22354588.306    46465210.812 9 -43040395.344 9
  20537310.825    20537313.937    -5262479.635 9    138900.151 9
  20052432.770    20052432.463    22589812.725 8 -61604268.789 8
  22610781.068    22610783.437    47091152.973 9 -42739720.147 9
 86  6 17  1 47 59.0800000  0  4G 6G13G 9G11
  22358273.976    22358277.570    46484593.341 9 -43025292.099 8
  20536645.390    20536648.718    -5265974.948 9    136176.541 9
  20053210.406    20053211.997    22593905.709 7 -61601079.464 7
  22613832.625    22613834.915    47107190.010 9 -42727223.758 9
 86  6 17  1 48  5.0800000  0  4G 6G13G 9G11
  22361964.678    22361969.209    46503991.096 9 -43010176.985 9
  20535985.221    20535987.404    -5269451.564 9    133467.498 9
  20053993.019    20053995.461    22598024.187 8 -61597870.253 8
  22616885.634    22616887.337    47123231.433 9 -42714723.948 9
 86  6 17  1 48 11.0800000  0  4G 6G13G 9G11
  22365659.412    22365663.059    46523404.020 9 -42995050.044 9
  20535326.255    20535329.052    -5272909.556 9    130772.953 8
  20054782.655    20054783.522    22602168.190 8 -61594641.166 7
  22619938.886    22619940.269    47139277.179 9 -42702220.779 9
 86  6 17  1 48 17.0800000  0  4G 6G13G 9G11
  22369355.462    22369359.178    46542832.046 9 -42979911.347 8
  20534672.382    20534673.376    -5276348.866 9    128092.971 9
  20055576.232    20055576.810    22606337.719 8 -61591392.195 8
  22622992.296    22622995.610    47155327.206 9 -42689714.264 9
 86  6 17  1 48 23.0800000  0  4G 6G13G 9G11
  22373054.309    22373058.965    46562275.294 9 -42964760.775 8
  20534020.140    20534022.823    -5279769.516 9    125427.538 9
  20056375.171    20056376.573    22610532.750 8 -61588123.334 7
  22626047.245    22626051.525    47171381.505 9 -42677204.421 8
 86  6 17  1 48 29.0800000  0  4G 6G13G 9G11
  22376759.722    22376762.239    46581733.609 9 -42949598.463 9
  20533373.508    20533375.046    -5283171.517 9    122776.630 9
  20057178.361    20057180.996    22614753.309 8 -61584834.582 7
  22629103.273    22629105.985    47187440.029 9 -42664691.283 9
 86  6 17  1 48 35.0800000  0  4G 6G13G 9G11
  22380464.418    22380467.558    46601207.051 9 -42934424.369 8
  20532729.394    20532732.506    -5286554.903 9    120140.231 8
  20057986.494    20057987.616    22618999.364 9 -61581525.969 7
  22632160.332    22632162.872    47203502.803 9 -42652174.841 8
 86  6 17  1 48 41.0800000  0  4G 6G13G 9G11
  22384172.545    22384176.861    46620695.571 9 -42919238.529 8
  20532088.972    20532091.269    -5289919.694 9    117518.320 9
  20058799.650    20058800.193    22623270.914 7 -61578197.506 7
  22635217.813    22635220.340    47219569.688 8 -42639655.199 9
 86  6 17  1 48 47.0800000  0  4G 6G13G 9G11
  22387885.068    22387888.426    46640199.180 9 -42904040.928 9
  20531452.814    20531454.739    -5293265.890 9    114910.892 8
  20059616.487    20059616.603    22627567.945 7 -61574849.159 7
  22638276.775    22638278.092    47235640.800 9 -42627132.246 9
 86  6 17  1 48 53.0800000  0  4G 6G13G 9G11
  22391598.479    22391602.752    46659717.842 9 -42888831.602 8
  20530818.544    20530820.942    -5296593.544 9    112317.911 9
  20060439.126    20060440.216    22631890.536 7 -61571480.922 7
  22641334.706    22641336.953    47251716.120 9 -42614606.026 8
 86  6 17  1 48 59.0800000  0  4G 6G13G 9G11
  22395316.452    22395319.891    46679251.539 9 -42873610.561 9
  20530189.599    20530192.096    -5299902.639 9    109739.400 8
  20061267.389    20061266.456    22636238.614 8 -61568092.794 7
  22644394.234    22644397.776    47267795.573 9 -42602076.592 8
 86  6 17  1 49  5.0800000  0  4G 6G13G 9G11
  22399036.648    22399039.748    46698800.248 9 -42858377.818 8
  20529562.799    20529565.697    -5303193.150 9    107175.369 8
  20062098.484    20062099.356    22640612.178 6 -61564684.829 7
  22647454.082    22647457.876    47283879.142 9 -42589543.947 8
 86  6 17  1 49 11.0800000  0  4G 6G13G 9G11
  22402759.270    22402762.410    46718363.982 9 -42843133.359 8
  20528940.464    20528942.088    -5306465.040 9    104625.851 8
  20062935.061    20062937.532    22645011.369 8 -61561256.891 8
  22650516.593    22650519.663    47299966.880 9 -42577008.052 9
 86  6 17  1 49 17.0800000  0  4G 6G13G 9G11
  22406485.445    22406487.375    46737942.714 9 -42827877.209 9
  20528321.333    20528324.074    -5309718.287 9    102090.856 9
  20063777.014    20063778.633    22649436.071 8 -61557809.082 7
  22653578.080    22653581.795    47316058.765 9 -42564468.926 8
 86  6 17  1 49 23.0800000  0  4G 6G13G 9G11
  22410213.397    22410215.846    46757536.401 9 -42812609.431 9
  20527706.181    20527707.977    -5312952.963 9     99570.338 9
  20064623.162    20064627.494    22653886.255 8 -61554341.400 8
  22656641.306    22656644.521    47332154.730 9 -42551926.621 9
 86  6 17  1 49 29.0800000  0  4G 6G13G 9G11
  22413944.691    22413948.656    46777144.991 9 -42797330.030 8
  20527094.206    20527095.959    -5316169.118 9     97064.241 8
  20065476.613    20065478.390    22658361.982 8 -61550853.828 7
  22659705.076    22659708.189    47348254.790 9 -42539381.120 9
 86  6 17  1 49 35.0800000  0  4G 6G13G 9G11
  22417678.650    22417681.693    46796768.549 9 -42782038.967 9
  20526485.665    20526488.105    -5319366.698 9     94572.619 9
  20066331.352    20066334.824    22662863.148 9 -61547346.427 7
  22662769.068    22662772.331    47364358.914 9 -42526832.463 9
 86  6 17  1 49 41.0800000  0  4G 6G13G 9G11
  22421416.318    22421419.222    46816407.031 9 -42766736.266 9
  20525880.501    20525882.812    -5322545.706 9     92095.473 9
  20067193.183    20067196.151    22667389.848 8 -61543819.135 7
  22665835.170    22665837.925    47380467.056 9 -42514280.670 9
 86  6 17  1 49 47.0800000  0  4G 6G13G 9G11
  22425155.883    22425159.172    46836060.407 9 -42751421.962 8
  20525278.571    20525281.754    -5325706.148 9     89632.791 8
  20068059.723    20068061.160    22671942.206 7 -61540271.850 7
  22668901.065    22668904.901    47396579.245 9 -42501725.723 9
 86  6 17  1 49 53.0800000  0  4G 6G13G 9G11
  22428898.656    22428901.789    46855728.648 9 -42736096.087 9
  20524681.763    20524683.629    -5328848.088 8     87184.529 9
  20068930.781    20068932.397    22676519.993 7 -61536704.760 8
  22671967.775    22671970.995    47412695.460 9 -42489167.635 9
 86  6 17  1 49 59.0800000  0  4G 6G13G 9G11
  22432644.548    22432647.158    46875411.724 9 -42720758.642 9
  20524086.957    20524090.042    -5331971.585 9     84750.645 8
  20069808.343    20069808.842    22681123.309 7 -61533117.746 7
  22675034.485    22675039.789    47428815.642 9 -42476606.469 9
 86  6 17  1 50  5.0800000  0  4G 6G13G 9G11
  22436392.516    22436396.492    46895109.623 9 -42705409.649 8
  20523494.929    20523498.614    -5335076.546 9     82331.197 9
  20070689.335    20070690.178    22685752.085 8 -61529510.916 7
  22678103.621    22678106.971    47444939.826 8 -42464042.161 9
 86  6 17  1 50 11.0800000  0  4G 6G13G 9G11
  22440143.155    22440147.139    46914822.344 9 -42690049.117 9
  20522908.310    20522911.337    -5338162.977 9     79926.187 9
  20071575.529    20071576.006    22690406.382 7 -61525884.204 7
  22681172.757    22681176.664    47461067.954 9 -42451474.805 9
 86  6 17  1 50 17.0800000  0  4G 6G13G 9G11
  22443897.626    22443901.081    46934549.832 9 -42674677.072 8
  20522325.211    20522328.452    -5341230.950 9     77535.556 8
  20072464.322    20072466.392    22695086.191 8 -61522237.604 7
  22684242.780    22684246.243    47477199.985 9 -42438904.387 9
 86  6 17  1 50 23.0800000  0  4G 6G13G 9G11
  22447654.723    22447657.941    46954292.116 9 -42659293.494 9
  20521743.800    20521747.012    -5344280.410 9     75159.366 9
  20073359.458    20073360.906    22699791.579 8 -61518571.060 8
  22687313.203    22687316.724    47493335.979 9 -42426330.895 9
 86  6 17  1 50 29.0800000  0  4G 6G13G 9G11
  22451414.417    22451416.902    46974049.179 9 -42643898.380 9
  20521167.311    20521170.065    -5347311.391 9     72797.558 9
  20074260.591    20074262.700    22704522.446 7 -61514884.681 7
  22690384.836    22690388.765    47509475.898 9 -42413754.348 8
 86  6 17  1 50 35.0800000  0  4G 6G13G 9G11
  22455176.973    22455180.531    46993820.982 8 -42628491.792 8
  20520594.313    20520596.381    -5350323.904 8     70450.146 8
  20075166.195    20075166.129    22709278.871 8 -61511178.363 7
  22693456.791    22693460.191    47525619.666 9 -42401174.783 8
 86  6 17  1 50 41.0800000  0  4G 6G13G 9G11
  22458941.349    22458945.605    47013607.535 9 -42613073.720 9
  20520024.665    20520027.519    -5353317.956 9     68117.124 9
  20076075.337    20076077.983    22714060.779 9 -61507452.204 7
  22696529.926    22696532.631    47541767.379 8 -42388592.155 8
 86  6 17  1 50 47.0800000  0  4G 6G13G 9G11
  22462710.354    22462712.947    47033408.777 9 -42597644.209 8
  20519457.821    20519461.133    -5356293.638 9     65798.416 9
  20076989.412    20076991.464    22718868.295 9 -61503706.083 8
  22699603.769    22699606.596    47557918.965 9 -42376006.505 8
 86  6 17  1 50 53.0800000  0  4G 6G13G 9G11
  22466481.496    22466484.210    47053224.758 9 -42582203.204 9
  20518894.897    20518898.496    -5359250.894 9     63494.062 9
  20077910.212    20077912.042    22723701.367 8 -61499940.056 8
  22702678.071    22702680.454    47574074.417 9 -42363417.843 9
 86  6 17  1 50 59.0800000  0  4G 6G13G 9G11
  22470254.994    22470258.059    47073055.406 8 -42566750.764 8
  20518336.209    20518338.921    -5362189.775 9     61204.026 9
  20078834.979    20078836.756    22728559.923 8 -61496154.186 7
  22705752.207    22705755.199    47590233.748 9 -42350826.167 9
 86  6 17  1 51  5.0800000  0  4G 6G13G 9G11
  22474031.737    22474033.410    47092900.673 9 -42551286.943 9
  20517780.040    20517783.224    -5365110.312 9     58928.296 9
  20079764.687    20079765.287    22733444.046 8 -61492348.373 8
  22708828.068    22708831.553    47606396.908 9 -42338231.496 8
 86  6 17  1 51 11.0800000  0  4G 6G13G 9G11
  22477810.209    22477812.808    47112760.638 9 -42535811.653 9
  20517227.648    20517231.032    -5368012.435 9     56666.884 8
  20080698.985    20080700.268    22738353.648 8 -61488522.706 7
  22711904.774    22711908.187    47622563.854 9 -42325633.882 9
 86  6 17  1 51 17.0800000  0  4G 6G13G 9G11
  22481592.135    22481595.676    47132635.194 9 -42520324.998 9
  20516679.148    20516681.744    -5370896.164 9     54419.827 9
  20081637.997    20081639.641    22743288.830 9 -61484677.118 8
  22714981.908    22714984.306    47638734.569 9 -42313033.327 9
 86  6 17  1 51 23.0800000  0  4G 6G13G 9G11
  22485377.650    22485381.369    47152524.347 8 -42504826.991 8
  20516134.025    20516137.022    -5373761.523 8     52187.091 9
  20082580.346    20082583.064    22748249.429 8 -61480811.710 8
  22718060.460    22718062.943    47654909.069 9 -42300429.837 9
 86  6 17  1 51 29.0800000  0  4G 6G13G 9G11
  22489165.598    22489169.026    47172428.035 9 -42489317.634 7
  20515592.393    20515594.933    -5376608.534 9     49968.650 9
  20083530.756    20083533.077    22753235.675 8 -61476926.328 7
  22721138.674    22721141.423    47671087.270 9 -42287823.434 9
 86  6 17  1 51 35.0800000  0  4G 6G13G 9G11
  22492955.207    22492957.868    47192346.315 8 -42473796.914 9
  20515053.223    20515056.822    -5379437.253 9     47764.453 8
  20084483.670    20084485.865    22758247.326 9 -61473021.154 7
  22724217.905    22724220.475    47687269.151 9 -42275214.181 9
 86  6 17  1 51 41.0800000  0  4G 6G13G 9G11
  22496749.093    22496749.969    47212279.121 9 -42458264.850 8
  20514519.462    20514521.386    -5382247.610 9     45574.562 9
  20085442.239    20085443.197    22763284.506 8 -61469096.089 8
  22727297.672    22727299.469    47703454.752 9 -42262602.030 9
 86  6 17  1 51 47.0800000  0  4G 6G13G 9G11
  22500543.262    22500546.047    47232226.470 9 -42442721.490 8
  20513988.161    20513990.472    -5385039.564 9     43399.012 9
  20086405.874    20086408.154    22768347.164 7 -61465151.161 8
  22730378.334    22730380.882    47719644.067 9 -42249986.989 9
 86  6 17  1 51 53.0800000  0  4G 6G13G 9G11
  22504342.495    22504346.200    47252188.275 9 -42427166.852 9
  20513460.095    20513462.749    -5387813.264 9     41237.700 9
  20087374.518    20087376.190    22773435.328 8 -61461186.353 8
  22733460.048    22733462.360    47735837.051 9 -42237369.067 9
 86  6 17  1 51 59.0800000  0  4G 6G13G 9G11
  22508144.176    22508148.944    47272164.554 9 -42411600.949 9
  20512935.635    20512938.990    -5390568.659 9     39090.641 8
  20088347.310    20088349.000    22778549.068 8 -61457201.636 8
  22736541.232    22736544.274    47752033.697 9 -42224748.320 9
 86  6 17  1 52  5.0800000  0  4G 6G13G 9G11
  22511948.343    22511952.534    47292155.285 9 -42396023.786 9
  20512414.981    20512418.036    -5393305.741 9     36957.850 9
  20089324.971    20089325.009    22783688.315 8 -61453197.019 7
  22739624.334    22739627.089    47768233.988 9 -42212124.714 9
 86  6 17  1 52 11.0800000  0  4G 6G13G 9G11
  22515754.878    22515758.697    47312160.494 9 -42380435.336 8
  20511897.275    20511900.744    -5396024.512 9     34839.324 8
  20090307.587    20090310.083    22788853.115 8 -61449172.515 8
  22742707.807    22742710.240    47784437.935 9 -42199498.269 9
 86  6 17  1 52 17.0800000  0  4G 6G13G 9G11
  22519564.850    22519567.647    47332180.111 9 -42364835.653 8
  20511384.948    20511385.198    -5398724.936 9     32735.101 9
  20091296.753    20091297.406    22794043.397 8 -61445128.129 7
  22745792.503    22745794.973    47800645.512 9 -42186869.000 9
 86  6 17  1 52 23.0800000  0  4G 6G13G 9G11
  22523377.238    22523380.303    47352214.135 9 -42349224.739 9
  20510873.195    20510875.405    -5401407.141 9     30645.081 8
  20092286.988    20092288.982    22799259.118 8 -61441063.945 7
  22748876.980    22748879.699    47816856.691 9 -42174236.913 9
 86  6 17  1 52 29.0800000  0  4G 6G13G 9G11
  22527192.649    22527195.180    47372262.528 9 -42333602.622 8
  20510365.561    20510369.088    -5404071.065 9     28569.297 9
  20093285.334    20093286.001    22804500.385 8 -61436979.841 7
  22751962.778    22751965.569    47833071.418 9 -42161602.054 9
 86  6 17  1 52 35.0800000  0  4G 6G13G 9G11
  22531009.901    22531014.006    47392325.334 9 -42317969.282 8
  20509862.736    20509866.020    -5406716.719 9     26507.752 9
  20094288.484    20094289.187    22809767.205 8 -61432875.821 8
  22755049.313    22755052.033    47849289.748 8 -42148964.406 9
 86  6 17  1 52 41.0800000  0  4G 6G13G 9G11
  22534830.663    22534833.506    47412402.442 9 -42302324.803 9
  20509363.346    20509365.585    -5409344.066 9     24460.466 8
  20095295.776    20095296.057    22815059.550 8 -61428751.931 6
  22758135.727    22758139.535    47865511.643 9 -42136323.971 9
 86  6 17  1 52 47.0800000  0  4G 6G13G 9G11
  22538655.385    22538656.818    47432493.888 9 -42286669.157 9
  20508866.301    20508869.872    -5411953.160 9     22427.424 8
  20096306.946    20096308.315    22820377.403 8 -61424608.146 7
  22761223.608    22761226.378    47881737.039 9 -42123680.810 8
 86  6 17  1 52 53.0800000  0  4G 6G13G 9G11
  22542480.590    22542482.831    47452599.701 9 -42271002.319 9
  20508373.293    20508375.331    -5414544.006 9     20408.573 9
  20097323.514    20097325.258    22825720.791 9 -61420444.463 8
  22764311.504    22764314.230    47897965.944 9 -42111034.910 8
 86  6 17  1 52 59.0800000  0  4G 6G13G 9G11
  22546309.061    22546312.268    47472719.765 9 -42255324.363 8
  20507883.689    20507886.329    -5417116.639 9     18403.920 9
  20098345.805    20098347.854    22831089.682 9 -61416260.927 8
  22767401.352    22767403.470    47914198.355 9 -42098386.280 8
 86  6 17  1 53  5.0800000  0  4G 6G13G 9G11
  22550140.658    22550142.775    47492854.145 9 -42239635.248 9
  20507397.577    20507401.276    -5419670.979 9     16413.534 9
  20099371.721    20099373.423    22836483.932 8 -61412057.609 7
  22770490.420    22770492.503    47930434.234 9 -42085734.952 8
 86  6 17  1 53 11.0800000  0  4G 6G13G 9G11
  22553975.203    22553976.862    47513002.787 9 -42223935.024 8
  20506915.473    20506918.399    -5422207.128 9     14437.309 9
  20100402.877    20100403.241    22841903.717 9 -61407834.403 7
  22773581.063    22773582.630    47946673.563 9 -42073080.927 9
 86  6 17  1 53 17.0800000  0  4G 6G13G 9G11
  22557811.279    22557814.444    47533165.667 9 -42208223.706 8
  20506436.458    20506439.585    -5424725.141 9     12475.228 8
  20101440.404    20101439.892    22847349.151 9 -61403591.210 7
  22776671.998    22776674.239    47962916.296 9 -42060424.266 8
 86  6 17  1 53 23.0800000  0  4G 6G13G 9G11
  22561650.396    22561654.273    47553342.770 9 -42192501.305 8
  20505960.420    20505963.618    -5427225.040 9     10527.255 9
  20102480.486    20102480.950    22852820.011 8 -61399328.214 8
  22779762.333    22779765.597    47979162.484 9 -42047764.895 9
 86  6 17  1 53 29.0800000  0  4G 6G13G 9G11
  22565493.213    22565495.354    47573534.081 9 -42176767.830 9
  20505489.248    20505490.285    -5429706.625 9      8593.556 9
  20103526.209    20103529.027    22858316.425 8 -61395045.290 7
  22782855.637    22782858.443    47995412.165 9 -42035102.812 9
 86  6 17  1 53 35.0800000  0  4G 6G13G 9G11
  22569338.468    22569340.606    47593739.584 9 -42161023.295 8
  20505019.791    20505022.331    -5432170.030 9      6674.025 8
  20104576.693    20104578.348    22863838.338 9 -61390742.514 7
  22785949.049    22785950.959    48011665.225 9 -42022438.092 9
 86  6 17  1 53 41.0800000  0  4G 6G13G 9G11
  22573186.156    22573187.851    47613959.250 9 -42145267.730 8
  20504553.426    20504557.512    -5434615.329 9      4768.598 9
  20105632.711    20105634.163    22869385.815 9 -61386419.796 7
  22789041.852    22789044.321    48027921.699 9 -42009770.720 8
 86  6 17  1 53 47.0800000  0  4G 6G13G 9G11
  22577036.102    22577038.024    47634193.076 9 -42129501.138 8
  20504091.869    20504095.911    -5437042.481 9      2877.303 9
  20106693.159    20106693.745    22874958.684 9 -61382077.312 7
  22792135.571    22792138.969    48044181.591 9 -41997100.676 9
 86  6 17  1 53 53.0800000  0  4G 6G13G 9G11
  22580889.174    22580891.504    47654441.017 9 -42113723.535 9
  20503633.946    20503636.886    -5439451.528 9      1000.136 9
  20107758.816    20107759.455    22880557.087 9 -61377714.906 8
  22795230.219    22795233.705    48060444.865 9 -41984427.998 9
 86  6 17  1 53 59.0800000  0  4G 6G13G 9G11
  22584744.972    22584747.592    47674703.053 9 -42097934.954 9
  20503178.199    20503181.812    -5441842.402 9      -862.878 9
  20108828.263    20108830.558    22886181.050 8 -61373332.628 7
  22798325.355    22798328.819    48076711.492 9 -41971752.713 8
 86  6 17  1 54  5.0800000  0  4G 6G13G 9G11
  22588603.306    22588606.756    47694979.186 9 -42082135.397 8
  20502727.689    20502730.457    -5444215.117 9     -2711.743 9
  20109904.193    20109903.376    22891830.440 8 -61368930.497 7
  22801422.086    22801425.943    48092981.402 8 -41959074.869 9
 86  6 17  1 54 11.0800000  0  4G 6G13G 9G11
  22592464.820    22592467.917    47715269.369 9 -42066324.876 9
  20502278.609    20502282.508    -5446569.738 9     -4546.511 9
  20110984.769    20110984.854    22897505.311 8 -61364508.510 7
  22804517.537    22804521.830    48109254.585 9 -41946394.478 9
 86  6 17  1 54 17.0800000  0  4G 6G13G 9G11
  22596328.857    22596331.442    47735573.624 9 -42050503.393 8
  20501834.566    20501837.520    -5448906.263 8     -6367.177 9
  20112067.624    20112071.089    22903205.755 8 -61360066.626 7
  22807615.191    22807619.563    48125531.054 9 -41933711.521 9
 86  6 17  1 54 23.0800000  0  4G 6G13G 9G11
  22600195.273    22600197.635    47755891.887 9 -42034670.995 8
  20501392.956    20501396.040    -5451224.739 9     -8173.771 9
  20113158.168    20113158.764    22908931.549 8 -61355604.973 8
  22810712.651    22810717.538    48141810.776 9 -41921026.035 9
 86  6 17  1 54 29.0800000  0  4G 6G13G 9G11
  22604063.644    22604066.505    47776224.179 9 -42018827.658 8
  20500956.010    20500958.048    -5453525.149 8     -9966.304 9
  20114253.519    20114254.164    22914682.884 8 -61351123.417 8
  22813812.294    22813815.428    48158093.795 9 -41908337.974 9
 86  6 17  1 54 35.0800000  0  4G 6G13G 9G11
  22607935.797    22607939.191    47796570.481 9 -42002973.417 8
  20500521.125    20500523.823    -5455807.454 9    -11744.721 8
  20115352.365    20115353.809    22920459.676 8 -61346622.019 7
  22816910.155    22816915.380    48174380.080 9 -41895647.373 9
 86  6 17  1 54 41.0800000  0  4G 6G13G 9G11
  22611810.148    22611813.806    47816930.731 9 -41987108.315 8
  20500090.419    20500093.087    -5458071.675 9    -13509.047 9
  20116456.158    20116458.213    22926261.995 8 -61342100.730 7
  22820011.279    22820013.885    48190669.593 9 -41882954.247 9
 86  6 17  1 54 47.0800000  0  4G 6G13G 9G11
  22615686.944    22615690.577    47837304.925 9 -41971232.329 8
  20499663.089    20499665.986    -5460317.848 9    -15259.309 8
  20117565.679    20117566.253    22932089.753 8 -61337559.629 7
  22823111.495    22823115.159    48206962.285 8 -41870258.650 7
 86  6 17  1 54 53.0800000  0  4G 6G13G 9G11
  22619567.719    22619569.960    47857693.044 9 -41955345.494 8
  20499238.964    20499242.635    -5462546.033 9    -16995.547 9
  20118678.104    20118679.629    22937943.021 8 -61332998.640 8
  22826213.291    22826215.867    48223258.246 9 -41857560.509 9
 86  6 17  1 54 59.0800000  0  4G 6G13G 9G11
  22623448.998    22623452.888    47878095.085 9 -41939447.825 9
  20498819.019    20498821.902    -5464756.251 9    -18717.788 9
  20119798.961    20119798.705    22943821.783 8 -61328417.794 8
  22829314.694    22829317.671    48239557.344 9 -41844859.919 9
 86  6 17  1 55  5.0800000  0  4G 6G13G 9G11
  22627334.119    22627337.709    47898511.027 9 -41923539.318 8
  20498401.676    20498403.701    -5466948.376 8    -20425.944 9
  20120921.331    20120922.642    22949725.981 9 -61323817.130 6
  22832417.764    22832420.455    48255859.604 8 -41832156.861 9
 86  6 17  1 55 11.0800000  0  4G 6G13G 9G11
  22631221.808    22631225.606    47918940.863 9 -41907619.975 8
  20497988.628    20497990.739    -5469122.451 9    -22120.025 9
  20122051.239    20122050.335    22955655.721 9 -61319196.558 7
  22835519.839    22835522.580    48272164.964 9 -41819451.386 9
 86  6 17  1 55 17.0800000  0  4G 6G13G 9G11
  22635112.041    22635114.945    47939384.512 9 -41891689.872 7
  20497577.267    20497580.008    -5471278.586 9    -23800.130 8
  20123182.770    20123183.745    22961610.890 9 -61314556.170 7
  22838624.441    22838625.343    48288473.432 9 -41806743.509 8
 86  6 17  1 55 23.0800000  0  4G 6G13G 9G11
  22639004.885    22639009.442    47959841.988 9 -41875748.994 8
  20497170.199    20497173.054    -5473416.743 8    -25466.223 9
  20124320.598    20124323.073    22967591.522 8 -61309895.942 7
  22841727.238    22841729.222    48304784.994 9 -41794033.195 9
 86  6 17  1 55 29.0800000  0  4G 6G13G 9G11
  22642899.873    22642903.810    47980313.333 9 -41859797.322 8
  20496766.881    20496768.933    -5475536.878 8    -27118.280 9
  20125464.825    20125466.448    22973597.584 8 -61305215.879 7
  22844832.312    22844834.352    48321099.635 9 -41781320.482 9
 86  6 17  1 55 35.0800000  0  4G 6G13G 9G11
  22646798.058    22646802.043    48000798.477 9 -41843834.893 7
  20496366.452    20496368.706    -5477639.119 8    -28756.386 9
  20126611.640    20126612.951    22979629.151 8 -61300515.978 8
  22847937.621    22847940.249    48337417.382 9 -41768605.368 8
 86  6 17  1 55 41.0800000  0  4G 6G13G 9G11
  22650699.950    22650702.621    48021297.393 9 -41827861.723 9
  20495969.829    20495972.699    -5479723.355 9    -30380.468 9
  20127764.234    20127765.499    22985686.186 8 -61295796.213 7
  22851043.339    22851044.913    48353738.229 9 -41755887.820 9
 86  6 17  1 55 47.0800000  0  4G 6G13G 9G11
  22654603.512    22654606.175    48041810.015 9 -41811877.874 8
  20495576.785    20495579.898    -5481789.664 9    -31990.568 9
  20128921.559    20128923.900    22991768.619 8 -61291056.658 8
  22854149.570    22854152.112    48370062.133 9 -41743167.912 9
 86  6 17  1 55 53.0800000  0  4G 6G13G 9G11
  22658509.528    22658513.551    48062336.455 9 -41795883.260 8
  20495187.403    20495190.530    -5483838.015 9    -33586.692 9
  20130084.528    20130085.818    22997876.569 8 -61286297.222 8
  22857256.147    22857257.836    48386389.085 9 -41730445.601 9
 86  6 17  1 55 59.0800000  0  4G 6G13G 9G11
  22662417.350    22662421.245    48082876.619 9 -41779877.966 9
  20494800.598    20494803.424    -5485868.473 9    -35168.851 9
  20131251.099    20131253.245    23004009.861 8 -61281518.027 8
  22860363.402    22860365.606    48402719.091 9 -41717720.926 9
 86  6 17  1 56  5.0800000  0  4G 6G13G 9G11
  22666328.650    22666331.940    48103430.447 9 -41763862.009 8
  20494417.283    20494420.395    -5487881.008 9    -36737.069 9
  20132421.909    20132425.159    23010168.757 9 -61276718.889 7
  22863472.167    22863473.456    48419052.141 9 -41704993.900 9
 86  6 17  1 56 11.0800000  0  4G 6G13G 9G11
  22670242.672    22670246.871    48123998.003 9 -41747835.366 8
  20494037.947    20494040.657    -5489875.638 9    -38291.323 9
  20133599.968    20133600.474    23016353.005 8 -61271900.008 7
  22866580.760    22866582.571    48435388.145 9 -41692264.532 9
 86  6 17  1 56 17.0800000  0  4G 6G13G 9G11
  22674158.526    22674162.728    48144579.151 8 -41731798.126 8
  20493661.558    20493664.899    -5491852.369 9    -39831.618 9
  20134781.180    20134782.789    23022562.676 9 -61267061.291 7
  22869689.168    22869692.231    48451727.114 9 -41679532.873 9
 86  6 17  1 56 23.0800000  0  4G 6G13G 9G11
  22678078.071    22678082.395    48165173.987 9 -41715750.200 9
  20493288.717    20493293.246    -5493811.195 9    -41357.998 9
  20135967.441    20135967.954    23028797.808 8 -61262202.767 7
  22872798.784    22872801.911    48468069.083 9 -41666798.881 9
 86  6 17  1 56 29.0800000  0  4G 6G13G 9G11
  22682000.371    22682003.081    48185782.436 9 -41699691.699 8
  20492919.540    20492922.180    -5495752.213 9    -42870.466 9
  20137159.143    20137161.795    23035058.315 8 -61257324.440 7
  22875909.267    22875911.857    48484413.949 9 -41654062.616 9
 86  6 17  1 56 35.0800000  0  4G 6G13G 9G11
  22685924.853    22685927.728    48206404.507 9 -41683622.567 9
  20492554.141    20492557.096    -5497675.368 9    -44369.006 9
  20138354.382    20138357.355    23041344.391 9 -61252426.205 7
  22879019.970    22879023.076    48500761.765 9 -41641324.070 9
 86  6 17  1 56 41.0800000  0  4G 6G13G 9G11
  22689850.458    22689854.557    48227040.145 9 -41667542.871 9
  20492191.288    20492193.914    -5499580.697 9    -45853.686 9
  20139555.829    20139558.640    23047655.862 8 -61247508.186 7
  22882131.354    22882133.472    48517112.476 9 -41628583.258 9
 86  6 17  1 56 47.0800000  0  4G 6G13G 9G11
  22693779.276    22693784.863    48247689.310 9 -41651452.630 8
  20491832.500    20491834.239    -5501468.142 9    -47324.427 9
  20140763.528    20140763.917    23053992.748 8 -61242570.346 7
  22885243.632    22885246.565    48533466.138 9 -41615840.148 8
 86  6 17  1 56 53.0800000  0  4G 6G13G 9G11
  22697712.691    22697717.193    48268352.062 9 -41635351.819 9
  20491477.117    20491478.741    -5503337.822 9    -48781.308 9
  20141973.439    20141976.056    23060355.118 9 -61237612.669 7
  22888355.567    22888358.686    48549822.650 9 -41603094.818 8
 86  6 17  1 56 59.0800000  0  4G 6G13G 9G11
  22701646.807    22701651.778    48289028.321 9 -41619240.469 9
  20491123.709    20491126.935    -5505189.627 9    -50224.284 9
  20143189.907    20143189.475    23066742.879 9 -61232635.196 8
  22891469.203    22891471.816    48566182.001 9 -41590347.278 9
 86  6 17  1 57  5.0800000  0  4G 6G13G 9G11
  22705583.948    22705587.550    48309718.081 9 -41603118.587 8
  20490775.337    20490777.963    -5507023.665 9    -51653.389 9
  20144409.816    20144411.104    23073156.089 9 -61227637.894 7
  22894583.542    22894585.718    48582544.219 9 -41577597.495 9
 86  6 17  1 57 11.0800000  0  4G 6G13G 9G11
  22709522.725    22709527.657    48330421.376 8 -41586986.175 8
  20490428.826    20490431.609    -5508839.959 9    -53068.687 9
  20145635.394    20145636.513    23079594.631 8 -61222620.853 8
  22897696.636    22897699.162    48598909.288 9 -41564845.506 9
 86  6 17  1 57 17.0800000  0  4G 6G13G 9G11
  22713465.774    22713469.635    48351138.106 9 -41570843.283 8
  20490086.864    20490089.748    -5510638.418 9    -54470.078 8
  20146865.477    20146866.681    23086058.644 8 -61217583.974 7
  22900812.004    22900813.915    48615277.149 8 -41552091.338 9
 86  6 17  1 57 23.0800000  0  4G 6G13G 9G11
  22717410.768    22717415.986    48371868.274 8 -41554689.926 9
  20489748.681    20489751.436    -5512419.112 8    -55857.623 8
  20148100.121    20148100.946    23092548.067 8 -61212527.269 8
  22903926.800    22903930.994    48631647.819 9 -41539334.985 9
 86  6 17  1 57 29.0800000  0  4G 6G13G 9G11
  22721357.930    22721362.736    48392611.890 8 -41538526.087 8
  20489414.133    20489415.528    -5514182.024 9    -57231.313 9
  20149338.946    20149339.996    23099062.830 8 -61207450.827 7
  22907042.019    22907046.084    48648021.302 9 -41526576.416 9
 86  6 17  1 57 35.0800000  0  4G 6G13G 9G11
  22725307.478    22725311.182    48413368.913 9 -41522351.805 8
  20489080.728    20489083.969    -5515927.168 9    -58591.180 8
  20150584.866    20150584.099    23105603.102 8 -61202354.526 8
  22910158.625    22910161.774    48664397.606 9 -41513815.672 8
 86  6 17  1 57 41.0800000  0  4G 6G13G 9G11
  22729260.113    22729263.800    48434139.331 9 -41506167.084 9
  20488752.361    20488755.845    -5517654.591 9    -59937.215 9
  20151833.278    20151833.781    23112168.675 8 -61197238.500 7
  22913276.241    22913278.316    48680776.704 9 -41501052.741 9
 86  6 17  1 57 47.0800000  0  4G 6G13G 9G11
  22733214.465    22733220.359    48454923.163 8 -41489971.918 8
  20488427.714    20488430.026    -5519364.235 9    -61269.403 9
  20153087.687    20153088.215    23118759.700 8 -61192102.640 7
  22916393.913    22916397.040    48697158.515 9 -41488287.698 9
 86  6 17  1 57 53.0800000  0  4G 6G13G 9G11
  22737173.523    22737177.760    48475720.292 8 -41473766.368 9
  20488105.615    20488107.983    -5521056.171 8    -62587.792 8
  20154345.504    20154346.444    23125376.193 8 -61186946.933 7
  22919511.156    22919513.919    48713543.073 9 -41475520.517 9
 86  6 17  1 57 59.0800000  0  4G 6G13G 9G11
  22741132.977    22741137.579    48496530.767 9 -41457550.436 9
  20487786.805    20487789.818    -5522730.335 8    -63892.333 8
  20155610.025    20155611.644    23132017.942 8 -61181771.556 8
  22922630.081    22922632.722    48729930.314 9 -41462751.240 8
 86  6 17  1 58  5.0800000  0  4G 6G13G 9G11
  22745097.009    22745100.280    48517354.543 9 -41441324.132 8
  20487470.401    20487472.727    -5524386.785 9    -65183.061 8
  20156878.232    20156879.622    23138685.189 8 -61176576.288 7
  22925747.639    22925751.489    48746320.253 9 -41449979.863 9
 86  6 17  1 58 11.0800000  0  4G 6G13G 9G11
  22749061.496    22749066.571    48538191.587 9 -41425087.492 9
  20487158.747    20487162.446    -5526025.634 9    -66460.100 9
  20158152.486    20158152.643    23145377.749 8 -61171361.310 7
  22928868.789    22928870.149    48762712.868 9 -41437206.395 9
 86  6 17  1 58 17.0800000  0  4G 6G13G 9G11
  22753028.884    22753032.338    48559041.945 9 -41408840.468 8
  20486851.156    20486853.783    -5527646.796 9    -67723.326 9
  20159431.342    20159432.146    23152095.757 8 -61166126.520 8
  22931988.607    22931991.063    48779108.150 9 -41424430.872 9
 86  6 17  1 58 23.0800000  0  4G 6G13G 9G11
  22756999.084    22757003.465    48579905.538 8 -41392583.140 8
  20486545.111    20486548.482    -5529250.253 9    -68972.767 8
  20160713.897    20160714.313    23158839.127 8 -61160871.931 7
  22935108.047    22935110.659    48795506.051 9 -41411653.284 8
 86  6 17  1 58 29.0800000  0  4G 6G13G 9G11
  22760971.881    22760975.961    48600782.337 9 -41376315.522 9
  20486243.102    20486245.971    -5530836.016 9    -70208.428 8
  20162001.485    20162003.164    23165607.877 8 -61155597.600 7
  22938229.232    22938232.181    48811906.588 9 -41398873.647 8
 86  6 17  1 58 35.0800000  0  4G 6G13G 9G11
  22764947.451    22764950.590    48621672.379 9 -41360037.580 8
  20485945.299    20485947.796    -5532404.171 9    -71430.370 9
  20163295.619    20163297.252    23172401.968 8 -61150303.515 7
  22941350.368    22941353.666    48828309.716 9 -41386091.997 9
 86  6 17  1 58 41.0800000  0  4G 6G13G 9G11
  22768924.143    22768928.352    48642575.623 8 -41343749.366 8
  20485649.814    20485652.311    -5533954.726 9    -72638.585 9
  20164592.328    20164593.905    23179221.417 8 -61144989.639 8
  22944472.298    22944475.353    48844715.445 8 -41373308.314 8
 86  6 17  1 58 47.0800000  0  4G 6G13G 9G11
  22772905.615    22772909.874    48663492.020 9 -41327450.878 9
  20485358.251    20485361.491    -5535487.715 9    -73833.116 8
  20165896.025    20165897.240    23186066.289 9 -61139655.992 7
  22947595.407    22947598.507    48861123.773 9 -41360522.611 9
 86  6 17  1 58 53.0800000  0  4G 6G13G 9G11
  22776888.018    22776892.769    48684421.570 9 -41311142.168 8
  20485069.090    20485073.133    -5537003.081 9    -75013.918 9
  20167202.089    20167204.085    23192936.489 9 -61134302.585 8
  22950717.323    22950721.645    48877534.637 9 -41347734.928 8
 86  6 17  1 58 59.0800000  0  4G 6G13G 9G11
  22780873.084    22780876.903    48705364.200 9 -41294823.248 9
  20484785.253    20484788.867    -5538500.867 9    -76181.024 9
  20168515.724    20168516.753    23199832.051 8 -61128929.422 8
  22953841.335    22953843.524    48893948.103 9 -41334945.237 9
 86  6 17  1 59  5.0800000  0  4G 6G13G 9G11
  22784861.292    22784863.524    48726320.015 9 -41278494.053 8
  20484504.049    20484506.045    -5539981.056 9    -77334.422 8
  20169831.951    20169834.524    23206752.962 8 -61123536.514 7
  22956964.844    22956968.373    48910364.080 9 -41322153.565 9
 86  6 17  1 59 11.0800000  0  4G 6G13G 9G11
  22788850.985    22788855.448    48747288.895 8 -41262154.673 9
  20484224.762    20484227.345    -5541443.656 9    -78474.093 9
  20171154.471    20171155.368    23213699.211 8 -61118123.860 8
  22960089.078    22960091.533    48926782.565 9 -41309359.950 9
 86  6 17  1 59 17.0800000  0  4G 6G13G 9G11
  22792844.581    22792847.770    48768270.840 8 -41245805.116 9
  20483950.370    20483952.709    -5542888.673 9    -79600.077 8
  20172481.072    20172480.610    23220670.792 8 -61112691.458 8
  22963214.119    22963216.990    48943203.529 9 -41296564.397 9
 86  6 17  1 59 23.0800000  0  4G 6G13G 9G11
  22796840.226    22796843.801    48789265.904 9 -41229445.362 9
  20483679.010    20483681.635    -5544316.139 9    -80712.388 8
  20173811.337    20173813.172    23227667.716 8 -61107239.320 7
  22966338.932    22966342.925    48959626.999 9 -41283766.898 9
 86  6 17  1 59 29.0800000  0  4G 6G13G 9G11
  22800837.320    22800841.604    48810273.875 9 -41213075.530 8
  20483411.085    20483412.680    -5545726.053 9    -81811.025 9
  20175147.953    20175150.241    23234690.011 9 -61101767.404 8
  22969464.783    22969468.540    48976052.990 9 -41270967.428 9
 86  6 17  1 59 35.0800000  0  4G 6G13G 9G11
  22804838.088    22804842.008    48831294.933 9 -41196695.517 9
  20483145.620    20483147.717    -5547118.436 9    -82895.982 9
  20176488.680    20176491.821    23241737.679 8 -61096275.716 7
  22972591.098    22972594.691    48992481.453 9 -41258166.029 9
 86  6 17  1 59 41.0800000  0  4G 6G13G 9G11
  22808839.435    22808844.531    48852328.955 8 -41180305.385 9
  20482883.820    20482886.102    -5548493.278 9    -83967.289 9
  20177834.533    20177836.528    23248810.564 7 -61090764.372 8
  22975718.672    22975720.526    49008912.387 9 -41245362.717 9
 86  6 17  1 59 47.0800000  0  4G 6G13G 9G11
  22812846.153    22812849.524    48873375.927 9 -41163905.159 8
  20482626.370    20482627.334    -5549850.652 8    -85024.986 9
  20179186.067    20179186.714    23255908.738 8 -61085233.333 8
  22978845.911    22978848.509    49025345.727 9 -41232557.521 9
 86  6 17  1 59 53.0800000  0  4G 6G13G 9G11
  22816853.463    22816856.767    48894435.858 9 -41147494.840 9
  20482369.919    20482372.416    -5551190.482 9    -86068.993 9
  20180540.779    20180543.375    23263032.361 9 -61079682.471 7
  22981972.055    22981976.054    49041781.512 9 -41219750.430 9
 86  6 17  1 59 59.0800000  0  4G 6G13G 9G11
  22820863.804    22820866.024    48915508.734 9 -41131074.418 8
  20482118.421    20482121.977    -5552512.781 9    -87099.364 9
  20181901.162    20181902.001    23270181.251 9 -61074111.904 7
  22985100.980    22985104.617    49058219.702 9 -41206941.453 9
 86  6 17  2  0  5.0800000  0  4G 6G13G 9G11
  22824875.350    22824879.323    48936594.521 9 -41114643.951 8
  20481870.415    20481872.711    -5553817.555 9    -88116.072 9
  20183266.688    20183268.873    23277355.409 8 -61068521.664 7
  22988230.537    22988233.444    49074660.285 8 -41194130.619 8
 86  6 17  2  0 11.0800000  0  4G 6G13G 9G11
  22828890.466    22828894.329    48957693.220 9 -41098203.416 8
  20481625.613    20481628.353    -5555104.921 9    -89119.195 9
  20184637.377    20184638.774    23284554.920 8 -61062911.650 7
  22991359.199    22991361.217    49091103.238 9 -41181317.936 9
 86  6 17  2  0 17.0800000  0  4G 6G13G 9G11
  22832907.651    22832910.486    48978804.727 9 -41081752.920 9
  20481384.074    20481385.583    -5556374.834 9    -90108.741 8
  20186011.549    20186014.854    23291779.764 9 -61057281.904 7
  22994488.240    22994491.540    49107548.526 9 -41168503.427 9
 86  6 17  2  0 23.0800000  0  4G 6G13G 9G11
  22836927.529    22836931.831    48999929.135 9 -41065292.351 8
  20481145.797    20481148.166    -5557627.353 9    -91084.732 9
  20187391.095    20187393.344    23299029.843 8 -61051632.513 7
  22997618.769    22997621.954    49123996.155 9 -41155687.098 9
 86  6 17  2  0 29.0800000  0  4G 6G13G 9G11
  22840949.914    22840953.744    49021066.357 9 -41048821.809 9
  20480910.354    20480912.636    -5558862.500 9    -92047.186 9
  20188775.732    20188776.721    23306305.199 7 -61045963.396 7
  23000748.298    23000751.002    49140446.121 9 -41142868.957 8
 86  6 17  2  0 35.0800000  0  4G 6G13G 9G11
  22844974.868    22844978.347    49042216.417 9 -41032341.259 9
  20480678.946    20480681.285    -5560080.245 9    -92996.064 9
  20190164.742    20190168.311    23313605.867 9 -61040274.567 7
  23003879.492    23003882.819    49156898.390 9 -41130049.009 9
 86  6 17  2  0 41.0800000  0  4G 6G13G 9G11
  22849002.215    22849005.122    49063379.262 9 -41015850.738 9
  20480450.170    20480453.368    -5561280.480 9    -93931.312 9
  20191558.286    20191560.059    23320931.849 8 -61034566.029 8
  23007010.887    23007013.628    49173353.007 9 -41117227.237 9
 86  6 17  2  0 47.0800000  0  4G 6G13G 9G11
  22853031.455    22853034.781    49084554.876 9 -40999350.282 9
  20480224.887    20480228.028    -5562463.320 8    -94852.996 9
  20192957.507    20192958.375    23328283.060 8 -61028837.803 7
  23010142.683    23010145.188    49189809.911 9 -41104403.678 9
 86  6 17  2  0 53.0800000  0  4G 6G13G 9G11
  22857064.261    22857066.370    49105743.205 9 -40982839.908 9
  20480002.436    20480006.750    -5563628.807 9    -95761.166 9
  20194361.400    20194362.343    23335659.615 8 -61023089.844 7
  23013274.528    23013276.855    49206269.117 9 -41091578.336 9
 86  6 17  2  0 59.0800000  0  4G 6G13G 9G11
  22861098.488    22861101.276    49126944.295 9 -40966319.586 8
  20479785.223    20479787.934    -5564776.832 9    -96655.731 9
  20195770.093    20195772.331    23343061.476 9 -61017322.173 8
  23016406.652    23016409.652    49222730.587 9 -41078751.228 9
 86  6 17  2  1  5.0800000  0  4G 6G13G 9G11
  22865134.420    22865137.913    49148158.119 9 -40949789.347 8
  20479569.611    20479573.483    -5565907.426 9    -97536.716 9
  20197183.768    20197184.860    23350488.505 8 -61011534.884 7
  23019539.615    23019542.721    49239194.311 9 -41065922.350 8
 86  6 17  2  1 11.0800000  0  4G 6G13G 9G11
  22869174.596    22869176.869    49169384.609 8 -40933249.247 8
  20479358.294    20479360.676    -5567020.774 9    -98404.261 9
  20198601.028    20198602.411    23357940.828 8 -61005727.867 6
  23022672.534    23022675.361    49255660.264 9 -41053091.751 9
 86  6 17  2  1 17.0800000  0  4G 6G13G 9G11
  22873215.422    22873219.216    49190623.760 9 -40916699.277 9
  20479149.437    20479152.664    -5568116.785 9    -99258.289 9
  20200025.698    20200025.725    23365418.336 8 -60999901.252 7
  23025806.769    23025808.953    49272128.358 9 -41040259.470 9
 86  6 17  2  1 23.0800000  0  4G 6G13G 9G11
  22877259.672    22877263.685    49211875.570 9 -40900139.442 9
  20478943.872    20478947.112    -5569195.413 9   -100098.776 9
  20201453.001    20201453.637    23372921.122 8 -60994054.923 8
  23028940.940    23028944.662    49288598.662 9 -41027425.480 9
 86  6 17  2  1 29.0800000  0  4G 6G13G 9G11
  22881306.233    22881310.453    49233139.995 9 -40883569.775 9
  20478742.512    20478745.252    -5570256.724 9   -100925.773 9
  20202885.823    20202885.020    23380449.186 8 -60988188.902 7
  23032075.204    23032078.640    49305071.137 9 -41014589.781 9
 86  6 17  2  1 35.0800000  0  4G 6G13G 9G11
  22885354.687    22885358.981    49254417.036 9 -40866990.292 9
  20478543.385    20478545.768    -5571300.736 9   -101739.276 9
  20204322.939    20204323.824    23388002.515 7 -60982303.191 7
  23035210.700    23035214.098    49321545.777 9 -41001752.411 9
 86  6 17  2  1 41.0800000  0  4G 6G13G 9G11
  22889406.539    22889410.462    49275706.672 8 -40850400.980 9
  20478348.036    20478350.806    -5572327.419 9   -102539.285 9
  20205765.355    20205765.898    23395581.043 7 -60976397.868 8
  23038345.735    23038348.863    49338022.558 9 -40988913.370 8
 86  6 17  2  1 47.0800000  0  4G 6G13G 9G11
  22893459.667    22893464.055    49297008.870 9 -40833801.892 9
  20478156.781    20478159.191    -5573336.773 9   -103325.807 9
  20207211.835    20207213.552    23403184.812 9 -60970472.860 7
  23041481.910    23041485.309    49354501.495 8 -40976072.647 9
 86  6 17  2  1 53.0800000  0  4G 6G13G 9G11
  22897515.558    22897519.069    49318323.580 8 -40817193.018 9
  20477968.243    20477969.523    -5574328.956 9   -104098.926 8
  20208664.111    20208665.079    23410813.701 8 -60964528.255 7
  23044618.363    23044621.240    49370982.533 9 -40963230.271 9
 86  6 17  2  1 59.0800000  0  4G 6G13G 9G11
  22901573.762    22901578.226    49339650.863 9 -40800574.385 9
  20477781.593    20477783.847    -5575303.870 9   -104858.604 9
  20210120.515    20210120.553    23418467.862 8 -60958563.973 6
  23047755.561    23047757.873    49387465.700 9 -40950386.253 8
 86  6 17  2  2  5.0800000  0  4G 6G13G 9G11
  22905634.375    22905639.993    49360990.666 9 -40783945.984 8
  20477597.949    20477602.149    -5576261.550 9   -105604.844 9
  20211582.772    20211583.147    23426147.214 8 -60952580.071 6
  23050892.071    23050895.356    49403950.965 9 -40937540.603 9
 86  6 17  2  2 11.0800000  0  4G 6G13G 9G11
  22909698.426    22909703.508    49382342.860 9 -40767307.922 8
  20477420.630    20477422.497    -5577202.035 9   -106337.681 8
  20213047.961    20213049.642    23433851.824 8 -60946576.508 7
  23054030.063    23054033.433    49420438.341 9 -40924693.315 9
 86  6 17  2  2 17.0800000  0  4G 6G13G 9G11
  22913763.760    22913768.084    49403707.566 8 -40750660.124 8
  20477244.140    20477247.868    -5578125.305 8   -107057.111 8
  20214519.216    20214520.125    23441581.666 9 -60940553.245 7
  23057167.374    23057170.666    49436927.817 9 -40911844.374 9
 86  6 17  2  2 23.0800000  0  4G 6G13G 9G11
  22917830.872    22917836.513    49425084.740 8 -40734002.603 9
  20477071.572    20477074.712    -5579031.349 9   -107763.108 9
  20215995.126    20215995.269    23449336.692 8 -60934510.361 7
  23060305.016    23060309.073    49453419.290 9 -40898993.884 9
 86  6 17  2  2 29.0800000  0  4G 6G13G 9G11
  22921902.027    22921906.691    49446474.300 8 -40717335.432 9
  20476902.895    20476905.578    -5579920.148 9   -108455.681 9
  20217475.151    20217476.126    23457116.865 9 -60928447.909 8
  23063443.909    23063447.508    49469912.748 9 -40886141.843 9
 86  6 17  2  2 35.0800000  0  4G 6G13G 9G11
  22925974.716    22925978.869    49467876.236 9 -40700658.608 8
  20476737.767    20476739.948    -5580791.770 9   -109134.864 9
  20218960.863    20218959.911    23464922.124 8 -60922365.899 7
  23066582.300    23066587.325    49486408.256 9 -40873288.221 9
 86  6 17  2  2 41.0800000  0  4G 6G13G 9G11
  22930050.397    22930054.487    49489290.599 8 -40683972.108 8
  20476573.497    20476576.982    -5581646.234 9   -109800.682 9
  20220449.749    20220451.058    23472752.666 8 -60916264.175 8
  23069722.811    23069726.489    49502905.772 9 -40860433.014 8
 86  6 17  2  2 47.0800000  0  4G 6G13G 9G11
  22934127.129    22934132.075    49510717.355 9 -40667275.954 9
  20476414.752    20476417.476    -5582483.523 9   -110453.111 8
  20221945.089    20221947.026    23480608.402 9 -60910142.834 8
  23072862.104    23072865.711    49519405.254 9 -40847576.288 9
 86  6 17  2  2 53.0800000  0  4G 6G13G 9G11
  22938206.437    22938211.279    49532156.393 8 -40650570.217 8
  20476258.666    20476261.249    -5583303.650 8   -111092.166 9
  20223445.809    20223444.920    23488489.263 9 -60904001.890 7
  23076001.899    23076005.641    49535906.771 9 -40834717.973 9
 86  6 17  2  2 59.0800000  0  4G 6G13G 9G11
  22942288.441    22942293.319    49553607.785 9 -40633854.875 8
  20476106.703    20476109.200    -5584106.681 9   -111717.896 9
  20224949.086    20224949.235    23496395.300 8 -60897841.370 7
  23079141.450    23079146.474    49552410.264 9 -40821858.111 9
 86  6 17  2  3  5.0800000  0  4G 6G13G 9G11
  22946372.832    22946377.256    49575071.472 9 -40617129.947 8
  20475956.800    20475959.955    -5584892.589 9   -112330.293 9
  20226459.067    20226459.846    23504326.475 7 -60891661.225 7
  23082283.563    23082286.883    49568915.723 9 -40808996.721 9
 86  6 17  2  3 11.0800000  0  4G 6G13G 9G11
  22950459.559    22950464.319    49596547.435 9 -40600395.441 8
  20475810.445    20475812.785    -5585661.435 9   -112929.396 9
  20227973.034    20227974.153    23512282.845 8 -60885461.455 7
  23085425.096    23085426.835    49585423.083 9 -40796133.843 9
 86  6 17  2  3 17.0800000  0  4G 6G13G 9G11
  22954549.080    22954553.285    49618035.647 9 -40583651.395 9
  20475666.524    20475670.094    -5586413.189 9   -113515.174 9
  20229492.048    20229492.397    23520264.266 7 -60879242.173 8
  23088566.485    23088569.699    49601932.346 9 -40783269.493 9
 86  6 17  2  3 23.0800000  0  4G 6G13G 9G11
  22958638.425    22958645.045    49639536.090 8 -40566897.806 8
  20475528.183    20475530.222    -5587147.847 9   -114087.630 9
  20231015.444    20231015.574    23528270.852 8 -60873003.284 8
  23091708.605    23091712.699    49618443.485 9 -40770403.685 9
 86  6 17  2  3 29.0800000  0  4G 6G13G 9G11
  22962732.650    22962739.295    49661048.791 8 -40550134.697 9
  20475390.757    20475394.672    -5587865.312 9   -114646.699 9
  20232543.429    20232543.696    23536302.619 9 -60866744.772 7
  23094850.611    23094853.645    49634956.461 9 -40757536.433 9
 86  6 17  2  3 35.0800000  0  4G 6G13G 9G11
  22966829.811    22966835.123    49682573.661 8 -40533362.086 8
  20475258.598    20475260.680    -5588565.786 9   -115192.516 8
  20234076.828    20234077.553    23544359.399 8 -60860466.770 7
  23097993.847    23097997.095    49651471.337 9 -40744667.709 9
 86  6 17  2  3 41.0800000  0  4G 6G13G 9G11
  22970929.109    22970933.737    49704110.735 9 -40516579.973 8
  20475128.498    20475130.710    -5589249.221 9   -115725.063 9
  20235614.792    20235616.270    23552441.423 7 -60854169.087 7
  23101136.467    23101140.239    49667988.104 9 -40731797.500 8
 86  6 17  2  3 47.0800000  0  4G 6G13G 9G11
  22975030.356    22975033.953    49725659.944 9 -40499788.388 8
  20475001.433    20475003.801    -5589915.592 9   -116244.308 9
  20237157.060    20237157.861    23560548.481 8 -60847851.897 6
  23104280.411    23104283.553    49684506.700 8 -40718925.879 8
 86  6 17  2  3 53.0800000  0  4G 6G13G 9G11
  22979131.774    22979136.700    49747221.234 9 -40482987.404 7
  20474878.975    20474879.855    -5590564.896 9   -116750.258 9
  20238705.770    20238705.368    23568680.698 7 -60841515.114 7
  23107423.440    23107426.224    49701027.178 9 -40706052.774 9
 86  6 17  2  3 59.0800000  0  4G 6G13G 9G11
  22983237.733    22983242.640    49768794.718 9 -40466176.923 8
  20474758.406    20474759.529    -5591197.228 9   -117242.985 9
  20240256.846    20240257.614    23576838.037 8 -60835158.749 7
  23110567.992    23110570.625    49717549.460 9 -40693178.287 8
 86  6 17  2  4  5.0800000  0  3G13G 9G11
  20474641.407    20474642.262    -5591812.625 9   -117722.511 9
  20241812.496    20241812.288    23585020.422 1 -60828782.878 1
  23113712.515    23113715.278    49734073.536 9 -40680302.388 9
 86  6 17  2  4 11.0800000  0  3G13G 9G11
  20474525.267    20474529.307    -5592411.066 4   -118188.823 5
  20243375.150    20243376.159    23593227.854 1 -60822387.475 1
  23116856.797    23116860.369    49750599.349 4 -40667425.139 6
 86  6 17  2  4 17.0800000  0  3G13G 9G11
  20474415.312    20474418.092    -5592992.421 9   -118641.826 9
  20244943.256    20244943.279    23601460.359 1 -60815972.539 1
  23120002.221    23120005.701    49767126.911 9 -40654546.520 9
 86  6 17  2  4 23.0800000  0  4G12G13G 9G11
                  21910685.663   -23512132.640 9
  20474308.513    20474311.037    -5593556.748 9   -119081.559 9
  20246513.662    20246514.785    23609717.977 9 -60809538.040 8
  23123147.367    23123150.697    49783656.248 9 -40641666.532 9
 86  6 17  2  4 29.0800000  0  4G12G13G 9G11
                  21907639.587   -23528088.408 9
  20474204.474    20474206.265    -5594104.123 9   -119508.079 8
  20248089.304    20248091.143    23618000.713 9 -60803083.962 7
  23126291.722    23126297.238    49800187.349 8 -40628785.157 9
 86  6 17  2  4 35.0800000  0  4G12G13G 9G11
                  21904641.791   -23544029.652 9
  20474103.630    20474105.099    -5594634.549 9   -119921.398 9
  20249671.242    20249671.078    23626308.485 8 -60796610.373 7
  23129439.236    23129443.947    49816720.182 9 -40615902.436 9
 86  6 17  2  4 41.0800000  0  4G12G13G 9G11
  21901610.445    21901615.094   -23559956.913 9  29981700.612 8
  20474005.955    20474007.436    -5595148.109 9   -120321.569 9
  20251256.014    20251257.223    23634641.339 7 -60790117.264 7
  23132585.466    23132589.065    49833254.734 9 -40603018.378 9
 86  6 17  2  4 47.0800000  0  4G12G13G 9G11
  21898582.520    21898585.389   -23575869.756 9  29969300.964 9
  20473910.732    20473913.664    -5595644.681 9   -120708.509 9
  20252847.139    20252846.702    23642999.178 8 -60783604.660 7
  23135733.052    23135736.754    49849791.018 9 -40590132.971 8
 86  6 17  2  4 53.0800000  0  4G12G13G 9G11
  21895556.706    21895559.181   -23591768.269 9  29956912.524 9
  20473819.300    20473822.551    -5596124.368 9   -121082.294 9
  20254443.129    20254443.923    23651382.116 8 -60777072.500 7
  23138879.926    23138883.944    49866329.007 9 -40577246.237 8
 86  6 17  2  4 59.0800000  0  4G12G13G 9G11
  21892533.925    21892537.509   -23607652.431 9  29944535.252 9
  20473731.517    20473734.553    -5596587.223 9   -121442.952 9
  20256042.754    20256042.361    23659790.068 9 -60770520.870 8
  23142026.228    23142031.128    49882868.625 9 -40564358.229 9
 86  6 17  2  5  5.0800000  0  4G12G13G 9G11
  21889514.170    21889516.338   -23623522.221 9  29932169.192 9
  20473646.793    20473649.106    -5597033.165 9   -121790.434 9
  20257647.673    20257648.854    23668223.094 8 -60763949.678 7
  23145174.372    23145178.024    49899409.910 9 -40551468.925 8
 86  6 17  2  5 11.0800000  0  4G12G13G 9G11
  21886496.640    21886499.688   -23639377.607 9  29919814.352 9
  20473564.890    20473568.016    -5597462.197 9   -122124.741 8
  20259256.971    20259257.736    23676680.992 8 -60757359.116 8
  23148322.899    23148327.062    49915952.855 9 -40538578.321 9
 86  6 17  2  5 17.0800000  0  4G12G13G 9G11
  21883482.524    21883485.335   -23655218.538 9  29907470.774 9
  20473486.615    20473488.832    -5597874.312 9   -122445.869 8
  20260872.336    20260871.986    23685164.002 8 -60750748.985 7
  23151470.896    23151475.027    49932497.432 9 -40525686.452 9
 86  6 17  2  5 23.0800000  0  4G12G13G 9G11
  21880470.353    21880473.558   -23671045.054 9  29895138.427 9
  20473412.182    20473414.088    -5598269.616 9   -122753.895 9
  20262489.217    20262491.644    23693671.919 8 -60744119.444 7
  23154620.017    23154623.311    49949043.649 8 -40512793.301 9
 86  6 17  2  5 29.0800000  0  4G12G13G 9G11
  21877461.759    21877464.171   -23686857.106 9  29882817.348 9
  20473339.860    20473342.678    -5598648.022 9   -123048.758 8
  20264112.939    20264115.120    23702205.026 8 -60737470.279 7
  23157768.701    23157773.440    49965591.462 9 -40499898.910 9
 86  6 17  2  5 35.0800000  0  4G12G13G 9G11
  21874455.756    21874459.362   -23702654.568 9  29870507.645 9
  20473271.240    20473272.778    -5599009.634 9   -123330.525 8
  20265742.183    20265743.236    23710763.027 8 -60730801.709 7
  23160917.342    23160921.062    49982140.865 9 -40487003.277 9
 86  6 17  2  5 41.0800000  0  4G12G13G 9G11
  21871452.879    21871455.069   -23718437.467 9  29858209.291 8
  20473204.835    20473208.114    -5599354.448 9   -123599.216 9
  20267375.205    20267375.986    23719346.067 8 -60724113.645 7
  23164066.817    23164070.608    49998691.861 9 -40474106.411 9
 86  6 17  2  5 47.0800000  0  4G12G13G 9G11
  21868452.534    21868453.937   -23734205.875 9  29845922.223 8
  20473142.777    20473145.955    -5599682.459 8   -123854.813 8
  20269012.664    20269014.504    23727954.058 8 -60717406.105 8
  23167216.137    23167221.238    50015244.374 9 -40461208.352 9
 86  6 17  2  5 53.0800000  0  4G12G13G 9G11
  21865453.936    21865456.240   -23749959.681 9  29833646.527 9
  20473083.898    20473086.683    -5599993.644 9   -124097.300 9
  20270655.789    20270656.741    23736587.060 9 -60710679.111 7
  23170366.768    23170371.056    50031798.432 9 -40448309.104 9
 86  6 17  2  5 59.0800000  0  4G12G13G 9G11
  21862459.173    21862461.619   -23765698.804 9  29821382.284 9
  20473027.098    20473029.773    -5600288.048 9   -124326.701 9
  20272303.921    20272305.647    23745244.905 8 -60703932.746 7
  23173517.287    23173521.633    50048354.024 8 -40435408.650 9
 86  6 17  2  6  5.0800000  0  4G12G13G 9G11
  21859467.750    21859469.754   -23781423.245 9  29809129.479 9
  20472975.077    20472978.363    -5600565.730 9   -124543.057 9
  20273956.349    20273958.803    23753927.834 8 -60697166.818 7
  23176668.615    23176671.261    50064911.147 9 -40422506.998 9
 86  6 17  2  6 11.0800000  0  4G12G13G 9G11
  21856477.780    21856479.734   -23797133.055 9  29796888.059 9
  20472924.658    20472927.752    -5600826.662 9   -124746.397 9
  20275613.009    20275612.759    23762635.668 9 -60690381.502 8
  23179819.366    23179823.308    50081469.762 9 -40409604.196 9
 86  6 17  2  6 17.0800000  0  4G12G13G 9G11
  21853490.965    21853492.840   -23812828.158 9  29784658.117 9
  20472877.542    20472881.579    -5601070.825 9   -124936.646 8
  20277274.220    20277274.914    23771368.411 8 -60683576.768 7
  23182970.262    23182973.902    50098029.870 8 -40396700.223 8
 86  6 17  2  6 23.0800000  0  4G12G13G 9G11
  21850506.977    21850509.080   -23828508.706 9  29772439.518 8
  20472836.209    20472837.410    -5601298.395 9   -125113.969 8
  20278940.297    20278942.766    23780126.047 8 -60676752.641 7
  23186121.782    23186125.784    50114591.418 9 -40383795.129 9
 86  6 17  2  6 29.0800000  0  4G12G13G 9G11
  21847525.736    21847527.595   -23844174.473 9  29760232.422 9
  20472795.876    20472796.815    -5601509.163 9   -125278.209 8
  20280612.698    20280614.179    23788908.745 8 -60669908.983 8
  23189274.111    23189277.581    50131154.510 9 -40370888.827 9
 86  6 17  2  6 35.0800000  0  4G12G13G 9G11
  21844547.613    21844550.017   -23859825.542 9  29748036.793 9
  20472758.661    20472760.671    -5601703.282 9   -125429.469 8
  20282288.533    20282290.458    23797716.278 8 -60663045.966 7
  23192426.190    23192429.102    50147719.021 8 -40357981.425 8
 86  6 17  2  6 41.0800000  0  4G12G13G 9G11
  21841571.745    21841574.149   -23875461.812 9  29735852.686 8
  20472725.067    20472726.936    -5601880.665 9   -125567.678 8
  20283969.291    20283969.842    23806548.759 8 -60656163.521 7
  23195579.224    23195582.411    50164284.966 9 -40345072.906 9
 86  6 17  2  6 47.0800000  0  4G12G13G 9G11
  21838599.196    21838601.650   -23891083.256 9  29723680.133 9
  20472694.681    20472697.138    -5602041.396 9   -125692.930 9
  20285654.885    20285655.351    23815406.135 8 -60649261.675 7
  23198731.497    23198734.916    50180852.342 8 -40332163.274 9
 86  6 17  2  6 53.0800000  0  4G12G13G 9G11
  21835629.517    21835632.279   -23906689.893 9  29711519.128 9
  20472666.449    20472668.874    -5602185.502 9   -125805.216 9
  20287345.087    20287345.753    23824288.457 8 -60642340.400 8
  23201883.711    23201888.053    50197421.100 9 -40319252.547 9
 86  6 17  2  6 59.0800000  0  4G12G13G 9G11
  21832662.277    21832665.153   -23922281.727 9  29699369.648 9
  20472641.747    20472644.949    -5602312.975 9   -125904.542 8
  20289040.097    20289042.094    23833195.684 8 -60635399.703 7
  23205037.532    23205040.680    50213991.270 9 -40306340.742 9
 86  6 17  2  7  5.0800000  0  4G12G13G 9G11
  21829698.822    21829700.840   -23937858.669 9  29687231.769 8
  20472620.778    20472623.632    -5602423.797 9   -125990.894 8
  20290740.316    20290740.366    23842127.864 8 -60628439.572 7
  23208190.877    23208194.519    50230562.852 9 -40293427.830 9
 86  6 17  2  7 11.0800000  0  4G12G13G 9G11
  21826735.739    21826739.445   -23953420.854 9  29675105.400 9
  20472602.587    20472604.916    -5602518.097 9   -126064.369 9
  20292443.882    20292444.791    23851084.758 8 -60621460.178 8
  23211344.291    23211348.938    50247135.691 9 -40280513.938 8
 86  6 17  2  7 17.0800000  0  4G12G13G 9G11
  21823778.723    21823780.941   -23968967.951 9  29662990.781 9
  20472587.559    20472591.440    -5602595.566 9   -126124.741 9
  20294152.514    20294153.895    23860066.621 8 -60614461.329 7
  23214498.549    23214502.343    50263710.008 8 -40267598.892 9
 86  6 17  2  7 23.0800000  0  4G12G13G 9G11
  21820822.443    21820824.711   -23984500.279 9  29650887.670 9
  20472575.711    20472579.270    -5602656.640 9   -126172.324 9
  20295867.643    20295867.335    23869073.147 8 -60607443.251 7
  23217653.016    23217656.630    50280285.528 9 -40254682.917 9
 86  6 17  2  7 29.0800000  0  4G12G13G 9G11
  21817870.587    21817872.110   -24000017.357 9  29638796.446 9
  20472567.309    20472570.738    -5602700.846 9   -126206.760 9
  20297585.347    20297586.957    23878104.867 8 -60600405.554 7
  23220806.853    23220811.130    50296862.643 9 -40241765.698 9
 86  6 17  2  7 35.0800000  0  4G12G13G 9G11
  21814920.174    21814922.692   -24015519.578 9  29626716.805 8
  20472562.322    20472564.660    -5602728.551 9   -126228.363 9
  20299309.605    20299310.914    23887161.308 7 -60593348.603 7
  23223962.312    23223966.171    50313440.966 9 -40228847.530 9
 86  6 17  2  7 41.0800000  0  4G12G13G 9G11
  21811973.417    21811975.378   -24031006.877 9  29614648.773 8
  20472559.163    20472563.896    -5602739.802 9   -126237.115 9
  20301036.839    20301037.232    23896242.370 8 -60586272.469 8
  23227117.153    23227120.558    50330020.437 9 -40215928.477 8
 86  6 17  2  7 47.0800000  0  4G12G13G 9G11
  21809028.372    21809031.398   -24046479.085 9  29602592.513 9
  20472561.406    20472563.885    -5602734.534 8   -126233.012 9
  20302769.939    20302771.678    23905348.376 8 -60579176.867 8
  23230272.597    23230276.096    50346601.170 8 -40203008.420 8
 86  6 17  2  7 53.0800000  0  4G12G13G 9G11
  21806088.148    21806089.800   -24061936.190 9  29590548.024 8
  20472565.650    20472568.628    -5602712.606 9   -126215.928 9
  20304507.306    20304509.130    23914479.255 8 -60572061.922 7
  23233428.211    23233432.332    50363183.315 9 -40190087.285 9
 86  6 17  2  7 59.0800000  0  4G12G13G 9G11
  21803148.775    21803150.742   -24077378.020 9  29578515.429 9
  20472572.267    20472575.433    -5602674.005 9   -126185.845 8
  20306251.882    20306252.390    23923635.171 7 -60564927.431 7
  23236584.224    23236587.723    50379766.859 9 -40177165.049 9
 86  6 17  2  8  5.0800000  0  4G12G13G 9G11
  21800213.215    21800215.827   -24092804.863 9  29566494.514 8
  20472584.089    20472586.665    -5602618.991 9   -126142.977 9
  20307997.202    20307998.397    23932815.687 9 -60557773.787 7
  23239740.400    23239743.680    50396351.479 8 -40164241.978 8
 86  6 17  2  8 11.0800000  0  4G12G13G 9G11
  21797280.174    21797282.449   -24108216.709 9  29554485.275 9
  20472596.965    20472599.776    -5602547.504 9   -126087.264 9
  20309748.762    20309749.900    23942020.938 8 -60550600.863 8
  23242895.073    23242899.772    50412937.212 9 -40151318.035 8
 86  6 17  2  8 17.0800000  0  4G12G13G 9G11
  21794350.196    21794352.299   -24123613.296 9  29542487.938 8
  20472613.610    20472616.904    -5602459.350 9   -126018.580 8
  20311505.073    20311507.142    23951251.083 8 -60543408.558 8
  23246052.439    23246055.729    50429524.309 8 -40138393.030 9
 86  6 17  2  8 23.0800000  0  4G12G13G 9G11
  21791423.272    21791426.169   -24138994.714 9  29530502.418 9
  20472633.794    20472636.626    -5602354.837 9   -125937.126 9
  20313266.506    20313267.500    23960505.889 7 -60536197.024 7
  23249207.826    23249212.294    50446112.558 9 -40125467.129 9
 86  6 17  2  8 29.0800000  0  4G12G13G 9G11
  21788499.446    21788502.573   -24154361.013 9  29518528.678 9
  20472656.281    20472659.216    -5602233.945 9   -125842.942 8
  20315032.804    20315033.070    23969785.469 8 -60528966.196 8
  23252365.085    23252370.022    50462701.921 9 -40112540.370 9
 86  6 17  2  8 35.0800000  0  4G12G13G 9G11
  21785577.759    21785581.308   -24169712.091 9  29506566.805 9
  20472682.602    20472685.596    -5602096.550 8   -125735.875 9
  20316802.623    20316803.173    23979089.915 9 -60521715.981 7
  23255522.105    23255526.383    50479292.539 9 -40099612.624 9
 86  6 17  2  8 41.0800000  0  4G12G13G 9G11
  21782659.493    21782662.498   -24185047.857 9  29494616.861 9
  20472712.312    20472714.249    -5601942.711 9   -125616.002 9
  20318577.993    20318580.032    23988419.125 8 -60514446.463 7
  23258680.316    23258683.352    50495884.329 9 -40086683.961 9
 86  6 17  2  8 47.0800000  0  4G12G13G 9G11
  21779743.945    21779746.328   -24200368.372 9  29482678.804 9
  20472744.114    20472747.187    -5601772.539 9   -125483.394 8
  20320356.482    20320359.409    23997773.030 8 -60507157.713 8
  23261837.542    23261841.212    50512477.289 9 -40073754.400 9
 86  6 17  2  8 53.0800000  0  4G12G13G 9G11
  21776831.059    21776834.800   -24215673.581 9  29470752.667 8
  20472779.519    20472782.555    -5601585.933 9   -125337.991 9
  20322142.155    20322144.424    24007151.725 8 -60499849.654 8
  23264995.001    23264999.780    50529071.405 9 -40060823.923 9
 86  6 17  2  8 59.0800000  0  4G12G13G 9G11
  21773922.207    21773924.648   -24230963.422 9  29458838.515 9
  20472817.903    20472821.311    -5601382.922 9   -125179.799 9
  20323931.835    20323934.260    24016555.208 7 -60492522.264 7
  23268152.932    23268156.331    50545666.615 9 -40047892.600 9
 86  6 17  2  9  5.0800000  0  4G12G13G 9G11
  21771015.166    21771018.236   -24246237.931 9  29446936.295 9
  20472861.185    20472863.120    -5601163.612 9   -125008.905 8
  20325725.778    20325727.717    24025983.228 7 -60485175.761 7
  23271311.400    23271314.880    50562262.835 9 -40034960.483 9
 86  6 17  2  9 11.0800000  0  4G12G13G 9G11
  21768112.182    21768114.264   -24261497.043 9  29435046.087 8
  20472905.540    20472907.783    -5600927.872 9   -124825.212 9
  20327523.585    20327527.456    24035436.100 8 -60477809.894 9
  23274468.835    23274473.041    50578860.248 9 -40022027.440 9
 86  6 17  2  9 17.0800000  0  4G12G13G 9G11
  21765211.122    21765213.597   -24276740.819 9  29423167.824 8
  20472953.247    20472956.294    -5600675.936 8   -124628.901 8
  20329327.488    20329329.284    24044913.612 9 -60470424.807 7
  23277628.844    23277632.331    50595458.654 9 -40009093.635 8
 86  6 17  2  9 23.0800000  0  4G12G13G 9G11
  21762313.625    21762315.678   -24291969.154 9  29411301.592 8
  20473003.229    20473006.343    -5600407.645 9   -124419.837 8
  20331135.655    20331137.937    24054415.811 7 -60463020.510 8
  23280786.697    23280790.575    50612058.135 9 -39996158.981 9
 86  6 17  2  9 29.0800000  0  4G12G13G 9G11
  21759418.539    21759419.777   -24307182.068 9  29399447.374 8
  20473058.584    20473060.912    -5600122.982 9   -124198.027 9
  20332948.115    20332950.740    24063942.745 8 -60455596.924 7
  23283946.339    23283950.065    50628658.684 9 -39983223.495 9
 86  6 17  2  9 35.0800000  0  4G12G13G 9G11
  21756526.122    21756528.934   -24322379.535 9  29387605.193 9
  20473115.395    20473118.199    -5599822.035 9   -123963.518 9
  20334766.555    20334768.551    24073494.363 8 -60448154.102 7
  23287106.370    23287108.905    50645260.278 9 -39970287.186 9
 86  6 17  2  9 41.0800000  0  4G12G13G 9G11
  21753637.504    21753639.622   -24337561.466 9  29375775.114 8
  20473176.349    20473180.745    -5599504.755 9   -123716.290 9
  20336588.430    20336590.899    24083070.547 9 -60440692.153 7
  23290265.167    23290269.499    50661862.921 9 -39957350.079 9
 86  6 17  2  9 47.0800000  0  4G12G13G 9G11
  21750751.161    21750754.517   -24352727.909 9  29363957.113 8
  20473239.849    20473243.090    -5599171.220 9   -123456.379 8
  20338417.031    20338418.683    24092671.580 7 -60433210.842 7
  23293424.733    23293428.528    50678466.576 9 -39944412.168 9
 86  6 17  2  9 53.0800000  0  4G12G13G 9G11
  21747868.260    21747871.365   -24367878.778 9  29352151.240 9
  20473306.505    20473309.181    -5598821.330 9   -123183.748 8
  20340247.062    20340250.875    24102297.165 9 -60425710.390 7
  23296583.243    23296588.087    50695071.243 9 -39931473.480 9
 86  6 17  2  9 59.0800000  0  4G12G13G 9G11
  21744988.320    21744990.224   -24383014.076 9  29340357.499 9
  20473374.706    20473379.081    -5598455.134 9   -122898.396 9
  20342082.674    20342086.387    24111947.397 7 -60418190.727 7
  23299743.622    23299747.957    50711676.875 9 -39918534.028 9
 86  6 17  2 10  5.0800000  0  4G12G13G 9G11
  21742110.742    21742113.604   -24398133.848 9  29328575.857 9
  20473447.681    20473450.877    -5598072.687 9   -122600.383 9
  20343925.040    20343927.252    24121622.296 8 -60410651.857 8
  23302904.526    23302907.641    50728283.435 9 -39905593.858 9
 86  6 17  2 10 11.0800000  0  4G12G13G 9G11
  21739235.610    21739238.243   -24413237.988 9  29316806.389 8
  20473523.429    20473527.679    -5597673.975 9   -122289.691 8
  20345771.384    20345773.394    24131321.782 8 -60403093.827 7
  23306065.484    23306067.969    50744890.958 9 -39892652.934 9
 86  6 17  2 10 17.0800000  0  4G12G13G 9G11
  21736365.279    21736367.812   -24428326.532 9  29305049.096 9
  20473603.547    20473606.243    -5597259.096 9   -121966.410 8
  20347621.561    20347623.587    24141045.892 8 -60395516.607 7
  23309224.582    23309229.203    50761499.466 9 -39879711.251 9
 86  6 17  2 10 23.0800000  0  4G12G13G 9G11
  21733497.188    21733499.406   -24443399.465 9  29293303.956 8
  20473684.669    20473688.964    -5596827.916 9   -121630.427 8
  20349474.803    20349477.988    24150794.625 8 -60387920.192 8
  23312386.656    23312389.621    50778108.922 9 -39866768.826 9
 86  6 17  2 10 29.0800000  0  4G12G13G 9G11
  21730631.357    21730634.405   -24458456.669 9  29281571.061 8
  20473769.555    20473773.904    -5596380.519 9   -121281.807 9
  20351335.284    20351338.855    24160567.925 7 -60380304.639 7
  23315547.249    23315550.883    50794719.305 9 -39853825.682 9
 86  6 17  2 10 35.0800000  0  4G12G13G 9G11
  21727769.083    21727773.225   -24473498.196 9  29269850.407 8
  20473858.057    20473861.770    -5595917.037 9   -120920.652 9
  20353201.231    20353202.871    24170365.890 8 -60372669.871 7
  23318707.673    23318711.200    50811330.572 9 -39840881.841 9
 86  6 17  2 10 41.0800000  0  4G12G13G 9G11
  21724909.791    21724913.755   -24488524.042 9  29258141.948 8
  20473950.445    20473953.216    -5595437.449 9   -120546.941 8
  20355069.126    20355071.636    24180188.421 8 -60365015.957 7
  23321867.887    23321872.820    50827942.747 9 -39827937.297 8
 86  6 17  2 10 47.0800000  0  4G12G13G 9G11
  21722053.483    21722055.815   -24503534.106 9  29246445.801 9
  20474044.263    20474047.403    -5594941.652 9   -120160.603 8
  20356943.057    20356945.826    24190035.564 8 -60357342.873 9
  23325029.699    23325034.356    50844555.802 8 -39814992.075 9
 86  6 17  2 10 53.0800000  0  4G12G13G 9G11
  21719199.508    21719202.921   -24518528.386 9  29234761.934 8
  20474142.316    20474143.536    -5594429.649 9   -119761.636 9
  20358820.681    20358824.823    24199907.275 8 -60349650.622 7
  23328191.577    23328195.043    50861169.739 9 -39802046.152 9
 86  6 17  2 10 59.0800000  0  4G12G13G 9G11
  21716350.047    21716352.995   -24533506.890 9  29223090.386 9
  20474241.501    20474245.596    -5593901.599 9   -119350.169 9
  20360704.343    20360707.756    24209803.412 8 -60341939.363 8
  23331354.001    23331356.920    50877784.493 9 -39789099.595 9
 86  6 17  2 11  5.0800000  0  4G12G13G 9G11
  21713501.645    21713505.809   -24548469.571 9  29211431.160 9
  20474346.195    20474349.392    -5593357.416 9   -118926.129 8
  20362592.669    20362595.897    24219724.163 8 -60334208.914 7
  23334515.854    23334519.334    50894400.074 8 -39776152.405 9
 86  6 17  2 11 11.0800000  0  4G12G13G 9G11
  21710657.528    21710660.633   -24563416.453 9  29199784.232 9
  20474452.783    20474454.962    -5592797.162 9   -118489.567 8
  20364486.693    20364488.060    24229669.417 9 -60326459.368 7
  23337677.258    23337680.063    50911016.440 9 -39763204.590 9
 86  6 17  2 11 17.0800000  0  4G12G13G 9G11
  21707816.639    21707819.258   -24578347.522 9  29188149.637 8
  20474563.150    20474563.968    -5592220.786 9   -118040.434 8
  20366383.605    20366385.858    24239639.216 8 -60318690.711 7
  23340839.064    23340843.231    50927633.652 9 -39750256.129 9
 86  6 17  2 11 23.0800000  0  4G12G13G 9G11
  21704978.404    21704981.222   -24593262.655 9  29176527.457 9
  20474675.919    20474676.854    -5591628.379 8   -117578.821 9
  20368285.869    20368288.066    24249633.577 8 -60310902.894 7
  23344002.540    23344006.174    50944251.694 9 -39737307.010 9
 86  6 17  2 11 29.0800000  0  4G12G13G 9G11
  21702142.980    21702146.987   -24608161.877 9  29164917.669 9
  20474790.807    20474793.348    -5591019.918 9   -117104.704 9
  20370192.883    20370193.678    24259652.421 8 -60303096.008 7
  23347165.420    23347168.202    50960870.535 9 -39724357.269 9
 86  6 17  2 11 35.0800000  0  4G12G13G 9G11
  21699310.282    21699313.831   -24623045.159 9  29153320.310 8
  20474909.930    20474911.933    -5590395.384 9   -116618.039 9
  20372103.761    20372105.559    24269695.711 9 -60295270.082 8
  23350327.554    23350331.242    50977490.145 8 -39711406.936 9
 86  6 17  2 11 41.0800000  0  4G12G13G 9G11
  21696481.984    21696484.660   -24637912.456 9  29141735.409 8
  20475030.969    20475034.585    -5589754.799 9   -116118.892 9
  20374019.763    20374020.530    24279763.515 8 -60287425.029 8
  23353489.023    23353494.514    50994110.542 9 -39698455.984 9
 86  6 17  2 11 47.0800000  0  4G12G13G 9G11
  21693655.390    21693658.051   -24652763.761 9  29130162.956 8
  20475156.532    20475159.834    -5589098.196 9   -115607.249 9
  20375939.798    20375941.337    24289855.746 8 -60279560.968 8
  23356652.743    23356656.752    51010731.724 9 -39685504.413 9
 86  6 17  2 11 53.0800000  0  4G12G13G 9G11
  21690832.580    21690835.520   -24667599.051 9  29118603.004 9
  20475284.381    20475287.872    -5588425.581 9   -115083.134 9
  20377865.644    20377866.511    24299972.484 9 -60271677.809 8
  23359815.181    23359818.816    51027353.634 9 -39672552.294 9
 86  6 17  2 11 59.0800000  0  4G12G13G 9G11
  21688012.996    21688015.573   -24682418.331 9  29107055.498 9
  20475415.160    20475418.461    -5587736.926 9   -114546.511 9
  20379794.924    20379795.175    24310113.731 8 -60263775.545 7
  23362979.398    23362982.828    51043976.231 9 -39659599.615 9
 86  6 17  2 12  5.0800000  0  4G12G13G 9G11
  21685195.903    21685198.279   -24697221.494 9  29095520.575 9
  20475549.272    20475552.932    -5587032.293 9   -113997.450 8
  20381730.157    20381731.439    24320279.408 8 -60255854.237 8
  23366142.016    23366146.051    51060599.540 9 -39646646.401 9
 86  6 17  2 12 11.0800000  0  4G12G13G 9G11
  21682382.679    21682384.898   -24712008.541 9  29083998.209 9
  20475686.469    20475690.353    -5586311.683 9   -113435.941 9
  20383668.537    20383669.790    24330469.488 7 -60247913.932 7
  23369305.410    23369309.001    51077223.573 8 -39633692.614 9
 86  6 17  2 12 17.0800000  0  4G12G13G 9G11
  21679572.362    21679574.788   -24726779.519 9  29072488.353 8
  20475826.235    20475830.208    -5585575.118 9   -112861.985 9
  20385611.955    20385612.964    24340683.983 8 -60239954.588 8
  23372468.314    23372472.460    51093848.315 9 -39620738.290 9
 86  6 17  2 12 23.0800000  0  4G12G13G 9G11
  21676764.276    21676767.209   -24741534.372 9  29060991.065 8
  20475970.203    20475973.718    -5584822.617 9   -112275.624 9
  20387560.209    20387563.079    24350922.934 9 -60231976.189 7
  23375632.942    23375636.891    51110473.730 9 -39607783.421 9
 86  6 17  2 12 29.0800000  0  4G12G13G 9G11
  21673959.409    21673961.985   -24756273.089 9  29049506.361 9
  20476115.878    20476119.368    -5584054.116 9   -111676.789 9
  20389513.299    20389516.082    24361186.286 8 -60223978.781 8
  23378797.670    23378800.174    51127099.766 9 -39594828.074 9
 86  6 17  2 12 35.0800000  0  4G12G13G 9G11
  21671157.420    21671160.510   -24770995.633 9  29038034.251 9
  20476265.001    20476267.891    -5583269.769 9   -111065.608 8
  20391471.570    20391473.351    24371474.016 8 -60215962.375 7
  23381961.018    23381964.147    51143726.442 9 -39581872.239 9
 86  6 17  2 12 41.0800000  0  4G12G13G 9G11
  21668359.637    21668361.574   -24785702.019 9  29026574.722 8
  20476417.473    20476420.977    -5582469.469 9   -110442.000 8
  20393433.046    20393435.399    24381786.215 7 -60207926.914 8
  23385124.786    23385128.275    51160353.751 9 -39568915.890 8
 86  6 17  2 12 47.0800000  0  4G12G13G 9G11
  21665563.785    21665565.960   -24800392.175 9  29015127.854 9
  20476572.280    20476575.950    -5581653.290 9   -109806.011 9
  20395400.874    20395402.771    24392122.683 8 -60199872.513 7
  23388288.728    23388291.730    51176981.678 9 -39555959.074 9
 86  6 17  2 12 53.0800000  0  4G12G13G 9G11
  21662771.576    21662773.299   -24815066.028 9  29003693.689 9
  20476730.852    20476734.657    -5580821.180 9   -109157.608 9
  20397371.994    20397372.803    24402483.503 9 -60191799.169 8
  23391452.240    23391456.808    51193610.126 9 -39543001.849 9
 86  6 17  2 12 59.0800000  0  4G12G13G 9G11
  21659982.742    21659985.104   -24829723.612 9  28992272.200 9
  20476892.359    20476895.535    -5579973.210 9   -108496.859 9
  20399348.494    20399350.090    24412868.695 8 -60183706.809 8
  23394617.251    23394620.607    51210239.180 9 -39530044.158 9
 86  6 17  2 13  5.0800000  0  4G12G13G 9G11
  21657196.070    21657198.274   -24844364.938 9  28980863.371 8
  20477056.701    20477060.756    -5579109.432 8   -107823.781 9
  20401329.917    20401332.427    24423278.269 8 -60175595.458 8
  23397783.085    23397785.213    51226868.879 9 -39517085.952 9
 86  6 17  2 13 11.0800000  0  4G12G13G 9G11
  21654413.347    21654415.851   -24858990.015 9  28969467.209 8
  20477223.771    20477227.845    -5578229.837 9   -107138.382 9
  20403316.090    20403316.469    24433712.267 7 -60167465.080 8
  23400946.397    23400949.991    51243499.132 9 -39504127.320 9
 86  6 17  2 13 17.0800000  0  4G12G13G 9G11
  21651633.343    21651635.769   -24873598.779 9  28958083.762 8
  20477393.940    20477397.759    -5577334.412 9   -106440.635 9
  20405304.438    20405306.821    24444170.488 8 -60159315.827 7
  23404111.468    23404115.331    51260129.905 8 -39491168.274 8
 86  6 17  2 13 23.0800000  0  4G12G13G 9G11
  21648856.487    21648858.812   -24888191.110 9  28946713.113 9
  20477568.906    20477571.251    -5576423.193 9   -105730.593 9
  20407299.312    20407301.737    24454653.042 8 -60151147.609 7
  23407276.822    23407279.788    51276761.213 9 -39478208.816 9
 86  6 17  2 13 29.0800000  0  4G12G13G 9G11
  21646082.729    21646085.283   -24902767.074 9  28935355.231 8
  20477745.635    20477748.024    -5575496.189 9   -105008.252 9
  20409299.394    20409299.658    24465159.881 8 -60142960.467 8
  23410441.729    23410444.849    51293393.039 9 -39465248.966 9
 86  6 17  2 13 35.0800000  0  4G12G13G 9G11
  21643311.732    21643314.072   -24917326.549 9  28924010.176 9
  20477924.796    20477926.949    -5574553.398 9   -104273.610 9
  20411303.653    20411304.991    24475691.071 9 -60134754.346 7
  23413605.950    23413609.187    51310025.364 9 -39452288.715 8
 86  6 17  2 13 41.0800000  0  4G12G13G 9G11
  21640544.013    21640547.891   -24931869.554 9  28912677.969 9
  20478107.285    20478109.657    -5573594.838 9   -103526.678 9
  20413311.748    20413313.788    24486246.577 9 -60126529.290 7
  23416771.433    23416774.523    51326658.212 9 -39439328.070 9
 86  6 17  2 13 47.0800000  0  4G12G13G 9G11
  21637779.420    21637782.281   -24946396.121 9  28901358.563 8
  20478292.890    20478295.404    -5572620.610 9   -102767.537 9
  20415324.909    20415326.090    24496826.298 8 -60118285.354 8
  23419936.762    23419940.707    51343291.530 9 -39426367.044 8
 86  6 17  2 13 53.0800000  0  4G12G13G 9G11
  21635018.161    21635021.702   -24960906.217 9  28890051.998 9
  20478480.651    20478483.098    -5571630.714 9   -101996.183 9
  20417342.620    20417344.386    24507430.249 8 -60110022.536 8
  23423100.209    23423106.126    51359925.342 9 -39413405.639 8
 86  6 17  2 13 59.0800000  0  4G12G13G 9G11
  21632259.899    21632263.691   -24975399.834 9  28878758.272 9
  20478672.099    20478674.422    -5570625.092 9   -101212.592 9
  20419366.025    20419367.463    24518058.483 8 -60101740.799 7
  23426266.225    23426271.359    51376559.691 8 -39400443.823 9
 86  6 17  2 14  5.0800000  0  4G12G13G 9G11
  21629504.929    21629509.100   -24989876.988 9  28867477.374 9
  20478866.696    20478869.049    -5569603.698 9   -100416.693 9
  20421393.065    20421394.160    24528710.916 9 -60093440.203 7
  23429431.555    23429436.542    51393194.451 9 -39387481.674 9
 86  6 17  2 14 11.0800000  0  4G12G13G 9G11
  21626753.529    21626755.805   -25004337.632 9  28856209.344 8
  20479062.875    20479065.750    -5568566.649 9    -99608.610 9
  20423423.998    20423425.794    24539387.601 8 -60085120.723 7
  23432597.611    23432601.817    51409829.625 8 -39374519.200 9
 86  6 17  2 14 17.0800000  0  4G12G13G 9G11
  21624004.440    21624008.089   -25018781.711 9  28844954.217 8
  20479264.081    20479266.823    -5567513.879 9    -98788.263 9
  20425459.853    20425462.235    24550088.502 8 -60076782.365 8
  23435762.364    23435767.321    51426465.272 8 -39361556.371 9
 86  6 17  2 14 23.0800000  0  4G12G13G 9G11
  21621259.014    21621262.634   -25033209.178 9  28833712.035 9
  20479468.326    20479469.731    -5566445.421 9    -97955.708 9
  20427501.030    20427503.141    24560813.557 8 -60068425.184 8
  23438928.931    23438933.735    51443101.377 9 -39348593.181 9
 86  6 17  2 14 29.0800000  0  4G12G13G 9G11
  21618516.786    21618520.886   -25047620.036 9  28822482.796 9
  20479673.914    20479676.536    -5565361.302 9    -97110.939 9
  20429546.387    20429548.182    24571562.870 8 -60060049.096 7
  23442095.505    23442099.579    51459737.873 9 -39335629.681 9
 86  6 17  2 14 35.0800000  0  4G12G13G 9G11
  21615777.714    21615781.785   -25062014.270 9  28811266.512 8
  20479882.821    20479886.440    -5564261.570 9    -96254.008 9
  20431596.551    20431598.904    24582336.378 9 -60051654.171 8
  23445261.782    23445265.370    51476374.709 8 -39322665.922 9
 86  6 17  2 14 41.0800000  0  4G12G13G 9G11
  21613042.118    21613045.402   -25076391.862 9  28800063.202 8
  20480094.801    20480097.629    -5563146.220 9    -95384.899 9
  20433651.236    20433653.776    24593134.006 9 -60043240.439 7
  23448426.457    23448430.359    51493011.922 9 -39309701.870 9
 86  6 17  2 14 47.0800000  0  4G12G13G 9G11
  21610310.093    21610312.561   -25090752.732 9  28788872.906 8
  20480309.732    20480313.126    -5562015.281 8    -94503.645 8
  20435710.672    20435712.626    24603955.827 9 -60034807.853 8
  23451593.596    23451596.103    51509649.478 9 -39296737.540 9
 86  6 17  2 14 53.0800000  0  4G12G13G 9G11
  21607579.992    21607583.040   -25105096.908 9  28777695.637 9
  20480527.962    20480531.581    -5560868.726 9    -93610.230 9
  20437773.342    20437776.985    24614801.865 8 -60026356.405 8
  23454758.400    23454762.563    51526287.399 9 -39283772.928 8
 86  6 17  2 14 59.0800000  0  4G12G13G 9G11
  21604853.455    21604856.731   -25119424.333 9  28766531.415 9
  20480749.468    20480751.836    -5559706.568 9    -92704.636 8
  20439843.110    20439845.176    24625671.999 8 -60017886.174 7
  23457925.886    23457929.312    51542925.687 9 -39270808.040 8
 86  6 17  2 15  5.0800000  0  4G12G13G 9G11
  21602130.244    21602133.542   -25133735.003 9  28755380.239 9
  20480974.205    20480976.772    -5558528.774 9    -91786.895 9
  20441915.939    20441918.093    24636566.298 9 -60009397.123 8
  23461092.972    23461095.221    51559564.319 9 -39257842.882 8
 86  6 17  2 15 11.0800000  0  4G12G13G 9G11
  21599410.795    21599412.834   -25148028.993 9  28744242.064 8
  20481201.542    20481204.328    -5557335.403 9    -90856.990 9
  20443993.807    20443996.561    24647484.647 9 -60000889.325 8
  23464258.322    23464260.915    51576203.323 9 -39244877.427 9
 86  6 17  2 15 17.0800000  0  4G12G13G 9G11
  21596694.003    21596696.149   -25162306.118 9  28733117.031 9
  20481430.325    20481432.080    -5556126.440 9    -89914.941 9
  20446076.394    20446077.762    24658427.059 7 -59992362.771 7
  23467424.578    23467428.265    51592842.614 8 -39231911.755 9
 86  6 17  2 15 23.0800000  0  4G12G13G 9G11
  21593980.343    21593983.076   -25176566.380 9  28722005.136 8
  20481663.955    20481666.419    -5554902.021 9    -88960.844 9
  20448162.674    20448165.716    24669393.597 8 -59983817.422 8
  23470590.848    23470594.196    51609482.155 9 -39218945.880 9
 86  6 17  2 15 29.0800000  0  4G12G13G 9G11
  21591269.860    21591272.501   -25190809.808 9  28710906.369 9
  20481899.838    20481902.864    -5553662.032 9    -87994.617 9
  20450254.135    20450256.847    24680384.330 8 -59975253.228 8
  23473757.676    23473759.743    51626121.957 9 -39205979.811 9
 86  6 17  2 15 35.0800000  0  4G12G13G 9G11
  21588562.632    21588565.867   -25205036.386 9  28699820.722 9
  20482138.308    20482140.217    -5552406.509 8    -87016.288 8
  20452352.206    20452353.187    24691399.148 8 -59966670.259 7
  23476923.327    23476926.883    51642762.036 8 -39193013.525 9
 86  6 17  2 15 41.0800000  0  4G12G13G 9G11
  21585858.410    21585860.363   -25219246.061 9  28688748.260 8
  20482379.891    20482382.879    -5551135.517 9    -86025.907 9
  20454451.536    20454452.803    24702437.855 8 -59958068.687 7
  23480090.578    23480093.067    51659402.349 8 -39180047.054 9
 86  6 17  2 15 47.0800000  0  4G12G13G 9G11
  21583157.557    21583159.846   -25233438.825 9  28677688.957 8
  20482624.509    20482627.013    -5549849.048 9    -85023.464 8
  20456556.505    20456558.143    24713500.707 9 -59949448.280 8
  23483257.446    23483259.452    51676042.943 9 -39167080.362 8
 86  6 17  2 15 53.0800000  0  4G12G13G 9G11
  21580460.633    21580462.071   -25247614.634 9  28666642.877 9
  20482872.331    20482876.247    -5548547.105 9    -84008.965 9
  20458665.708    20458667.777    24724587.628 9 -59940809.116 7
  23486423.379    23486427.356    51692683.791 9 -39154113.473 8
 86  6 17  2 15 59.0800000  0  4G12G13G 9G11
  21577765.868    21577768.050   -25261773.505 9  28655609.999 8
  20483122.612    20483125.588    -5547229.752 9    -82982.448 9
  20460780.436    20460781.945    24735698.536 8 -59932151.281 8
  23489590.908    23489594.121    51709324.853 9 -39141146.419 9
 86  6 17  2 16  5.0800000  0  4G12G13G 9G11
  21575074.266    21575077.136   -25275915.416 9  28644590.330 9
  20483376.645    20483380.388    -5545896.895 9    -81943.867 9
  20462898.912    20462901.437    24746833.532 8 -59923474.664 8
  23492756.960    23492759.739    51725966.105 9 -39128179.215 9
 86  6 17  2 16 11.0800000  0  4G12G13G 9G11
  21572386.857    21572389.311   -25290040.272 9  28633583.949 9
  20483634.416    20483636.712    -5544548.627 9    -80893.262 8
  20465022.167    20465023.748    24757992.461 8 -59914779.404 8
  23495923.760    23495926.957    51742607.568 9 -39115211.853 9
 86  6 17  2 16 17.0800000  0  4G12G13G 9G11
  21569702.081    21569703.848   -25304148.141 9  28622590.816 9
  20483893.081    20483894.253    -5543184.953 9    -79830.660 9
  20467150.143    20467153.844    24769175.491 7 -59906065.366 7
  23499090.119    23499093.861    51759249.192 9 -39102244.359 8
 86  6 17  2 16 23.0800000  0  4G12G13G 9G11
  21567020.624    21567022.791   -25318238.915 9  28611610.987 9
  20484155.529    20484158.634    -5541805.922 9    -78756.097 9
  20469282.785    20469285.442    24780382.385 9 -59897332.725 8
  23502258.074    23502260.431    51775890.989 8 -39089276.729 8
 86  6 17  2 16 29.0800000  0  4G12G13G 9G11
  21564342.086    21564344.454   -25332312.590 9  28600644.490 9
  20484420.106    20484423.565    -5540411.658 8    -77669.647 8
  20471421.037    20471422.992    24791613.311 8 -59888581.367 8
  23505424.820    23505428.283    51792532.944 8 -39076308.979 8
 86  6 17  2 16 35.0800000  0  4G12G13G 9G11
  21561667.963    21561669.852   -25346369.024 9  28589691.444 9
  20484689.079    20484691.948    -5539001.932 9    -76571.162 9
  20473562.666    20473564.033    24802868.166 8 -59879811.339 8
  23508591.151    23508594.738    51809175.056 8 -39063341.095 9
 86  6 17  2 16 41.0800000  0  4G12G13G 9G11
  21558996.329    21558998.455   -25360408.388 9  28578751.659 9
  20484961.309    20484963.497    -5537576.850 9    -75460.710 8
  20475709.560    20475710.426    24814147.092 9 -59871022.593 8
  23511756.891    23511761.574    51825817.277 9 -39050373.148 9
 86  6 17  2 16 47.0800000  0  4G12G13G 9G11
  21556327.379    21556329.669   -25374430.707 9  28567825.198 8
  20485234.815    20485238.079    -5536136.382 9    -74338.264 8
  20477859.660    20477860.812    24825449.903 8 -59862215.209 8
  23514925.673    23514929.629    51842459.608 7 -39037405.103 8
 86  6 17  2 16 53.0800000  0  4G12G13G 9G11
  21553662.893    21553665.319   -25388435.855 9  28556912.089 9
  20485511.938    20485515.031    -5534680.547 8    -73203.850 9
  20480015.196    20480017.894    24836776.556 8 -59853389.253 7
  23518092.577    23518095.129    51859102.065 9 -39024436.963 9
 86  6 17  2 16 59.0800000  0  4G12G13G 9G11
  21551000.232    21551003.237   -25402423.855 9  28546012.355 8
  20485792.258    20485794.425    -5533209.449 9    -72057.534 9
  20482174.367    20482176.965    24848127.194 8 -59844544.602 7
  23521259.472    23521262.606    51875744.584 9 -39011468.777 9
 86  6 17  2 17  5.0800000  0  4G12G13G 9G11
  21548342.121    21548345.097   -25416394.556 9  28535126.093 9
  20486073.981    20486076.327    -5531723.091 9    -70899.331 9
  20484339.233    20484341.717    24859501.700 8 -59835681.360 8
  23524425.670    23524429.029    51892387.157 8 -38998500.540 8
 86  6 17  2 17 11.0800000  0  4G12G13G 9G11
  21545686.285    21545689.704   -25430348.040 9  28524253.243 9
  20486359.396    20486362.110    -5530221.452 9    -69729.232 9
  20486508.851    20486511.778    24870900.046 8 -59826799.543 8
  23527592.761    23527596.015    51909029.840 8 -38985532.219 9
 86  6 17  2 17 17.0800000  0  4G12G13G 9G11
  21543034.927    21543036.809   -25444284.252 9  28513393.864 9
  20486649.060    20486651.439    -5528704.495 9    -68547.184 9
  20488682.704    20488683.785    24882322.351 8 -59817899.048 7
  23530759.946    23530763.759    51925672.612 9 -38972563.828 9
 86  6 17  2 17 23.0800000  0  4G12G13G 9G11
  21540384.857    21540388.929   -25458203.157 9  28502547.961 9
  20486940.911    20486943.615    -5527172.325 8    -67353.284 9
  20490861.135    20490862.888    24893768.528 9 -59808979.956 8
  23533926.788    23533931.231    51942315.459 9 -38959595.378 9
 86  6 17  2 17 29.0800000  0  4G12G13G 9G11
  21537740.805    21537743.123   -25472104.789 9  28491715.519 9
  20487234.020    20487238.481    -5525624.936 9    -66147.524 9
  20493042.286    20493044.969    24905238.526 8 -59800042.303 7
  23537094.919    23537097.451    51958958.355 9 -38946626.896 8
 86  6 17  2 17 35.0800000  0  4G12G13G 9G11
  21535097.575    21535101.840   -25485989.082 9  28480896.589 9
  20487531.544    20487535.696    -5524062.265 9    -64929.846 9
  20495230.934    20495232.987    24916732.396 8 -59791086.035 8
  23540260.967    23540264.916    51975601.277 8 -38933658.395 9
 86  6 17  2 17 41.0800000  0  4G12G13G 9G11
  21532458.867    21532463.519   -25499856.020 9  28470091.184 9
  20487832.456    20487835.965    -5522484.419 8    -63700.365 8
  20497422.500    20497423.940    24928250.052 9 -59782111.250 8
  23543427.931    23543432.657    51992244.205 8 -38920689.881 8
 86  6 17  2 17 47.0800000  0  4G12G13G 9G11
  21529824.008    21529828.230   -25513705.585 9  28459299.326 9
  20488135.646    20488137.967    -5520891.406 9    -62459.049 8
  20499617.359    20499620.357    24939791.561 7 -59773117.876 9
  23546594.727    23546598.522    52008887.065 9 -38907721.424 9
 86  6 17  2 17 53.0800000  0  4G12G13G 9G11
  21527191.339    21527195.446   -25527537.693 9  28448521.053 9
  20488442.815    20488444.893    -5519283.284 9    -61205.978 9
  20501819.201    20501822.342    24951356.843 8 -59764105.979 8
  23549761.515    23549766.080    52025529.931 9 -38894752.968 9
 86  6 17  2 17 59.0800000  0  4G12G13G 9G11
  21524563.514    21524566.490   -25541352.390 9  28437756.358 9
  20488752.463    20488753.509    -5517659.956 9    -59941.034 9
  20504024.019    20504027.375    24962945.915 9 -59755075.533 7
  23552928.165    23552932.686    52042172.764 8 -38881784.536 9
 86  6 17  2 18  5.0800000  0  4G12G13G 9G11
  21521937.999    21521940.997   -25555149.676 9  28427005.222 8
  20489063.247    20489065.811    -5516021.439 9    -58664.280 9
  20506234.588    20506236.300    24974558.821 9 -59746026.522 8
  23556095.870    23556100.563    52058815.531 9 -38868816.158 8
 86  6 17  2 18 11.0800000  0  4G12G13G 9G11
  21519315.932    21519319.309   -25568929.545 9  28416267.668 8
  20489377.666    20489380.252    -5514367.863 9    -57375.775 9
  20508448.049    20508450.661    24986195.295 9 -59736959.135 7
  23559263.445    23559267.233    52075458.266 8 -38855847.787 9
 86  6 17  2 18 17.0800000  0  4G12G13G 9G11
  21516697.364    21516699.955   -25582691.917 9  28405543.742 8
  20489694.583    20489697.530    -5512699.104 9    -56075.450 9
  20510667.462    20510670.689    24997855.639 8 -59727873.170 8
  23562430.395    23562433.589    52092100.977 9 -38842879.461 9
 86  6 17  2 18 23.0800000  0  4G12G13G 9G11
  21514081.272    21514085.000   -25596436.735 9  28394833.493 9
  20490016.071    20490017.684    -5511015.148 9    -54763.275 8
  20512890.653    20512893.235    25009539.680 8 -59718768.726 8
  23565596.966    23565601.244    52108743.569 8 -38829911.215 9
 86  6 17  2 18 29.0800000  0  4G12G13G 9G11
  21511468.349    21511471.762   -25610163.949 9  28384136.957 9
  20490338.050    20490341.558    -5509316.136 9    -53439.368 9
  20515118.881    20515120.291    25021247.505 8 -59709645.762 7
  23568763.701    23568768.587    52125386.070 9 -38816943.034 9
 86  6 17  2 18 35.0800000  0  4G12G13G 9G11
  21508860.664    21508862.238   -25623873.607 9  28373454.101 9
  20490664.593    20490666.971    -5507602.082 9    -52103.744 8
  20517351.401    20517353.641    25032979.068 8 -59700504.285 7
  23571931.603    23571934.929    52142028.492 9 -38803974.923 8
 86  6 17  2 18 41.0800000  0  4G12G13G 9G11
  21506255.561    21506257.536   -25637565.689 9  28362784.951 8
  20490993.253    20490995.639    -5505872.968 8    -50756.386 9
  20519588.071    20519591.312    25044734.381 9 -59691344.303 8
  23575097.407    23575102.290    52158670.815 9 -38791006.883 9
 86  6 17  2 18 47.0800000  0  4G12G13G 9G11
  21503653.298    21503655.652   -25651240.203 9  28352129.481 9
  20491325.960    20491328.334    -5504128.804 9    -49397.291 9
  20521828.260    20521831.688    25056513.328 8 -59682165.917 8
  23578265.538    23578268.953    52175313.052 9 -38778038.918 8
 86  6 17  2 18 53.0800000  0  4G12G13G 9G11
  21501053.311    21501055.994   -25664897.147 9  28341487.705 9
  20491659.604    20491662.970    -5502369.647 9    -48026.531 9
  20524074.919    20524077.473    25068315.854 8 -59672969.143 8
  23581432.280    23581434.773    52191955.188 8 -38765071.040 9
 86  6 17  2 18 59.0800000  0  4G12G13G 9G11
  21498458.811    21498460.435   -25678536.355 9  28330859.757 9
  20491997.434    20492000.667    -5500595.519 9    -46644.086 9
  20526326.126    20526329.411    25080142.065 9 -59663753.923 8
  23584598.421    23584602.852    52208597.154 8 -38752103.265 9
 86  6 17  2 19  5.0800000  0  4G12G13G 9G11
  21495866.150    21495867.467   -25692157.848 9  28320245.603 9
  20492337.750    20492341.376    -5498806.367 9    -45249.949 8
  20528581.398    20528584.067    25091992.016 9 -59654520.211 7
  23587765.857    23587769.549    52225238.989 9 -38739135.614 9
 86  6 17  2 19 11.0800000  0  4G12G13G 9G11
  21493278.169    21493279.678   -25705761.657 9  28309645.242 9
  20492681.002    20492685.755    -5497002.185 9    -43844.073 9
  20530839.789    20530843.747    25103865.519 9 -59645268.133 8
  23590933.204    23590937.150    52241880.608 9 -38726168.128 9
 86  6 17  2 19 17.0800000  0  4G12G13G 9G11
  21490692.619    21490694.887   -25719347.809 9  28299058.626 8
  20493027.688    20493030.850    -5495182.980 9    -42426.509 8
  20533105.479    20533107.060    25115762.741 8 -59635997.579 8
  23594099.482    23594103.820    52258522.002 8 -38713200.806 9
 86  6 17  2 19 23.0800000  0  4G12G13G 9G11
  21488110.211    21488112.930   -25732916.253 9  28288485.807 8
  20493375.752    20493379.494    -5493348.868 9    -40997.335 9
  20535373.514    20535374.795    25127683.464 9 -59626708.702 8
  23597265.412    23597269.997    52275163.232 9 -38700233.625 8
 86  6 17  2 19 29.0800000  0  4G12G13G 9G11
  21485531.695    21485534.470   -25746466.910 9  28277926.866 9
  20493728.985    20493732.097    -5491499.814 9    -39556.517 9
  20537646.673    20537647.911    25139627.813 9 -59617401.427 8
  23600432.014    23600435.624    52291804.260 9 -38687266.598 9
 86  6 17  2 19 35.0800000  0  4G12G13G 9G11
  21482956.677    21482958.544   -25759999.804 9  28267381.744 9
  20494083.804    20494086.983    -5489635.809 9    -38104.027 9
  20539924.267    20539926.779    25151595.797 8 -59608075.718 7
  23603599.301    23603603.078    52308445.035 8 -38674299.765 9
 86  6 17  2 19 41.0800000  0  4G12G13G 9G11
  21480384.879    21480386.638   -25773514.878 9  28256850.522 9
  20494441.037    20494443.773    -5487756.879 9    -36639.932 9
  20542205.295    20542207.921    25163587.367 8 -59598731.652 7
  23606765.853    23606769.459    52325085.598 9 -38661333.103 9
 86  6 17  2 19 47.0800000  0  4G12G13G 9G11
  21477816.057    21477817.731   -25787012.101 9  28246333.201 9
  20494801.159    20494804.678    -5485863.075 9    -35164.236 9
  20544492.248    20544493.815    25175602.565 9 -59589369.162 7
  23609931.680    23609936.827    52341725.926 9 -38648366.617 9
 86  6 17  2 19 53.0800000  0  4G12G13G 9G11
  21475249.996    21475253.438   -25800491.428 9  28235829.831 9
  20495165.096    20495166.687    -5483954.390 9    -33676.942 9
  20546783.035    20546784.875    25187641.208 9 -59579988.423 8
  23613098.887    23613102.285    52358366.028 9 -38635400.299 9
 86  6 17  2 19 59.0800000  0  4G12G13G 9G11
  21472688.830    21472691.806   -25813952.842 9  28225340.421 9
  20495531.448    20495532.215    -5482030.805 9    -32178.043 9
  20549078.687    20549079.410    25199703.440 8 -59570589.276 8
  23616265.887    23616269.081    52375005.906 9 -38622434.176 9
 86  6 17  2 20  5.0800000  0  4G12G13G 9G11
  21470130.833    21470133.488   -25827396.384 9  28214864.934 9
  20495898.967    20495901.897    -5480092.351 9    -30667.562 9
  20551378.289    20551379.828    25211789.164 9 -59561171.844 7
  23619432.050    23619435.745    52391645.491 9 -38609468.272 9
 86  6 17  2 20 11.0800000  0  4G12G13G 9G11
  21467575.404    21467578.152   -25840822.114 9  28204403.327 9
  20496271.837    20496272.985    -5478139.055 9    -29145.517 9
  20553683.243    20553684.738    25223898.371 9 -59551736.104 7
  23622598.381    23622602.143    52408284.797 9 -38596502.584 9
 86  6 17  2 20 17.0800000  0  4G12G13G 9G11
  21465023.976    21465026.565   -25854229.911 9  28193955.687 8
  20496646.827    20496647.675    -5476170.921 9    -27611.898 9
  20555990.543    20555994.242    25236031.136 9 -59542282.011 8
  23625764.125    23625768.535    52424923.810 9 -38583537.125 9
 86  6 17  2 20 23.0800000  0  4G12G13G 9G11
  21462475.960    21462479.265   -25867619.705 9  28183522.089 9
  20497023.317    20497025.455    -5474187.927 9    -26066.708 8
  20558304.597    20558307.266    25248187.369 9 -59532809.622 8
  23628930.517    23628934.244    52441562.539 9 -38570571.895 9
 86  6 17  2 20 29.0800000  0  4G12G13G 9G11
  21459931.556    21459934.668   -25880991.477 9  28173102.533 9
  20497403.398    20497405.014    -5472190.174 9    -24510.024 9
  20560622.028    20560624.183    25260367.032 9 -59523318.984 8
  23632097.385    23632100.535    52458200.929 8 -38557606.924 9
 86  6 17  2 20 35.0800000  0  4G12G13G 9G11
  21457390.552    21457392.805   -25894345.238 9  28162697.001 9
  20497786.884    20497789.148    -5470177.666 9    -22941.835 8
  20562944.811    20562945.920    25272570.133 9 -59513810.074 8
  23635263.285    23635267.177    52474838.959 8 -38544642.226 9
 86  6 17  2 20 41.0800000  0  4G12G13G 9G11
  21454852.852    21454856.243   -25907680.957 9  28152305.528 9
  20498172.005    20498174.179    -5468150.418 9    -21362.163 9
  20565270.513    20565273.940    25284796.731 8 -59504282.855 7
  23638428.779    23638433.773    52491476.667 9 -38531677.796 9
 86  6 17  2 20 47.0800000  0  4G12G13G 9G11
  21452318.522    21452321.534   -25920998.635 9  28141928.123 9
  20498560.815    20498563.375    -5466108.390 8    -19770.975 9
  20567602.224    20567603.562    25297046.726 9 -59494737.420 8
  23641594.159    23641598.831    52508114.034 9 -38518713.614 9
 86  6 17  2 20 53.0800000  0  4G12G13G 9G11
  21449787.441    21449791.190   -25934298.233 9  28131564.795 9
  20498952.293    20498955.264    -5464051.484 9    -18168.190 9
  20569937.771    20569939.509    25309320.145 8 -59485173.732 8
  23644761.245    23644764.828    52524751.100 9 -38505749.668 9
 86  6 17  2 20 59.0800000  0  4G12G13G 9G11
  21447260.008    21447263.922   -25947579.709 9  28121215.595 8
  20499346.113    20499349.186    -5461979.853 9    -16553.931 9
  20572279.270    20572279.893    25321616.932 8 -59475591.811 8
  23647926.294    23647930.290    52541387.837 9 -38492785.989 9
 86  6 17  2 21  5.0800000  0  4G12G13G 9G11
  21444736.440    21444740.403   -25960843.014 9  28110880.545 9
  20499743.491    20499746.316    -5459893.460 9    -14928.180 8
  20574622.457    20574625.083    25333937.171 9 -59465991.629 8
  23651093.456    23651096.993    52558024.168 8 -38479822.631 9
 86  6 17  2 21 11.0800000  0  4G12G13G 9G11
  21442215.703    21442219.653   -25974088.159 9  28100559.657 8
  20500143.777    20500147.088    -5457792.404 9    -13290.989 9
  20576972.285    20576974.024    25346280.813 9 -59456373.215 9
  23654258.688    23654262.973    52574660.063 9 -38466859.607 9
 86  6 17  2 21 17.0800000  0  4G12G13G 9G11
  21439698.066    21439702.337   -25987315.160 9  28090252.900 9
  20500545.425    20500548.779    -5455676.730 9    -11642.405 9
  20579325.402    20579327.413    25358647.785 9 -59446736.632 8
  23657424.554    23657427.791    52591295.521 8 -38453896.917 9
 86  6 17  2 21 23.0800000  0  4G12G13G 9G11
  21437184.642    21437189.800   -26000523.985 9  28079960.306 8
  20500951.437    20500953.755    -5453546.449 9     -9982.454 8
  20581682.413    20581683.722    25371038.158 8 -59437081.798 8
  23660590.370    23660593.707    52607930.551 9 -38440934.565 9
 86  6 17  2 21 29.0800000  0  4G12G13G 9G11
  21434675.181    21434679.081   -26013714.586 9  28069681.908 9
  20501359.185    20501362.393    -5451401.538 9     -8311.093 9
  20584044.345    20584046.556    25383451.793 9 -59427408.834 8
  23663755.957    23663759.323    52624565.149 8 -38427972.546 9
 86  6 17  2 21 35.0800000  0  4G12G13G 9G11
  21432168.891    21432171.961   -26026886.888 9  28059417.779 9
  20501769.286    20501773.736    -5449241.971 9     -6628.312 9
  20586411.057    20586413.110    25395888.788 8 -59417717.673 8
  23666920.664    23666924.715    52641199.325 9 -38415010.861 9
 86  6 17  2 21 41.0800000  0  4G12G13G 9G11
  21429665.648    21429669.806   -26040040.933 9  28049167.868 9
  20502183.352    20502187.358    -5447067.728 8     -4934.103 9
  20588781.403    20588784.602    25408349.008 9 -59408008.414 8
  23670086.812    23670088.972    52657833.079 8 -38402049.503 9
 86  6 17  2 21 47.0800000  0  4G12G13G 9G11
  21427165.818    21427169.731   -26053176.670 9  28038932.240 8
  20502599.459    20502603.641    -5444878.851 9     -3228.474 9
  20591157.703    20591160.086    25420832.625 8 -59398280.940 8
  23673250.975    23673255.156    52674466.363 9 -38389088.506 9
 86  6 17  2 21 53.0800000  0  4G12G13G 9G11
  21424669.694    21424673.629   -26066294.142 9  28028710.825 8
  20503018.683    20503023.158    -5442675.390 9     -1511.496 9
  20593537.836    20593539.976    25433339.389 8 -59388535.401 8
  23676416.969    23676419.942    52691099.194 9 -38376127.876 9
 86  6 17  2 21 59.0800000  0  4G12G13G 9G11
  21422176.690    21422180.610   -26079393.289 9  28018503.691 9
  20503440.314    20503445.196    -5440457.362 9       216.834 9
  20595921.949    20595926.163    25445869.435 8 -59378771.755 8
  23679581.766    23679584.856    52707731.506 9 -38363167.641 9
 86  6 17  2 22  5.0800000  0  4G12G13G 9G11
  21419686.847    21419691.848   -26092474.130 9  28008310.833 9
  20503864.964    20503869.428    -5438224.715 9      1956.562 9
  20598311.669    20598313.065    25458422.743 9 -59368989.956 7
  23682746.994    23682750.389    52724363.312 9 -38350207.792 9
 86  6 17  2 22 11.0800000  0  4G12G13G 9G11
  21417202.285    21417206.499   -26105536.614 9  27998132.272 8
  20504294.531    20504297.302    -5435977.577 9      3707.586 9
  20600703.794    20600707.279    25470999.380 8 -59359189.990 8
  23685911.058    23685914.556    52740994.621 8 -38337248.341 8
 86  6 17  2 22 17.0800000  0  4G12G13G 9G11
  21414718.868    21414723.397   -26118580.688 9  27987968.053 9
  20504724.293    20504727.161    -5433715.909 9      5469.914 9
  20603101.929    20603105.042    25483599.207 9 -59349371.952 9
  23689075.732    23689080.258    52757625.410 8 -38324289.291 9
 86  6 17  2 22 23.0800000  0  4G12G13G 9G11
  21412240.887    21412245.639   -26131606.353 9  27977818.184 9
  20505157.890    20505159.706    -5431439.637 9      7243.637 9
  20605503.985    20605506.139    25496222.313 9 -59339535.774 8
  23692240.872    23692244.517    52774255.690 9 -38311330.634 9
 86  6 17  2 22 29.0800000  0  4G12G13G 9G11
  21409766.271    21409769.891   -26144613.503 9  27967682.745 9
  20505594.024    20505596.366    -5429148.874 9      9028.639 9
  20607911.020    20607912.932    25508868.597 9 -59329681.535 8
  23695403.840    23695408.420    52790885.435 9 -38298372.394 9
 86  6 17  2 22 35.0800000  0  4G12G13G 9G11
  21407294.200    21407297.512   -26157602.244 9  27957561.645 9
  20506033.813    20506034.534    -5426843.646 9     10824.929 9
  20610322.119    20610322.971    25521537.993 9 -59319809.281 8
  23698569.552    23698572.797    52807514.624 8 -38285414.600 9
 86  6 17  2 22 41.0800000  0  4G12G13G 9G11
  21404825.599    21404830.007   -26170572.486 9  27947454.972 9
  20506475.101    20506476.017    -5424523.879 9     12632.540 9
  20612736.652    20612739.593    25534230.570 9 -59309918.970 8
  23701733.157    23701737.654    52824143.251 8 -38272457.230 9
 86  6 17  2 22 47.0800000  0  4G12G13G 9G11
  21402361.142    21402365.420   -26183524.194 9  27937362.727 9
  20506919.069    20506920.145    -5422189.653 8     14451.412 8
  20615157.597    20615158.763    25546946.323 9 -59300010.594 8
  23704897.388    23704901.570    52840771.332 9 -38259500.300 9
 86  6 17  2 22 53.0800000  0  4G12G13G 9G11
  21399899.796    21399903.781   -26196457.385 9  27927284.914 8
  20507365.709    20507367.590    -5419840.976 8     16281.551 9
  20617580.915    20617582.754    25559685.250 9 -59290084.165 8
  23708061.630    23708065.661    52857398.829 9 -38246543.815 9
 86  6 17  2 22 59.0800000  0  4G12G13G 9G11
  21397442.959    21397446.299   -26209372.073 9  27917221.518 9
  20507815.487    20507816.591    -5417477.876 9     18122.932 9
  20620009.786    20620011.024    25572447.288 8 -59280139.707 8
  23711226.219    23711230.557    52874025.746 9 -38233587.785 9
 86  6 17  2 23  5.0800000  0  4G12G13G 9G11
  21394988.967    21394991.686   -26222268.151 8  27907172.626 9
  20508266.963    20508269.635    -5415100.377 9     19975.528 9
  20622442.063    20622443.801    25585232.436 9 -59270177.283 8
  23714389.802    23714393.808    52890652.040 9 -38220632.232 9
 86  6 17  2 23 11.0800000  0  4G12G13G 9G11
  21392538.533    21392541.474   -26235145.641 9  27897138.217 8
  20508722.493    20508725.165    -5412708.460 8     21839.361 9
  20624879.605    20624882.174    25598040.588 9 -59260196.899 7
  23717552.427    23717556.648    52907277.700 8 -38207677.187 9
 86  6 17  2 23 17.0800000  0  4G12G13G 9G11
  21390091.318    21390094.330   -26248004.521 9  27887118.325 9
  20509180.520    20509182.790    -5410302.084 8     23714.470 9
  20627321.011    20627323.365    25610871.859 9 -59250198.520 9
  23720717.399    23720721.691    52923902.736 8 -38194722.623 9
 86  6 17  2 23 23.0800000  0  4G12G13G 9G11
  21387647.895    21387650.928   -26260844.793 9  27877112.908 9
  20509640.262    20509642.895    -5407881.287 9     25600.798 9
  20629767.282    20629769.249    25623726.221 8 -59240182.139 8
  23723880.814    23723884.988    52940527.133 8 -38181768.555 9
 86  6 17  2 23 29.0800000  0  4G12G13G 9G11
  21385208.255    21385211.090   -26273666.391 9  27867122.057 8
  20510104.378    20510107.132    -5405446.071 9     27498.367 9
  20632218.018    20632219.556    25636603.550 8 -59230147.865 8
  23727044.233    23727047.767    52957150.909 9 -38168814.960 9
 86  6 17  2 23 35.0800000  0  4G12G13G 9G11
  21382772.388    21382775.035   -26286469.327 9  27857145.743 9
  20510569.606    20510572.742    -5402996.582 9     29407.066 9
  20634673.647    20634676.030    25649503.940 9 -59220095.614 8
  23730207.416    23730210.796    52973774.087 9 -38155861.854 9
 86  6 17  2 23 41.0800000  0  4G12G13G 9G11
  21380339.446    21380340.719   -26299253.631 9  27847183.943 8
  20511038.203    20511041.451    -5400532.747 9     31326.931 8
  20637132.997    20637134.206    25662427.368 8 -59210025.419 9
  23733370.716    23733374.519    52990396.526 9 -38142909.308 9
 86  6 17  2 23 47.0800000  0  4G12G13G 9G11
  21377910.404    21377912.386   -26312019.147 9  27837236.794 9
  20511510.095    20511513.257    -5398054.620 8     33257.941 8
  20639595.322    20639598.077    25675373.793 9 -59199937.296 8
  23736533.406    23736537.709    53007018.306 8 -38129957.279 9
 86  6 17  2 23 53.0800000  0  4G12G13G 9G11
  21375484.366    21375487.457   -26324765.873 9  27827304.270 9
  20511985.175    20511987.582    -5395562.224 8     35200.064 9
  20642063.401    20642065.011    25688343.213 9 -59189831.271 8
  23739696.986    23739701.050    53023639.396 9 -38117005.787 9
 86  6 17  2 23 59.0800000  0  4G12G13G 9G11
  21373062.986    21373064.883   -26337493.827 9  27817386.377 9
  20512462.802    20512464.232    -5393055.579 9     37153.299 9
  20644536.372    20644537.997    25701335.623 8 -59179707.318 8
  23742859.671    23742863.438    53040259.732 9 -38104054.872 9
 86  6 17  2 24  5.0800000  0  4G12G13G 9G11
  21370644.325    21370647.036   -26350203.031 9  27807483.099 9
  20512941.741    20512945.156    -5390534.578 9     39117.711 9
  20647011.719    20647015.133    25714351.013 9 -59169565.466 7
  23746022.322    23746025.219    53056879.381 9 -38091104.513 9
 86  6 17  2 24 11.0800000  0  4G12G13G 9G11
  21368229.384    21368231.960   -26362893.442 9  27797594.478 9
  20513424.483    20513426.940    -5387999.276 9     41093.274 8
  20649494.937    20649496.204    25727389.408 9 -59159405.678 8
  23749185.436    23749188.216    53073498.285 9 -38078154.719 9
 86  6 17  2 24 17.0800000  0  4G12G13G 9G11
  21365817.770    21365819.674   -26375565.034 9  27787720.503 8
  20513910.560    20513912.437    -5385449.724 9     43079.941 9
  20651979.357    20651982.526    25740450.618 9 -59149228.127 8
  23752346.405    23752350.726    53090116.429 9 -38065205.523 8
 86  6 17  2 24 23.0800000  0  4G12G13G 9G11
  21363409.941    21363412.238   -26388217.761 9  27777861.246 8
  20514397.497    20514401.403    -5382885.942 9     45077.684 9
  20654469.757    20654470.766    25753534.763 9 -59139032.691 8
  23755509.219    23755512.510    53106733.830 9 -38052256.907 9
 86  6 17  2 24 29.0800000  0  4G12G13G 9G11
  21361006.133    21361008.687   -26400851.612 9  27768016.682 9
  20514888.407    20514891.930    -5380307.899 9     47086.549 9
  20656963.392    20656965.617    25766641.880 9 -59128819.368 8
  23758671.443    23758675.185    53123350.531 9 -38039308.835 9
 86  6 17  2 24 35.0800000  0  4G12G13G 9G11
  21358605.537    21358607.634   -26413466.517 9  27758186.880 9
  20515381.874    20515384.034    -5377715.683 9     49106.464 9
  20659461.919    20659464.732    25779771.838 8 -59118588.222 8
  23761833.134    23761837.666    53139966.456 9 -38026361.361 8
 86  6 17  2 24 41.0800000  0  4G12G13G 9G11
  21356208.633    21356210.329   -26426062.549 9  27748371.790 8
  20515877.097    20515880.219    -5375109.345 9     51137.369 9
  20661965.542    20661967.051    25792924.710 9 -59108339.249 8
  23764994.414    23764998.492    53156581.601 9 -38013414.507 9
 86  6 17  2 24 47.0800000  0  4G12G13G 9G11
  21353815.285    21353817.803   -26438639.620 9  27738571.467 9
  20516375.948    20516379.170    -5372488.887 8     53179.284 9
  20664471.940    20664475.267    25806100.464 9 -59098072.432 8
  23768156.628    23768160.230    53173195.943 8 -38000468.267 9
 86  6 17  2 24 53.0800000  0  4G12G13G 9G11
  21351426.079    21351427.982   -26451197.707 9  27728785.951 9
  20516877.134    20516880.174    -5369854.235 9     55232.264 9
  20666983.546    20666984.055    25819298.996 9 -59087787.865 7
  23771317.585    23771321.649    53189809.498 9 -37987522.647 9
 86  6 17  2 24 59.0800000  0  4G12G13G 9G11
  21349039.148    21349042.125   -26463736.778 9  27719015.240 9
  20517381.312    20517383.765    -5367205.385 8     57296.299 9
  20669499.876    20669502.144    25832520.410 8 -59077485.473 7
  23774478.572    23774481.626    53206422.226 8 -37974577.671 8
 86  6 17  2 25  5.0800000  0  4G12G13G 9G11
  21346657.828    21346659.631   -26476256.793 9  27709259.385 8
  20517888.519    20517890.385    -5364542.436 8     59371.321 9
  20672019.696    20672021.678    25845764.657 9 -59067165.278 9
  23777639.991    23777644.283    53223034.123 8 -37961633.353 8
 86  6 17  2 25 11.0800000  0  4G12G13G 9G11
  21344278.380    21344280.577   -26488757.781 9  27699518.357 9
  20518397.411    20518400.487    -5361865.346 9     61457.361 9
  20674543.952    20674545.805    25859031.667 9 -59056827.356 8
  23780800.115    23780804.709    53239645.200 9 -37948689.655 8
 86  6 17  2 25 17.0800000  0  4G12G13G 9G11
  21341902.489    21341905.545   -26501239.699 9  27689792.195 9
  20518909.577    20518912.420    -5359174.104 8     63554.437 9
  20677073.273    20677075.398    25872321.423 9 -59046471.721 8
  23783961.975    23783965.709    53256255.474 8 -37935746.587 9
 86  6 17  2 25 23.0800000  0  4G12G13G 9G11
  21339531.456    21339533.696   -26513702.556 9  27680080.868 9
  20519424.497    20519427.454    -5356468.825 9     65662.446 9
  20679605.514    20679609.471    25885633.977 8 -59036098.305 8
  23787122.292    23787126.706    53272864.923 9 -37922804.173 9
 86  6 17  2 25 29.0800000  0  4G12G13G 9G11
  21337163.729    21337165.231   -26526146.327 9  27670384.434 9
  20519942.199    20519944.342    -5353749.573 9     67781.347 9
  20682144.766    20682146.291    25898969.335 9 -59025707.121 8
  23790282.689    23790287.582    53289473.463 9 -37909862.460 9
 86  6 17  2 25 35.0800000  0  4G12G13G 9G11
  21334798.648    21334801.066   -26538570.992 9  27660702.866 8
  20520460.743    20520464.395    -5351016.252 9     69911.198 9
  20684686.823    20684688.333    25912327.447 9 -59015298.201 7
  23793443.692    23793447.329    53306081.115 9 -37896921.443 8
 86  6 17  2 25 41.0800000  0  4G12G13G 9G11
  21332438.440    21332441.073   -26550976.558 9  27651036.193 9
  20520984.524    20520987.156    -5348268.900 9     72051.998 9
  20687232.600    20687235.398    25925708.185 9 -59004871.656 8
  23796603.910    23796607.394    53322687.846 8 -37883981.142 9
 86  6 17  2 25 47.0800000  0  4G12G13G 9G11
  21330080.958    21330083.577   -26563362.979 9  27641384.433 9
  20521510.025    20521512.963    -5345507.573 9     74203.683 9
  20689783.815    20689784.452    25939111.667 8 -58994427.396 8
  23799764.349    23799767.275    53339293.713 8 -37871041.499 9
 86  6 17  2 25 53.0800000  0  4G12G13G 9G11
  21327727.102    21327731.002   -26575730.185 9  27631747.655 9
  20522038.425    20522040.885    -5342732.238 9     76366.277 9
  20692337.433    20692341.060    25952537.858 9 -58983965.444 8
  23802924.187    23802927.489    53355898.679 9 -37858102.583 9
 86  6 17  2 25 59.0800000  0  4G12G13G 9G11
  21325377.748    21325380.825   -26588078.228 9  27622125.803 9
  20522568.316    20522571.577    -5339942.922 8     78539.781 9
  20694897.720    20694898.629    25965986.734 9 -58973485.806 8
  23806083.825    23806087.155    53372502.675 9 -37845164.406 8
 86  6 17  2 26  5.0800000  0  4G12G13G 9G11
  21323031.527    21323035.599   -26600407.098 9  27612518.890 9
  20523101.916    20523105.020    -5337139.581 9     80724.195 9
  20697460.554    20697463.580    25979458.285 8 -58962988.487 8
  23809243.012    23809247.233    53389105.763 9 -37832226.930 8
 86  6 17  2 26 11.0800000  0  4G12G13G 9G11
  21320689.256    21320692.211   -26612716.680 9  27602927.011 9
  20523637.992    20523641.570    -5334322.327 8     82919.463 8
  20700029.225    20700030.606    25992952.444 9 -58952473.570 8
  23812402.384    23812405.271    53405707.909 9 -37819290.200 9
 86  6 17  2 26 17.0800000  0  4G12G13G 9G11
  21318349.595    21318353.259   -26625006.908 9  27593350.210 9
  20524176.733    20524180.683    -5331491.151 9     85125.562 8
  20702600.873    20702603.041    26006469.224 9 -58941941.021 9
  23815561.118    23815564.873    53422309.159 8 -37806354.172 9
 86  6 17  2 26 23.0800000  0  4G12G13G 9G11
  21316015.158    21316017.641   -26637277.837 9  27583788.449 9
  20524718.390    20524721.616    -5328646.005 9     87342.568 9
  20705178.131    20705180.112    26020008.713 9 -58931390.766 8
  23818719.721    23818723.710    53438909.401 9 -37793418.928 9
 86  6 17  2 26 29.0800000  0  4G12G13G 9G11
  21313684.341    21313686.967   -26649529.464 9  27574241.726 9
  20525262.176    20525265.723    -5325786.865 9     89570.467 8
  20707758.221    20707760.375    26033570.732 8 -58920822.969 8
  23821879.968    23821882.342    53455508.643 8 -37780484.451 8
 86  6 17  2 26 35.0800000  0  4G12G13G 9G11
  21311356.651    21311359.084   -26661761.748 9  27564710.073 9
  20525808.959    20525812.939    -5322913.831 9     91809.206 9
  20710344.064    20710345.431    26047155.259 8 -58910237.627 8
  23825037.591    23825040.935    53472106.910 9 -37767550.747 8
 86  6 17  2 26 41.0800000  0  4G12G13G 9G11
  21309032.280    21309035.700   -26673974.668 9  27555193.519 8
  20526358.006    20526362.319    -5320026.859 9     94058.789 9
  20712932.912    20712934.536    26060762.458 9 -58899634.619 7
  23828196.088    23828200.609    53488704.219 8 -37754617.781 9
 86  6 17  2 26 47.0800000  0  4G12G13G 9G11
  21306712.517    21306714.935   -26686168.125 9  27545692.112 8
  20526911.359    20526915.015    -5317125.967 8     96319.229 8
  20715526.138    20715528.779    26074392.243 9 -58889014.021 7
  23831354.069    23831358.161    53505300.582 9 -37741685.567 8
 86  6 17  2 26 53.0800000  0  4G12G13G 9G11
  21304395.573    21304397.597   -26698342.222 9  27536205.819 9
  20527465.677    20527469.622    -5314211.235 9     98590.445 9
  20718124.631    20718125.797    26088044.440 8 -58878375.951 8
  23834512.634    23834515.259    53521895.917 9 -37728754.126 9
 86  6 17  2 26 59.0800000  0  4G12G13G 9G11
  21302082.706    21302085.074   -26710496.837 8  27526734.681 8
  20528022.730    20528026.052    -5311282.687 9    100872.435 9
  20720726.642    20720728.854    26101719.230 8 -58867720.278 8
  23837670.040    23837673.072    53538490.210 9 -37715823.515 9
 86  6 17  2 27  5.0800000  0  4G12G13G 9G11
  21299773.338    21299775.421   -26722632.042 9  27517278.676 9
  20528582.796    20528585.459    -5308340.301 9    103165.204 8
  20723332.576    20723334.873    26115416.551 9 -58857047.056 8
  23840828.254    23840830.728    53555083.471 9 -37702893.706 9
 86  6 17  2 27 11.0800000  0  4G12G13G 9G11
  21297468.786    21297470.131   -26734747.825 9  27507837.816 8
  20529144.886    20529148.537    -5305384.145 9    105468.692 8
  20725944.347    20725946.916    26129136.325 9 -58846356.325 8
  23843984.578    23843988.237    53571675.708 8 -37689964.700 9
 86  6 17  2 27 17.0800000  0  4G12G13G 9G11
  21295166.423    21295169.629   -26746844.073 9  27498412.161 8
  20529710.585    20529713.490    -5302414.254 9    107782.896 9
  20728558.808    20728561.506    26142878.615 8 -58835648.046 8
  23847141.297    23847145.490    53588266.932 9 -37677036.477 9
 86  6 17  2 27 23.0800000  0  4G12G13G 9G11
  21292868.552    21292870.556   -26758920.784 9  27489001.741 9
  20530277.609    20530281.107    -5299430.520 9    110107.878 9
  20731177.333    20731179.401    26156643.381 9 -58824922.266 8
  23850298.313    23850303.095    53604857.088 9 -37664109.078 9
 86  6 17  2 27 29.0800000  0  4G12G13G 9G11
  21290574.703    21290576.106   -26770978.004 9  27479606.505 9
  20530848.360    20530851.438    -5296433.017 9    112443.595 8
  20733800.838    20733803.893    26170430.537 8 -58814179.046 8
  23853455.883    23853458.601    53621446.144 9 -37651182.555 9
 86  6 17  2 27 35.0800000  0  4G12G13G 9G11
  21288283.759    21288285.497   -26783015.666 9  27470226.504 9
  20531421.106    20531424.451    -5293421.803 9    114789.998 9
  20736428.349    20736432.606    26184240.160 8 -58803418.297 8
  23856612.713    23856615.398    53638034.079 9 -37638256.893 9
 86  6 17  2 27 41.0800000  0  4G12G13G 9G11
  21285996.156    21285998.546   -26795033.788 9  27460861.741 8
  20531996.165    20532000.446    -5290396.845 9    117147.110 9
  20739061.928    20739064.926    26198072.149 8 -58792640.139 7
  23859768.272    23859772.099    53654620.958 9 -37625332.047 8
 86  6 17  2 27 47.0800000  0  4G12G13G 9G11
  21283713.976    21283713.783   -26807032.384 9  27451512.190 8
  20532575.994    20532578.738    -5287358.138 8    119514.924 9
  20741698.253    20741699.520    26211926.538 9 -58781844.513 8
  23862925.799    23862928.364    53671206.773 9 -37612408.043 9
 86  6 17  2 27 53.0800000  0  4G12G13G 9G11
  21281433.012    21281435.344   -26819011.383 9  27442177.909 9
  20533155.993    20533159.250    -5284305.702 9    121893.442 9
  20744338.613    20744340.968    26225803.314 8 -58771031.455 8
  23866081.506    23866084.986    53687791.464 9 -37599484.915 8
 86  6 17  2 27 59.0800000  0  4G12G13G 9G11
  21279157.578    21279160.132   -26830970.715 9  27432858.947 8
  20533739.353    20533742.815    -5281239.608 9    124282.615 8
  20746983.897    20746986.079    26239702.448 9 -58760200.959 7
  23869236.687    23869241.004    53704375.085 9 -37586562.620 9
 86  6 17  2 28  5.0800000  0  4G12G13G 9G11
  21276884.957    21276887.454   -26842910.400 9  27423555.291 9
  20534325.991    20534328.351    -5278159.790 9    126682.466 9
  20749632.300    20749635.341    26253623.905 8 -58749353.089 7
  23872391.910    23872395.135    53720957.546 9 -37573641.219 9
 86  6 17  2 28 11.0800000  0  4G12G13G 9G11
  21274617.015    21274619.933   -26854830.400 9  27414266.988 9
  20534914.829    20534916.287    -5275066.312 8    129092.969 9
  20752286.769    20752287.951    26267567.632 8 -58738487.848 7
  23875547.701    23875551.017    53737538.834 9 -37560720.737 9
 86  6 17  2 28 17.0800000  0  4G12G13G 9G11
  21272351.862    21272354.331   -26866730.653 9  27404994.063 8
  20535505.723    20535508.863    -5271959.236 9    131514.066 9
  20754943.929    20754945.454    26281533.824 8 -58727605.108 8
  23878702.249    23878706.531    53754118.920 9 -37547801.188 9
 86  6 17  2 28 23.0800000  0  4G12G13G 9G11
  21270091.461    21270095.375   -26878611.136 9  27395736.540 9
  20536100.181    20536102.655    -5268838.557 9    133945.763 9
  20757605.324    20757609.626    26295522.243 8 -58716705.058 8
  23881857.680    23881860.651    53770697.871 9 -37534882.540 9
 86  6 17  2 28 29.0800000  0  4G12G13G 9G11
  21267834.372    21267836.612   -26890471.889 9  27386494.399 8
  20536696.524    20536699.095    -5265704.296 9    136388.050 9
  20760272.129    20760274.655    26309532.901 9 -58705787.659 8
  23885011.959    23885016.194    53787275.643 9 -37521964.802 8
 86  6 17  2 28 35.0800000  0  4G12G13G 9G11
  21265580.209    21265583.172   -26902312.913 9  27377267.629 8
  20537295.439    20537298.339    -5262556.349 9    138840.992 8
  20762942.969    20762945.523    26323565.917 8 -58694852.845 8
  23888167.998    23888170.709    53803852.263 9 -37509047.956 8
 86  6 17  2 28 41.0800000  0  4G12G13G 9G11
  21263330.454    21263333.802   -26914134.177 9  27368056.251 9
  20537897.265    20537899.429    -5259394.863 9    141304.494 9
  20765616.955    20765620.053    26337621.032 8 -58683900.824 7
  23891321.557    23891325.081    53820427.770 8 -37496131.979 8
 86  6 17  2 28 47.0800000  0  4G12G13G 9G11
  21261085.027    21261089.140   -26925935.706 9  27358860.258 7
  20538501.113    20538503.438    -5256219.781 9    143778.571 9
  20768295.895    20768298.964    26351698.485 8 -58672931.377 8
  23894474.109    23894479.127    53837002.074 9 -37483216.941 9
 86  6 17  2 28 53.0800000  0  4G12G13G 9G11
  21258843.606    21258846.247   -26937717.423 9  27349679.692 9
  20539108.327    20539111.514    -5253031.134 8    146263.234 9
  20770979.669    20770981.035    26365798.115 8 -58661944.665 7
  23897628.931    23897632.000    53853575.147 9 -37470302.861 9
 86  6 17  2 28 59.0800000  0  4G12G13G 9G11
  21256604.998    21256607.724   -26949479.317 9  27340514.587 8
  20539717.305    20539721.197    -5249828.950 9    148758.452 9
  20773666.650    20773668.446    26379919.849 7 -58650940.720 7
  23900781.601    23900785.224    53870146.990 9 -37457389.750 9
 86  6 17  2 29  5.0800000  0  4G12G13G 9G11
  21254370.875    21254373.157   -26961221.310 9  27331364.981 9
  20540328.899    20540332.471    -5246613.234 9    151264.200 9
  20776356.577    20776360.835    26394063.849 9 -58639919.431 8
  23903935.061    23903939.400    53886717.557 9 -37444477.616 8
 86  6 17  2 29 11.0800000  0  4G12G13G 9G11
  21252140.008    21252142.633   -26972943.474 9  27322230.815 8
  20540944.029    20540946.521    -5243384.062 9    153780.454 9
  20779052.201    20779055.970    26408230.059 9 -58628880.830 8
  23907088.341    23907092.426    53903286.870 9 -37431566.477 8
 86  6 17  2 29 17.0800000  0  4G12G13G 9G11
  21249913.719    21249915.851   -26984645.732 9  27313112.173 9
  20541561.321    20541563.344    -5240141.406 9    156307.191 9
  20781751.831    20781755.387    26422418.359 7 -58617825.021 8
  23910242.052    23910244.856    53919854.913 8 -37418656.315 9
 86  6 17  2 29 23.0800000  0  4G12G13G 9G11
  21247690.400    21247692.533   -26996328.022 9  27304009.089 9
  20542180.547    20542182.725    -5236885.253 9    158844.456 9
  20784457.355    20784460.826    26436628.815 8 -58606751.944 8
  23913393.666    23913397.593    53936421.717 9 -37405747.111 8
 86  6 17  2 29 29.0800000  0  4G12G13G 9G11
  21245471.273    21245473.727   -27007990.354 9  27294921.558 9
  20542803.079    20542805.644    -5233615.659 9    161392.192 8
  20787164.426    20787169.111    26450861.389 9 -58595661.649 8
  23916546.889    23916549.034    53952987.240 9 -37392838.922 9
 86  6 17  2 29 35.0800000  0  4G12G13G 9G11
  21243256.203    21243258.314   -27019632.683 9  27285849.607 9
  20543427.783    20543430.039    -5230332.620 9    163950.406 8
  20789877.334    20789881.534    26465116.051 8 -58584554.115 7
  23919698.860    23919701.830    53969551.497 9 -37379931.715 9
 86  6 17  2 29 41.0800000  0  4G12G13G 9G11
  21241044.181    21241046.858   -27031254.963 9  27276793.294 8
  20544054.923    20544057.118    -5227036.184 9    166519.050 9
  20792594.076    20792598.577    26479392.774 9 -58573429.408 8
  23922850.586    23922853.346    53986114.495 9 -37367025.488 9
 86  6 17  2 29 47.0800000  0  4G12G13G 9G11
  21238836.602    21238838.806   -27042857.263 9  27267752.549 9
  20544685.003    20544687.656    -5223726.252 9    169098.225 9
  20795314.770    20795319.257    26493691.570 8 -58562287.503 8
  23926001.884    23926004.595    54002676.182 9 -37354120.279 8
 86  6 17  2 29 53.0800000  0  4G12G13G 9G11
  21236631.698    21236634.911   -27054439.476 9  27258727.440 9
  20545317.259    20545318.914    -5220402.931 8    171687.830 9
  20798040.242    20798044.800    26508012.398 8 -58551128.431 7
  23929152.854    23929155.967    54019236.588 9 -37341216.070 8
 86  6 17  2 29 59.0800000  0  4G12G13G 9G11
  21234432.533    21234434.744   -27066001.647 9  27249717.956 9
  20545951.971    20545953.995    -5217066.197 9    174287.881 9
  20800770.608    20800773.233    26522355.314 9 -58539952.134 8
  23932304.432    23932308.696    54035795.652 9 -37328312.903 8
 86  6 17  2 30  5.0800000  0  4G12G13G 9G11
  21232236.065    21232239.185   -27077543.754 9  27240724.105 8
  20546588.662    20546592.410    -5213716.105 9    176898.339 9
  20803503.090    20803506.719    26536720.212 8 -58528758.707 7
  23935455.302    23935458.282    54052353.437 9 -37315410.739 8
 86  6 17  2 30 11.0800000  0  4G12G13G 9G11
  21230043.768    21230046.594   -27089065.802 9  27231745.888 9
  20547228.999    20547231.434    -5210352.703 9    179519.180 9
  20806240.697    20806243.953    26551107.088 9 -58517548.175 8
  23938605.714    23938609.241    54068909.869 9 -37302509.634 8
 86  6 17  2 30 17.0800000  0  4G12G13G 9G11
  21227855.356    21227857.102   -27100567.739 9  27222783.330 9
  20547870.999    20547873.748    -5206975.933 9    182150.421 9
  20808983.196    20808987.383    26565515.886 9 -58506320.542 7
  23941755.786    23941759.041    54085465.003 9 -37289609.538 9
 86  6 17  2 30 23.0800000  0  4G12G13G 9G11
  21225669.620    21225671.753   -27112049.517 9  27213836.500 8
  20548516.272    20548518.768    -5203585.865 9    184792.031 9
  20811728.616    20811731.986    26579946.683 9 -58495075.769 7
  23944906.420    23944909.109    54102018.766 8 -37276710.504 9
 86  6 17  2 30 29.0800000  0  4G12G13G 9G11
  21223488.897    21223491.462   -27123511.168 9  27204905.348 9
  20549166.178    20549167.003    -5200182.525 1    187443.981 1
  20814479.044    20814483.588    26594399.487 8 -58483813.843 8
  23948057.137    23948058.187    54118571.130 1 -37263812.570 1
 86  6 17  2 30 35.0800000  0  4G12G13G 9G11
  21221311.518    21221312.845   -27134952.670 9  27195989.885 9
  20549813.971    20549816.967    -5196765.924 1    190106.272 1
  20817234.457    20817236.947    26608874.189 8 -58472534.862 9
  23951206.297    23951209.076    54135122.108 2 -37250915.704 3
 86  6 17  2 30 41.0800000  0  4G12G13G 9G11
  21219137.626    21219140.255   -27146373.980 9  27187090.175 9
  20550465.800    20550470.792    -5193335.999 1    192778.930 1
  20819993.266    20819996.511    26623370.757 9 -58461238.829 7
  23954354.383    23954358.573    54151671.683 1 -37238019.934 1
 86  6 17  2 30 47.0800000  0  4G12G13G 9G11
  21216968.146    21216970.755   -27157774.992 9  27178206.257 8
  20551123.466    20551127.442    -5189892.783 1    195461.945 1
  20822756.718    20822758.282    26637889.216 9 -58449925.751 7
  23957502.576    23957507.121    54168219.921 1 -37225125.213 2
 86  6 17  2 30 53.0800000  0  4G12G13G 9G11
  21214802.856    21214804.578   -27169155.717 9  27169338.161 8
  20551773.570    20551778.665    -5186436.349 1    198155.288 1
  20825522.441    20825525.706    26652429.602 9 -58438595.578 7
  23960653.032    23960657.329    54184766.727 1 -37212231.602 1
 86  6 17  2 30 59.0800000  0  4G12G13G 9G11
  21212640.794    21212643.638   -27180516.174 9  27160485.856 8
  20552439.646    20552441.839    -5182966.698 1    200858.905 1
  20828294.195    20828296.626    26666991.829 8 -58427248.400 8
  23963800.508    23963802.810    54201312.138 2 -37199339.066 2
 86  6 17  2 31  5.0800000  0  4G12G13G 9G11
  21210482.270    21210485.165   -27191856.380 9  27151649.340 8
  20553102.760    20553103.725    -5179483.845 1    203572.825 1
  20831069.870    20831070.373    26681575.965 9 -58415884.147 8
  23966951.157    23966952.352    54217856.138 2 -37186447.652 2
 86  6 17  2 31 11.0800000  0  4G12G13G 9G11
  21208328.204    21208331.336   -27203176.324 9  27142828.609 9
  20553768.930    20553769.573    -5175987.795 1    206297.005 1
  20833848.213    20833850.950    26696181.896 9 -58404502.907 8
  23970096.980    23970101.694    54234398.691 1 -37173557.356 1
 86  6 17  2 31 17.0800000  0  4G12G13G 9G11
  21206178.734    21206180.356   -27214475.983 9  27134023.671 8
  20554436.181    20554439.249    -5172478.473 8    209031.550 8
  20836632.201    20836634.395    26710809.620 9 -58393104.688 7
  23973244.789    23973247.763    54250939.772 8 -37160668.216 9
 86  6 17  2 31 23.0800000  0  4G12G13G 9G11
  21204032.000    21204034.343   -27225755.306 9  27125234.592 9
  20555106.424    20555108.217    -5168956.010 9    211776.322 9
  20839418.806    20839423.829    26725459.199 9 -58381689.433 8
  23976392.188    23976396.695    54267479.361 9 -37147780.219 8
 86  6 17  2 31 29.0800000  0  4G12G13G 9G11
  21201889.399    21201892.011   -27237014.169 9  27116461.444 8
  20555779.727    20555782.403    -5165420.357 9    214531.383 8
  20842211.987    20842213.284    26740130.523 8 -58370257.246 7
  23979538.731    23979543.973    54284017.490 9 -37134893.374 9
 86  6 17  2 31 35.0800000  0  4G12G13G 9G11
  21199750.759    21199752.343   -27248252.655 9  27107704.187 8
  20556455.065    20556457.544    -5161871.521 9    217296.705 8
  20845007.567    20845010.441    26754823.554 9 -58358808.148 7
  23982685.564    23982688.602    54300554.160 9 -37122007.665 9
 86  6 17  2 31 41.0800000  0  4G12G13G 9G11
  21197616.343    21197618.802   -27259470.752 9  27098962.811 9
  20557132.632    20557135.251    -5158309.559 9    220072.264 8
  20847807.229    20847811.342    26769538.279 8 -58347342.138 8
  23985831.599    23985836.876    54317089.347 9 -37109123.108 9
 86  6 17  2 31 47.0800000  0  4G12G13G 9G11
  21195485.675    21195487.030   -27270668.361 9  27090237.401 8
  20557812.462    20557816.197    -5154734.469 9    222858.048 8
  20850611.965    20850614.688    26784274.807 8 -58335859.126 8
  23988978.063    23988982.815    54333623.088 9 -37096239.681 8
 86  6 17  2 31 53.0800000  0  4G12G13G 9G11
  21193358.780    21193360.775   -27281845.538 9  27081527.904 9
  20558495.269    20558498.402    -5151146.237 9    225654.067 9
  20853420.023    20853423.448    26799033.031 8 -58324359.215 8
  23992124.915    23992129.248    54350155.252 9 -37083357.470 9
 86  6 17  2 31 59.0800000  0  4G12G13G 9G11
  21191235.387    21191237.317   -27293002.319 9  27072834.318 9
  20559181.366    20559183.412    -5147544.922 9    228460.285 8
  20856232.968    20856235.853    26813812.936 9 -58312842.427 9
  23995270.101    23995273.966    54366685.892 9 -37070476.460 9
 86  6 17  2 32  5.0800000  0  4G12G13G 9G11
  21189115.812    21189118.177   -27304138.661 9  27064156.649 9
  20559868.234    20559872.326    -5143930.510 9    231276.708 8
  20859049.957    20859053.333    26828614.483 9 -58301308.753 7
  23998415.751    23998419.572    54383215.021 8 -37057596.630 9
 86  6 17  2 32 11.0800000  0  4G12G13G 9G11
  21187001.732    21187002.540   -27315254.467 9  27055494.976 8
  20560558.253    20560561.874    -5140303.084 9    234103.288 8
  20861870.949    20861874.095    26843437.610 9 -58289758.278 8
  24001561.219    24001564.783    54399742.617 8 -37044717.978 8
 86  6 17  2 32 17.0800000  0  4G12G13G 9G11
  21184889.592    21184891.531   -27326349.763 9  27046849.280 9
  20561252.020    20561254.725    -5136662.639 9    236939.986 8
  20864695.902    20864698.070    26858282.406 9 -58278190.907 7
  24004705.583    24004709.934    54416268.706 9 -37031840.509 9
 86  6 17  2 32 23.0800000  0  4G12G13G 9G11
  21182782.987    21182784.022   -27337424.533 9  27038219.592 8
  20561947.156    20561949.468    -5133009.248 9    239786.786 9
  20867524.486    20867526.955    26873148.847 9 -58266606.665 8
  24007849.676    24007853.778    54432793.242 9 -37018964.249 9
 86  6 17  2 32 29.0800000  0  4G12G13G 9G11
  21180679.329    21180680.633   -27348478.763 8  27029605.913 8
  20562644.815    20562648.319    -5129342.896 9    242643.687 9
  20870358.723    20870360.116    26888036.940 9 -58255005.566 8
  24010993.676    24010997.953    54449316.223 9 -37006089.197 8
 86  6 17  2 32 35.0800000  0  4G12G13G 9G11
  21178579.261    21178581.429   -27359512.352 9  27021008.304 9
  20563344.994    20563348.382    -5125663.532 9    245510.722 9
  20873195.059    20873196.502    26902946.573 9 -58243387.674 8
  24014138.124    24014142.725    54465837.663 9 -36993215.353 9
 86  6 17  2 32 41.0800000  0  4G12G13G 9G11
  21176484.201    21176485.370   -27370525.334 9  27012426.758 8
  20564048.289    20564051.657    -5121971.173 9    248387.890 9
  20876036.836    20876039.337    26917877.736 9 -58231753.005 8
  24017281.364    24017286.560    54482357.506 9 -36980342.767 9
 86  6 17  2 32 47.0800000  0  4G12G13G 9G11
  21174392.157    21174393.778   -27381517.667 9  27003861.295 9
  20564753.391    20564756.256    -5118265.920 9    251275.100 9
  20878883.031    20878884.474    26932830.526 8 -58220101.482 7
  24020425.739    24020430.035    54498875.814 8 -36967471.359 9
 86  6 17  2 32 53.0800000  0  4G12G13G 9G11
  21172303.976    21172306.247   -27392489.361 9  26995311.934 9
  20565460.548    20565463.840    -5114547.753 9    254172.374 9
  20881732.519    20881732.130    26947804.788 9 -58208433.236 7
  24023567.825    24023571.491    54515392.553 9 -36954601.176 9
 86  6 17  2 32 59.0800000  0  4G12G13G 9G11
  21170219.968    21170222.488   -27403440.385 9  26986778.667 9
  20566171.602    20566173.407    -5110816.666 9    257079.712 8
  20884586.069    20884587.078    26962800.513 9 -58196748.260 7
  24026711.195    24026715.268    54531907.711 9 -36941732.231 8
 86  6 17  2 33  5.0800000  0  4G12G13G 9G11
  21168140.722    21168141.900   -27414370.650 9  26978261.567 9
  20566883.224    20566885.873    -5107072.633 9    259997.140 8
  20887443.611    20887444.664    26977817.779 9 -58185046.506 8
  24029853.595    24029858.537    54548421.254 9 -36928864.544 9
 86  6 17  2 33 11.0800000  0  4G12G13G 9G11
  21166064.069    21166065.865   -27425280.277 9  26969760.567 8
  20567597.770    20567601.161    -5103315.665 9    262924.650 9
  20890304.527    20890306.069    26992856.502 9 -58173328.016 8
  24032994.614    24032999.356    54564933.162 9 -36915998.114 9
 86  6 17  2 33 17.0800000  0  4G12G13G 9G11
  21163992.236    21163994.066   -27436169.188 9  26961275.694 8
  20568315.519    20568318.152    -5099545.827 9    265862.182 9
  20893171.576    20893172.728    27007916.635 9 -58161592.852 8
  24036137.006    24036141.735    54581443.427 8 -36903132.983 9
 86  6 17  2 33 23.0800000  0  4G12G13G 9G11
  21161923.864    21161926.633   -27447037.365 9  26952806.989 9
  20569035.556    20569037.530    -5095763.155 9    268809.727 9
  20896040.961    20896042.389    27022998.304 9 -58149840.912 7
  24039278.729    24039283.105    54597952.055 9 -36890269.111 9
 86  6 17  2 33 29.0800000  0  4G12G13G 9G11
  21159859.872    21159862.160   -27457884.765 9  26944354.471 8
  20569758.255    20569760.474    -5091967.622 9    271767.276 8
  20898915.007    20898916.022    27038101.356 9 -58138072.312 8
  24042419.400    24042423.887    54614459.120 9 -36877406.471 9
 86  6 17  2 33 35.0800000  0  4G12G13G 9G11
  21157799.257    21157801.407   -27468711.369 9  26935918.150 9
  20570481.411    20570484.303    -5088159.224 9    274734.859 9
  20901791.892    20901795.353    27053225.825 9 -58126287.009 7
  24045560.616    24045565.161    54630964.548 8 -36864545.104 9
 86  6 17  2 33 41.0800000  0  4G12G13G 9G11
  21155742.889    21155744.676   -27479517.122 9  26927498.080 9
  20571209.064    20571211.569    -5084337.954 9    277712.477 9
  20904674.573    20904676.686    27068371.558 9 -58114485.129 8
  24048701.332    24048706.061    54647468.292 8 -36851685.049 9
 86  6 17  2 33 47.0800000  0  4G12G13G 9G11
  21153691.351    21153693.450   -27490302.043 9  26919094.252 8
  20571938.430    20571940.798    -5080503.864 9    280700.070 8
  20907561.666    20907563.218    27083538.687 9 -58102666.607 9
  24051840.941    24051845.968    54663970.330 9 -36838826.326 9
 86  6 17  2 33 53.0800000  0  4G12G13G 9G11
  21151642.732    21151645.012   -27501066.131 9  26910706.649 8
  20572670.431    20572672.722    -5076657.056 9    283697.585 8
  20910452.957    20910453.039    27098727.204 8 -58090831.409 7
  24054981.247    24054984.797    54680470.646 9 -36825968.932 9
 86  6 17  2 33 59.0800000  0  4G12G13G 9G11
  21149597.715    21149600.292   -27511809.365 9  26902335.290 9
  20573405.406    20573407.615    -5072797.444 9    286705.063 9
  20913346.333    20913347.711    27113937.119 9 -58078979.532 8
  24058121.756    24058125.894    54696969.281 8 -36813112.854 8
 86  6 17  2 34  5.0800000  0  4G12G13G 9G11
  21147556.840    21147559.125   -27522531.682 9  26893980.239 9
  20574142.384    20574143.883    -5068925.191 9    289722.404 8
  20916244.728    20916245.255    27129168.274 9 -58067111.105 9
  24061258.477    24061264.507    54713466.188 9 -36800258.139 9
 86  6 17  2 34 11.0800000  0  4G12G13G 9G11
  21145520.991    21145523.248   -27533233.114 9  26885641.448 8
  20574880.572    20574883.404    -5065040.271 9    292749.621 9
  20919147.834    20919148.992    27144420.788 9 -58055226.028 8
  24064399.567    24064403.715    54729961.412 8 -36787404.717 8
 86  6 17  2 34 17.0800000  0  4G12G13G 9G11
  21143488.582    21143491.231   -27543913.596 9  26877319.002 9
  20575622.503    20575625.280    -5061142.613 9    295786.754 9
  20922054.276    20922055.943    27159694.430 9 -58043324.493 8
  24067538.231    24067543.022    54746454.917 9 -36774552.630 9
 86  6 17  2 34 23.0800000  0  4G12G13G 9G11
  21141460.683    21141462.889   -27554573.141 9  26869012.865 9
  20576368.008    20576368.702    -5057232.183 9    298833.847 9
  20924964.530    20924965.460    27174989.391 9 -58031406.352 8
  24070675.657    24070679.755    54762946.663 9 -36761701.919 9
 86  6 17  2 34 29.0800000  0  4G12G13G 9G11
  21139435.509    21139437.173   -27565211.771 9  26860723.023 9
  20577114.608    20577115.122    -5053309.021 9    301890.855 9
  20927878.736    20927880.719    27190305.620 9 -58019471.632 7
  24073814.275    24073817.589    54779436.680 9 -36748852.554 9
 86  6 17  2 34 35.0800000  0  4G12G13G 9G11
  21137414.765    21137418.020   -27575829.351 9  26852449.580 8
  20577862.578    20577864.737    -5049373.184 9    304957.737 8
  20930798.582    20930798.623    27205643.049 9 -58007520.389 8
  24076950.980    24076955.548    54795924.957 9 -36736004.557 9
 86  6 17  2 34 41.0800000  0  4G12G13G 9G11
  21135398.170    21135402.579   -27586425.920 9  26844192.507 8
  20578614.956    20578615.585    -5045424.714 9    308034.466 9
  20933719.907    20933721.808    27221001.596 9 -57995552.699 7
  24080088.717    24080092.654    54812411.503 9 -36723157.893 9
 86  6 17  2 34 47.0800000  0  4G12G13G 9G11
  21133386.424    21133388.932   -27597001.448 9  26835951.842 8
  20579368.301    20579370.289    -5041463.562 9    311121.076 9
  20936646.944    20936648.154    27236381.316 9 -57983568.516 7
  24083225.272    24083229.448    54828896.264 9 -36710312.618 9
 86  6 17  2 34 53.0800000  0  4G12G13G 9G11
  21131377.648    21131381.415   -27607555.951 9  26827727.552 9
  20580124.257    20580126.448    -5037489.800 9    314217.528 9
  20939577.459    20939579.230    27251782.228 9 -57971567.803 8
  24086361.867    24086366.624    54845379.269 9 -36697468.736 9
 86  6 17  2 34 59.0800000  0  4G12G13G 9G11
  21129373.651    21129376.471   -27618089.387 9  26819519.676 9
  20580882.815    20580885.059    -5033503.324 9    317323.869 9
  20942512.663    20942514.659    27267204.361 9 -57959550.561 8
  24089498.619    24089503.806    54861860.515 9 -36684626.201 9
 86  6 17  2 35  5.0800000  0  4G12G13G 9G11
  21127372.911    21127376.043   -27628601.763 9  26811328.216 9
  20581643.435    20581646.469    -5029504.315 9    320439.971 9
  20945451.005    20945452.392    27282647.552 9 -57947516.916 8
  24092634.861    24092639.281    54878340.018 9 -36671785.030 8
 86  6 17  2 35 11.0800000  0  4G12G13G 9G11
  21125376.080    21125380.020   -27639092.941 9  26803153.285 8
  20582407.631    20582409.378    -5025492.738 9    323565.875 9
  20948394.314    20948396.671    27298111.985 9 -57935466.722 8
  24095770.468    24095774.409    54894817.711 9 -36658945.276 9
 86  6 17  2 35 17.0800000  0  4G12G13G 9G11
  21123383.972    21123387.087   -27649562.974 9  26794994.810 8
  20583173.232    20583175.706    -5021468.545 9    326701.621 8
  20951340.057    20951342.571    27313597.332 9 -57923400.221 8
  24098905.222    24098910.262    54911293.616 8 -36646106.911 9
 86  6 17  2 35 23.0800000  0  4G12G13G 9G11
  21121395.881    21121398.704   -27660011.925 9  26786852.770 9
  20583940.884    20583943.780    -5017431.815 9    329847.116 9
  20954291.389    20954292.890    27329103.884 9 -57911317.192 8
  24102039.602    24102044.408    54927767.701 8 -36633269.960 9
 86  6 17  2 35 29.0800000  0  4G12G13G 9G11
  21119411.139    21119414.240   -27670439.754 9  26778727.189 9
  20584710.437    20584713.958    -5013382.586 9    333002.356 9
  20957246.293    20957248.768    27344631.424 9 -57899217.825 8
  24105175.544    24105177.790    54944239.980 9 -36620434.422 9
 86  6 17  2 35 35.0800000  0  4G12G13G 9G11
  21117431.319    21117435.115   -27680846.416 9  26770618.096 9
  20585484.194    20585486.540    -5009320.824 9    336167.368 9
  20960204.727    20960205.674    27360179.965 9 -57887102.087 9
  24108308.859    24108313.532    54960710.392 9 -36607600.328 9
 86  6 17  2 35 41.0800000  0  4G12G13G 9G11
  21115455.185    21115457.179   -27691231.849 9  26762525.552 9
  20586260.295    20586262.600    -5005246.574 9    339342.102 8
  20963168.099    20963168.345    27375749.559 9 -57874969.936 8
  24111444.307    24111446.453    54977178.967 8 -36594767.682 9
 86  6 17  2 35 47.0800000  0  4G12G13G 9G11
  21113482.858    21113485.034   -27701596.086 9  26754449.527 9
  20587037.395    20587040.417    -5001159.890 9    342526.539 9
  20966134.795    20966135.645    27391340.088 8 -57862821.488 8
  24114576.090    24114580.478    54993645.671 8 -36581936.476 8
 86  6 17  2 35 53.0800000  0  4G12G13G 9G11
  21111514.611    21111516.601   -27711939.087 9  26746390.043 9
  20587816.962    20587820.608    -4997060.727 9    345720.684 9
  20969105.153    20969106.080    27406951.666 9 -57850656.623 7
  24117709.693    24117713.517    55010110.500 8 -36569106.745 9
 86  6 17  2 35 59.0800000  0  4G12G13G 9G11
  21109550.508    21109552.888   -27722260.816 9  26738347.134 9
  20588599.588    20588602.797    -4992949.103 9    348924.554 9
  20972080.447    20972081.419    27422584.251 9 -57838475.395 8
  24120842.887    24120847.284    55026573.469 9 -36556278.454 9
 86  6 17  2 36  5.0800000  0  4G12G13G 9G11
  21107590.012    21107592.801   -27732561.256 9  26730320.809 9
  20589384.330    20589388.409    -4988824.979 9    352138.154 9
  20975058.701    20975060.078    27438237.763 9 -57826277.856 9
  24123975.159    24123979.684    55043034.527 8 -36543451.671 8
 86  6 17  2 36 11.0800000  0  4G12G13G 9G11
  21105634.162    21105636.799   -27742840.370 9  26722311.118 8
  20590172.422    20590174.442    -4984688.419 9    355361.447 9
  20978041.609    20978042.278    27453912.143 9 -57814064.066 8
  24127106.453    24127110.993    55059493.691 9 -36530626.347 9
 86  6 17  2 36 17.0800000  0  4G12G13G 9G11
  21103682.600    21103684.839   -27753098.170 9  26714318.029 8
  20590961.491    20590964.269    -4980539.387 9    358594.458 9
  20981028.056    20981029.921    27469607.431 8 -57801833.969 8
  24130238.817    24130243.120    55075950.984 9 -36517802.477 9
 86  6 17  2 36 23.0800000  0  4G12G13G 9G11
  21101734.134    21101736.031   -27763334.631 9  26706341.558 9
  20591754.390    20591756.682    -4976377.989 9    361837.107 8
  20984019.170    20984020.527    27485323.629 9 -57789587.591 8
  24133368.810    24133374.235    55092406.368 9 -36504980.107 9
 86  6 17  2 36 29.0800000  0  4G12G13G 9G11
  21099790.328    21099793.160   -27773549.735 9  26698381.742 9
  20592548.034    20592549.896    -4972204.216 9    365089.399 9
  20987014.011    20987015.478    27501060.676 9 -57777324.954 9
  24136500.229    24136506.189    55108859.873 9 -36492159.203 9
 86  6 17  2 36 35.0800000  0  4G12G13G 9G11
  21097850.649    21097853.263   -27783743.472 9  26690438.563 9
  20593344.084    20593346.948    -4968018.057 9    368351.336 8
  20990012.996    20990014.611    27516818.550 9 -57765046.096 8
  24139631.579    24139635.323    55125311.470 8 -36479339.782 8
 86  6 17  2 36 41.0800000  0  4G12G13G 9G11
  21095915.445    21095917.003   -27793915.861 9  26682512.026 8
  20594143.391    20594145.586    -4963819.510 9    371622.930 9
  20993015.624    20993016.438    27532597.278 9 -57752751.000 8
  24142761.502    24142765.602    55141761.121 8 -36466521.873 8
 86  6 17  2 36 47.0800000  0  4G12G13G 9G11
  21093983.297    21093985.903   -27804066.873 9  26674602.146 9
  20594944.280    20594946.697    -4959608.601 9    374904.175 9
  20996020.845    20996022.742    27548396.859 9 -57740439.644 8
  24145892.733    24145896.021    55158208.811 8 -36453705.495 9
 86  6 17  2 36 53.0800000  0  4G12G13G 9G11
  21092056.055    21092057.447   -27814196.386 9  26666709.018 9
  20595748.912    20595750.219    -4955385.379 9    378194.989 8
  20999031.781    20999033.377    27564217.194 9 -57728112.107 8
  24149022.268    24149026.052    55174654.575 9 -36440890.622 8
 86  6 17  2 36 59.0800000  0  4G12G13G 9G11
  21090132.842    21090134.008   -27824304.444 9  26658832.605 9
  20596553.063    20596556.700    -4951149.911 9    381495.356 9
  21002046.494    21002047.124    27580058.184 9 -57715768.493 9
  24152150.777    24152154.280    55191098.362 8 -36428077.291 9
 86  6 17  2 37  5.0800000  0  4G12G13G 9G11
  21088212.892    21088215.813   -27834391.035 9  26650972.918 9
  20597362.416    20597364.705    -4946902.225 9    384805.240 9
  21005065.108    21005067.164    27595919.989 8 -57703408.654 9
  24155279.412    24155283.427    55207540.186 8 -36415265.469 8
 86  6 17  2 37 11.0800000  0  4G12G13G 9G11
  21086297.366    21086299.949   -27844456.131 9  26643129.988 9
  20598173.264    20598175.824    -4942642.170 9    388124.751 8
  21008086.305    21008088.686    27611802.434 8 -57691032.727 8
  24158408.546    24158412.259    55223980.015 9 -36402455.211 8
 86  6 17  2 37 17.0800000  0  4G12G13G 9G11
  21084386.860    21084388.364   -27854499.766 9  26635303.779 9
  20598985.449    20598988.416    -4938369.842 9    391453.849 9
  21011112.330    21011114.963    27627705.680 8 -57678640.607 9
  24161535.027    24161539.650    55240417.875 9 -36389646.494 9
 86  6 17  2 37 23.0800000  0  4G12G13G 9G11
  21082478.947    21082480.468   -27864521.913 9  26627494.318 9
  20599800.843    20599803.424    -4934085.247 9    394792.490 9
  21014144.469    21014145.099    27643629.501 8 -57666232.418 8
  24164663.298    24164667.688    55256853.751 8 -36376839.329 9
 86  6 17  2 37 29.0800000  0  4G12G13G 9G11
  21080575.836    21080579.008   -27874522.496 9  26619701.652 9
  20600618.216    20600621.247    -4929788.470 9    398140.629 9
  21017176.970    21017178.620    27659574.090 9 -57653808.084 8
  24167791.370    24167793.409    55273287.659 9 -36364033.678 8
 86  6 17  2 37 35.0800000  0  4G12G13G 9G11
  21078677.029    21078678.884   -27884501.454 9  26611925.838 9
  20601438.733    20601441.037    -4925479.433 9    401498.308 9
  21020214.834    21020218.226    27675539.388 9 -57641367.608 8
  24170917.949    24170922.636    55289719.570 9 -36351229.593 9
